Time,TemperatureF,DewpointF,PressureIn,WindDirection,WindDirectionDegrees,WindSpeedMPH,WindSpeedGustMPH,Humidity,HourlyPrecipIn,Conditions,Clouds,dailyrainin,SoftwareType,DateUTC
2013-03-03 00:00:00,40.8,29.2,30.22,NE,37,0.0,0.0,63,0.00,,---,0.00,VWS V14.01,2013-03-03 06:00:00,
2013-03-03 00:01:00,42.3,29.0,30.23,NE,37,0.0,0.0,59,0.00,,---,0.00,VWS V14.01,2013-03-03 06:01:00,
2013-03-03 00:02:00,40.7,29.1,30.23,NE,37,0.0,0.0,63,0.00,,---,0.00,VWS V14.01,2013-03-03 06:02:00,
2013-03-03 00:03:00,40.7,29.1,30.22,NE,37,0.0,0.0,63,0.00,,---,0.00,VWS V14.01,2013-03-03 06:03:00,
2013-03-03 00:04:00,40.7,29.1,30.22,NE,37,0.0,0.0,63,0.00,,---,0.00,VWS V14.01,2013-03-03 06:04:00,
2013-03-03 00:05:00,40.6,29.0,30.22,NE,37,0.0,0.0,63,0.00,,---,0.00,VWS V14.01,2013-03-03 06:05:00,
2013-03-03 00:06:00,42.2,28.9,30.23,NE,37,0.0,0.0,59,0.00,,---,0.00,VWS V14.01,2013-03-03 06:06:00,
2013-03-03 00:07:00,40.6,29.0,30.22,NE,37,0.0,0.0,63,0.00,,---,0.00,VWS V14.01,2013-03-03 06:07:00,
2013-03-03 00:08:00,40.6,29.0,30.22,NE,37,0.0,0.0,63,0.00,,---,0.00,VWS V14.01,2013-03-03 06:08:00,
2013-03-03 00:09:00,40.5,28.9,30.22,NE,37,0.0,0.0,63,0.00,,---,0.00,VWS V14.01,2013-03-03 06:09:00,
2013-03-03 00:10:00,40.5,28.9,30.22,NE,37,0.0,0.0,63,0.00,,---,0.00,VWS V14.01,2013-03-03 06:10:00,
2013-03-03 00:11:00,42.0,28.7,30.23,NE,37,0.0,2.0,59,0.00,,---,0.00,VWS V14.01,2013-03-03 06:11:00,
2013-03-03 00:12:00,40.4,28.8,30.22,NE,37,0.0,0.0,63,0.00,,---,0.00,VWS V14.01,2013-03-03 06:12:00,
2013-03-03 00:13:00,40.4,29.2,30.22,NE,37,0.0,0.0,64,0.00,,---,0.00,VWS V14.01,2013-03-03 06:13:00,
2013-03-03 00:14:00,40.3,29.1,30.22,NE,37,0.0,1.0,64,0.00,,---,0.00,VWS V14.01,2013-03-03 06:14:00,
2013-03-03 00:15:00,40.3,29.1,30.22,NE,37,0.0,1.0,64,0.00,,---,0.00,VWS V14.01,2013-03-03 06:15:00,
2013-03-03 00:16:00,41.9,28.6,30.23,NE,37,0.0,2.0,59,0.00,,---,0.00,VWS V14.01,2013-03-03 06:16:00,
2013-03-03 00:17:00,40.2,29.0,30.22,NE,37,0.0,1.0,64,0.00,,---,0.00,VWS V14.01,2013-03-03 06:17:00,
2013-03-03 00:18:00,40.1,28.9,30.22,NE,37,0.0,1.0,64,0.00,,---,0.00,VWS V14.01,2013-03-03 06:18:00,
2013-03-03 00:19:00,40.1,28.9,30.22,NE,37,0.0,1.0,64,0.00,,---,0.00,VWS V14.01,2013-03-03 06:19:00,
2013-03-03 00:20:00,40.1,28.9,30.22,NE,37,0.0,0.0,64,0.00,,---,0.00,VWS V14.01,2013-03-03 06:20:00,
2013-03-03 00:21:00,41.8,29.0,30.23,NE,37,0.0,1.0,60,0.00,,---,0.00,VWS V14.01,2013-03-03 06:21:00,
2013-03-03 00:22:00,40.0,28.8,30.22,NE,37,0.0,0.0,64,0.00,,---,0.00,VWS V14.01,2013-03-03 06:22:00,
2013-03-03 00:23:00,39.9,28.7,30.22,NE,37,0.0,0.0,64,0.00,,---,0.00,VWS V14.01,2013-03-03 06:23:00,
2013-03-03 00:24:00,39.9,28.7,30.23,NE,37,0.0,0.0,64,0.00,,---,0.00,VWS V14.01,2013-03-03 06:24:00,
2013-03-03 00:25:00,39.9,28.7,30.23,NE,37,0.0,0.0,64,0.00,,---,0.00,VWS V14.01,2013-03-03 06:25:00,
2013-03-03 00:26:00,41.7,28.9,30.23,NE,37,0.0,0.0,60,0.00,,---,0.00,VWS V14.01,2013-03-03 06:26:00,
2013-03-03 00:27:00,39.8,28.6,30.23,NE,37,0.0,0.0,64,0.00,,---,0.00,VWS V14.01,2013-03-03 06:27:00,
2013-03-03 00:28:00,39.8,28.6,30.23,NE,37,0.0,0.0,64,0.00,,---,0.00,VWS V14.01,2013-03-03 06:28:00,
2013-03-03 00:30:00,39.7,28.5,30.23,NE,37,0.0,0.0,64,0.00,,---,0.00,VWS V14.01,2013-03-03 06:30:00,
2013-03-03 00:31:00,41.5,28.7,30.23,NE,37,0.0,0.0,60,0.00,,---,0.00,VWS V14.01,2013-03-03 06:31:00,
2013-03-03 00:32:00,39.6,28.4,30.23,NE,37,0.0,0.0,64,0.00,,---,0.00,VWS V14.01,2013-03-03 06:32:00,
2013-03-03 00:33:00,39.6,28.4,30.23,NE,37,0.0,0.0,64,0.00,,---,0.00,VWS V14.01,2013-03-03 06:33:00,
2013-03-03 00:34:00,39.5,28.4,30.23,NE,37,0.0,0.0,64,0.00,,---,0.00,VWS V14.01,2013-03-03 06:34:00,
2013-03-03 00:35:00,39.5,28.4,30.23,NE,37,0.0,0.0,64,0.00,,---,0.00,VWS V14.01,2013-03-03 06:35:00,
2013-03-03 00:36:00,41.4,29.0,30.23,NE,37,0.0,0.0,61,0.00,,---,0.00,VWS V14.01,2013-03-03 06:36:00,
2013-03-03 00:37:00,39.4,28.2,30.22,NE,37,0.0,0.0,64,0.00,,---,0.00,VWS V14.01,2013-03-03 06:37:00,
2013-03-03 00:38:00,39.3,28.5,30.23,NE,37,0.0,0.0,65,0.00,,---,0.00,VWS V14.01,2013-03-03 06:38:00,
2013-03-03 00:39:00,39.3,28.5,30.23,NE,37,0.0,0.0,65,0.00,,---,0.00,VWS V14.01,2013-03-03 06:39:00,
2013-03-03 00:40:00,39.2,28.4,30.23,NE,37,0.0,0.0,65,0.00,,---,0.00,VWS V14.01,2013-03-03 06:40:00,
2013-03-03 00:41:00,41.1,28.7,30.22,NE,37,0.0,0.0,61,0.00,,---,0.00,VWS V14.01,2013-03-03 06:41:00,
2013-03-03 00:42:00,39.2,28.4,30.23,NE,37,0.0,0.0,65,0.00,,---,0.00,VWS V14.01,2013-03-03 06:42:00,
2013-03-03 00:43:00,39.1,28.3,30.23,NE,37,0.0,0.0,65,0.00,,---,0.00,VWS V14.01,2013-03-03 06:43:00,
2013-03-03 00:44:00,39.1,28.3,30.23,NE,37,0.0,0.0,65,0.00,,---,0.00,VWS V14.01,2013-03-03 06:44:00,
2013-03-03 00:45:00,39.0,28.2,30.23,NE,37,0.0,0.0,65,0.00,,---,0.00,VWS V14.01,2013-03-03 06:45:00,
2013-03-03 00:46:00,40.9,28.9,30.22,NE,37,0.0,0.0,62,0.00,,---,0.00,VWS V14.01,2013-03-03 06:46:00,
2013-03-03 00:47:00,38.9,28.1,30.22,NE,37,0.0,0.0,65,0.00,,---,0.00,VWS V14.01,2013-03-03 06:47:00,
2013-03-03 00:48:00,38.9,28.1,30.22,NE,37,0.0,0.0,65,0.00,,---,0.00,VWS V14.01,2013-03-03 06:48:00,
2013-03-03 00:49:00,38.8,28.1,30.22,NE,37,0.0,0.0,65,0.00,,---,0.00,VWS V14.01,2013-03-03 06:49:00,
2013-03-03 00:50:00,38.8,28.1,30.22,NE,37,0.0,0.0,65,0.00,,---,0.00,VWS V14.01,2013-03-03 06:50:00,
2013-03-03 00:51:00,40.9,28.9,30.22,NE,37,0.0,0.0,62,0.00,,---,0.00,VWS V14.01,2013-03-03 06:51:00,
2013-03-03 00:52:00,38.7,28.0,30.22,NE,37,0.0,0.0,65,0.00,,---,0.00,VWS V14.01,2013-03-03 06:52:00,
2013-03-03 00:53:00,38.6,27.9,30.22,NE,37,0.0,0.0,65,0.00,,---,0.00,VWS V14.01,2013-03-03 06:53:00,
2013-03-03 00:54:00,38.6,27.9,30.22,NE,37,0.0,0.0,65,0.00,,---,0.00,VWS V14.01,2013-03-03 06:54:00,
2013-03-03 00:55:00,38.5,27.8,30.22,NE,37,0.0,0.0,65,0.00,,---,0.00,VWS V14.01,2013-03-03 06:55:00,
2013-03-03 00:56:00,40.7,29.1,30.22,NE,37,0.0,0.0,63,0.00,,---,0.00,VWS V14.01,2013-03-03 06:56:00,
2013-03-03 00:57:00,38.4,27.7,30.22,NE,37,0.0,0.0,65,0.00,,---,0.00,VWS V14.01,2013-03-03 06:57:00,
2013-03-03 00:58:00,38.4,27.7,30.22,NE,37,0.0,0.0,65,0.00,,---,0.00,VWS V14.01,2013-03-03 06:58:00,
2013-03-03 00:59:00,38.4,28.0,30.23,NE,37,0.0,0.0,66,0.00,,---,0.00,VWS V14.01,2013-03-03 06:59:00,
2013-03-03 01:00:00,38.3,28.0,30.22,NE,37,0.0,0.0,66,0.00,,---,0.00,VWS V14.01,2013-03-03 07:00:00,
2013-03-03 01:01:00,40.6,29.0,30.22,NE,37,0.0,0.0,63,0.00,,---,0.00,VWS V14.01,2013-03-03 07:01:00,
2013-03-03 01:02:00,38.2,27.9,30.22,NE,37,0.0,0.0,66,0.00,,---,0.00,VWS V14.01,2013-03-03 07:02:00,
2013-03-03 01:03:00,38.2,27.9,30.22,NE,37,0.0,0.0,66,0.00,,---,0.00,VWS V14.01,2013-03-03 07:03:00,
2013-03-03 01:04:00,38.1,27.8,30.23,NE,37,0.0,0.0,66,0.00,,---,0.00,VWS V14.01,2013-03-03 07:04:00,
2013-03-03 01:05:00,38.1,27.8,30.23,NE,37,0.0,0.0,66,0.00,,---,0.00,VWS V14.01,2013-03-03 07:05:00,
2013-03-03 01:06:00,40.4,28.8,30.22,NE,37,0.0,0.0,63,0.00,,---,0.00,VWS V14.01,2013-03-03 07:06:00,
2013-03-03 01:07:00,38.0,27.7,30.22,NE,37,0.0,0.0,66,0.00,,---,0.00,VWS V14.01,2013-03-03 07:07:00,
2013-03-03 01:08:00,38.0,27.7,30.23,NE,37,0.0,0.0,66,0.00,,---,0.00,VWS V14.01,2013-03-03 07:08:00,
2013-03-03 01:09:00,37.9,27.6,30.23,NE,37,0.0,0.0,66,0.00,,---,0.00,VWS V14.01,2013-03-03 07:09:00,
2013-03-03 01:10:00,37.8,27.5,30.23,NE,37,0.0,0.0,66,0.00,,---,0.00,VWS V14.01,2013-03-03 07:10:00,
2013-03-03 01:11:00,40.3,29.1,30.22,NE,37,0.0,1.0,64,0.00,,---,0.00,VWS V14.01,2013-03-03 07:11:00,
2013-03-03 01:12:00,37.8,27.5,30.23,NE,37,0.0,0.0,66,0.00,,---,0.00,VWS V14.01,2013-03-03 07:12:00,
2013-03-03 01:13:00,37.7,27.8,30.23,NE,37,0.0,0.0,67,0.00,,---,0.00,VWS V14.01,2013-03-03 07:13:00,
2013-03-03 01:14:00,37.7,27.4,30.23,NE,37,0.0,0.0,66,0.00,,---,0.00,VWS V14.01,2013-03-03 07:14:00,
2013-03-03 01:15:00,37.7,27.8,30.23,NE,37,0.0,0.0,67,0.00,,---,0.00,VWS V14.01,2013-03-03 07:15:00,
2013-03-03 01:16:00,40.1,28.9,30.22,NE,37,0.0,0.0,64,0.00,,---,0.00,VWS V14.01,2013-03-03 07:16:00,
2013-03-03 01:17:00,37.6,27.6,30.23,NE,37,0.0,0.0,67,0.00,,---,0.00,VWS V14.01,2013-03-03 07:17:00,
2013-03-03 01:18:00,37.5,27.6,30.22,NE,37,0.0,0.0,67,0.00,,---,0.00,VWS V14.01,2013-03-03 07:18:00,
2013-03-03 01:19:00,37.5,27.6,30.22,NE,37,0.0,0.0,67,0.00,,---,0.00,VWS V14.01,2013-03-03 07:19:00,
2013-03-03 01:20:00,37.5,27.6,30.23,NE,37,0.0,0.0,67,0.00,,---,0.00,VWS V14.01,2013-03-03 07:20:00,
2013-03-03 01:21:00,39.9,28.7,30.23,NE,37,0.0,0.0,64,0.00,,---,0.00,VWS V14.01,2013-03-03 07:21:00,
2013-03-03 01:22:00,37.5,27.6,30.23,NE,37,0.0,0.0,67,0.00,,---,0.00,VWS V14.01,2013-03-03 07:22:00,
2013-03-03 01:23:00,37.5,27.6,30.23,NE,37,0.0,0.0,67,0.00,,---,0.00,VWS V14.01,2013-03-03 07:23:00,
2013-03-03 01:24:00,37.5,27.6,30.22,NE,37,0.0,0.0,67,0.00,,---,0.00,VWS V14.01,2013-03-03 07:24:00,
2013-03-03 01:25:00,37.5,27.6,30.23,NE,37,0.0,0.0,67,0.00,,---,0.00,VWS V14.01,2013-03-03 07:25:00,
2013-03-03 01:26:00,39.7,28.5,30.23,NE,37,0.0,0.0,64,0.00,,---,0.00,VWS V14.01,2013-03-03 07:26:00,
2013-03-03 01:27:00,37.6,27.6,30.22,NE,37,0.0,0.0,67,0.00,,---,0.00,VWS V14.01,2013-03-03 07:27:00,
2013-03-03 01:28:00,37.6,27.6,30.22,NE,37,0.0,0.0,67,0.00,,---,0.00,VWS V14.01,2013-03-03 07:28:00,
2013-03-03 01:29:00,37.7,27.8,30.22,NE,37,0.0,0.0,67,0.00,,---,0.00,VWS V14.01,2013-03-03 07:29:00,
2013-03-03 01:31:00,39.5,28.4,30.23,NE,37,0.0,0.0,64,0.00,,---,0.00,VWS V14.01,2013-03-03 07:31:00,
2013-03-03 01:32:00,37.8,27.5,30.22,NE,37,0.0,0.0,66,0.00,,---,0.00,VWS V14.01,2013-03-03 07:32:00,
2013-03-03 01:33:00,37.7,27.4,30.22,NE,37,2.0,2.0,66,0.00,,---,0.00,VWS V14.01,2013-03-03 07:33:00,
2013-03-03 01:34:00,37.8,27.5,30.22,NE,37,1.0,2.0,66,0.00,,---,0.00,VWS V14.01,2013-03-03 07:34:00,
2013-03-03 01:35:00,37.8,27.5,30.22,NE,37,1.0,2.0,66,0.00,,---,0.00,VWS V14.01,2013-03-03 07:35:00,
2013-03-03 01:36:00,39.2,28.4,30.23,NE,37,0.0,0.0,65,0.00,,---,0.00,VWS V14.01,2013-03-03 07:36:00,
2013-03-03 01:37:00,37.8,27.5,30.21,NE,37,0.0,2.0,66,0.00,,---,0.00,VWS V14.01,2013-03-03 07:37:00,
2013-03-03 01:38:00,37.9,27.6,30.21,NE,37,0.0,2.0,66,0.00,,---,0.00,VWS V14.01,2013-03-03 07:38:00,
2013-03-03 01:39:00,37.9,27.6,30.21,NE,37,0.0,2.0,66,0.00,,---,0.00,VWS V14.01,2013-03-03 07:39:00,
2013-03-03 01:40:00,37.9,27.6,30.21,NE,37,0.0,2.0,66,0.00,,---,0.00,VWS V14.01,2013-03-03 07:40:00,
2013-03-03 01:41:00,39.0,28.2,30.22,NE,37,0.0,0.0,65,0.00,,---,0.00,VWS V14.01,2013-03-03 07:41:00,
2013-03-03 01:42:00,37.9,27.6,30.22,NE,37,0.0,2.0,66,0.00,,---,0.00,VWS V14.01,2013-03-03 07:42:00,
2013-03-03 01:43:00,38.0,27.7,30.22,NE,37,1.0,2.0,66,0.00,,---,0.00,VWS V14.01,2013-03-03 07:43:00,
2013-03-03 01:44:00,38.0,27.7,30.21,NE,37,0.0,2.0,66,0.00,,---,0.00,VWS V14.01,2013-03-03 07:44:00,
2013-03-03 01:45:00,38.0,27.7,30.21,NE,37,0.0,2.0,66,0.00,,---,0.00,VWS V14.01,2013-03-03 07:45:00,
2013-03-03 01:46:00,38.8,28.1,30.23,NE,37,0.0,0.0,65,0.00,,---,0.00,VWS V14.01,2013-03-03 07:46:00,
2013-03-03 01:47:00,38.0,27.7,30.21,NE,37,0.0,2.0,66,0.00,,---,0.00,VWS V14.01,2013-03-03 07:47:00,
2013-03-03 01:48:00,38.0,27.7,30.21,NE,37,0.0,1.0,66,0.00,,---,0.00,VWS V14.01,2013-03-03 07:48:00,
2013-03-03 01:49:00,38.0,27.7,30.21,NE,37,0.0,0.0,66,0.00,,---,0.00,VWS V14.01,2013-03-03 07:49:00,
2013-03-03 01:50:00,38.0,27.7,30.21,NE,37,0.0,0.0,66,0.00,,---,0.00,VWS V14.01,2013-03-03 07:50:00,
2013-03-03 01:51:00,38.5,27.8,30.22,NE,37,0.0,0.0,65,0.00,,---,0.00,VWS V14.01,2013-03-03 07:51:00,
2013-03-03 01:52:00,38.0,27.7,30.21,NE,37,0.0,0.0,66,0.00,,---,0.00,VWS V14.01,2013-03-03 07:52:00,
2013-03-03 01:53:00,38.0,27.7,30.21,NE,37,0.0,0.0,66,0.00,,---,0.00,VWS V14.01,2013-03-03 07:53:00,
2013-03-03 01:54:00,38.0,27.7,30.21,NE,37,0.0,0.0,66,0.00,,---,0.00,VWS V14.01,2013-03-03 07:54:00,
2013-03-03 01:55:00,38.0,27.7,30.21,NE,37,0.0,0.0,66,0.00,,---,0.00,VWS V14.01,2013-03-03 07:55:00,
2013-03-03 01:56:00,38.3,28.0,30.22,NE,37,0.0,0.0,66,0.00,,---,0.00,VWS V14.01,2013-03-03 07:56:00,
2013-03-03 01:57:00,38.0,27.7,30.21,NE,37,0.0,0.0,66,0.00,,---,0.00,VWS V14.01,2013-03-03 07:57:00,
2013-03-03 01:58:00,38.0,27.3,30.21,NE,37,0.0,0.0,65,0.00,,---,0.00,VWS V14.01,2013-03-03 07:58:00,
2013-03-03 01:59:00,38.0,27.3,30.21,NE,37,0.0,0.0,65,0.00,,---,0.00,VWS V14.01,2013-03-03 07:59:00,
2013-03-03 02:00:00,37.9,27.2,30.21,NE,37,0.0,0.0,65,0.00,,---,0.00,VWS V14.01,2013-03-03 08:00:00,
2013-03-03 02:01:00,38.0,27.7,30.23,NE,37,0.0,0.0,66,0.00,,---,0.00,VWS V14.01,2013-03-03 08:01:00,
2013-03-03 02:02:00,37.9,27.2,30.20,NE,37,0.0,0.0,65,0.00,,---,0.00,VWS V14.01,2013-03-03 08:02:00,
2013-03-03 02:03:00,37.9,27.2,30.20,NE,37,0.0,0.0,65,0.00,,---,0.00,VWS V14.01,2013-03-03 08:03:00,
2013-03-03 02:04:00,37.9,27.2,30.20,NE,37,0.0,0.0,65,0.00,,---,0.00,VWS V14.01,2013-03-03 08:04:00,
2013-03-03 02:05:00,37.8,27.1,30.20,NE,37,0.0,0.0,65,0.00,,---,0.00,VWS V14.01,2013-03-03 08:05:00,
2013-03-03 02:06:00,37.8,27.5,30.23,NE,37,0.0,0.0,66,0.00,,---,0.00,VWS V14.01,2013-03-03 08:06:00,
2013-03-03 02:07:00,37.8,27.5,30.20,NE,37,0.0,0.0,66,0.00,,---,0.00,VWS V14.01,2013-03-03 08:07:00,
2013-03-03 02:08:00,37.7,27.4,30.20,NE,37,0.0,0.0,66,0.00,,---,0.00,VWS V14.01,2013-03-03 08:08:00,
2013-03-03 02:09:00,37.7,27.4,30.20,NE,37,0.0,0.0,66,0.00,,---,0.00,VWS V14.01,2013-03-03 08:09:00,
2013-03-03 02:11:00,37.6,27.6,30.23,NE,37,0.0,0.0,67,0.00,,---,0.00,VWS V14.01,2013-03-03 08:11:00,
2013-03-03 02:12:00,37.6,27.3,30.20,NE,37,0.0,0.0,66,0.00,,---,0.00,VWS V14.01,2013-03-03 08:12:00,
2013-03-03 02:13:00,37.6,27.3,30.20,NE,37,0.0,0.0,66,0.00,,---,0.00,VWS V14.01,2013-03-03 08:13:00,
2013-03-03 02:14:00,37.5,27.2,30.20,NE,37,0.0,0.0,66,0.00,,---,0.00,VWS V14.01,2013-03-03 08:14:00,
2013-03-03 02:15:00,37.5,27.2,30.20,NE,37,0.0,0.0,66,0.00,,---,0.00,VWS V14.01,2013-03-03 08:15:00,
2013-03-03 02:16:00,37.5,27.5,30.23,NE,37,0.0,0.0,67,0.00,,---,0.00,VWS V14.01,2013-03-03 08:16:00,
2013-03-03 02:17:00,37.5,27.2,30.20,NE,37,0.0,0.0,66,0.00,,---,0.00,VWS V14.01,2013-03-03 08:17:00,
2013-03-03 02:18:00,37.5,27.2,30.20,NE,37,0.0,0.0,66,0.00,,---,0.00,VWS V14.01,2013-03-03 08:18:00,
2013-03-03 02:19:00,37.5,27.2,30.20,NE,37,0.0,0.0,66,0.00,,---,0.00,VWS V14.01,2013-03-03 08:19:00,
2013-03-03 02:20:00,37.5,27.2,30.20,NE,37,0.0,0.0,66,0.00,,---,0.00,VWS V14.01,2013-03-03 08:20:00,
2013-03-03 02:21:00,37.6,27.6,30.22,NE,37,0.0,0.0,67,0.00,,---,0.00,VWS V14.01,2013-03-03 08:21:00,
2013-03-03 02:22:00,37.5,27.6,30.20,NE,37,0.0,0.0,67,0.00,,---,0.00,VWS V14.01,2013-03-03 08:22:00,
2013-03-03 02:23:00,37.4,27.5,30.20,NE,37,0.0,0.0,67,0.00,,---,0.00,VWS V14.01,2013-03-03 08:23:00,
2013-03-03 02:24:00,37.4,27.5,30.20,NE,37,0.0,0.0,67,0.00,,---,0.00,VWS V14.01,2013-03-03 08:24:00,
2013-03-03 02:25:00,37.4,27.5,30.20,NE,37,0.0,0.0,67,0.00,,---,0.00,VWS V14.01,2013-03-03 08:25:00,
2013-03-03 02:26:00,37.7,27.4,30.22,NE,37,0.0,0.0,66,0.00,,---,0.00,VWS V14.01,2013-03-03 08:26:00,
2013-03-03 02:27:00,37.4,27.5,30.19,NE,37,0.0,0.0,67,0.00,,---,0.00,VWS V14.01,2013-03-03 08:27:00,
2013-03-03 02:28:00,37.4,27.5,30.20,NE,37,0.0,0.0,67,0.00,,---,0.00,VWS V14.01,2013-03-03 08:28:00,
2013-03-03 02:29:00,37.4,27.5,30.20,NE,37,0.0,0.0,67,0.00,,---,0.00,VWS V14.01,2013-03-03 08:29:00,
2013-03-03 02:30:00,37.4,27.5,30.20,NE,37,0.0,0.0,67,0.00,,---,0.00,VWS V14.01,2013-03-03 08:30:00,
2013-03-03 02:31:00,37.8,27.5,30.21,NE,37,0.0,2.0,66,0.00,,---,0.00,VWS V14.01,2013-03-03 08:31:00,
2013-03-03 02:32:00,37.4,27.5,30.20,NE,37,0.0,0.0,67,0.00,,---,0.00,VWS V14.01,2013-03-03 08:32:00,
2013-03-03 02:33:00,37.4,27.5,30.20,NE,37,0.0,0.0,67,0.00,,---,0.00,VWS V14.01,2013-03-03 08:33:00,
2013-03-03 02:34:00,37.4,27.5,30.20,NE,37,0.0,0.0,67,0.00,,---,0.00,VWS V14.01,2013-03-03 08:34:00,
2013-03-03 02:35:00,37.4,27.5,30.20,NE,37,0.0,0.0,67,0.00,,---,0.00,VWS V14.01,2013-03-03 08:35:00,
2013-03-03 02:36:00,37.9,27.6,30.21,NE,37,0.0,2.0,66,0.00,,---,0.00,VWS V14.01,2013-03-03 08:36:00,
2013-03-03 02:37:00,37.4,27.5,30.19,NE,37,0.0,0.0,67,0.00,,---,0.00,VWS V14.01,2013-03-03 08:37:00,
2013-03-03 02:38:00,37.5,27.6,30.19,NE,37,0.0,0.0,67,0.00,,---,0.00,VWS V14.01,2013-03-03 08:38:00,
2013-03-03 02:39:00,37.5,27.6,30.19,NE,37,0.0,0.0,67,0.00,,---,0.00,VWS V14.01,2013-03-03 08:39:00,
2013-03-03 02:40:00,37.5,27.6,30.19,NE,37,0.0,0.0,67,0.00,,---,0.00,VWS V14.01,2013-03-03 08:40:00,
2013-03-03 02:41:00,38.0,27.7,30.21,NE,37,0.0,2.0,66,0.00,,---,0.00,VWS V14.01,2013-03-03 08:41:00,
2013-03-03 02:42:00,37.5,27.6,30.19,NE,37,0.0,0.0,67,0.00,,---,0.00,VWS V14.01,2013-03-03 08:42:00,
2013-03-03 02:43:00,37.6,27.6,30.19,NE,37,0.0,0.0,67,0.00,,---,0.00,VWS V14.01,2013-03-03 08:43:00,
2013-03-03 02:44:00,37.6,27.6,30.19,NE,37,0.0,0.0,67,0.00,,---,0.00,VWS V14.01,2013-03-03 08:44:00,
2013-03-03 02:45:00,37.6,27.6,30.19,NE,37,0.0,0.0,67,0.00,,---,0.00,VWS V14.01,2013-03-03 08:45:00,
2013-03-03 02:46:00,38.0,27.7,30.21,NE,37,0.0,0.0,66,0.00,,---,0.00,VWS V14.01,2013-03-03 08:46:00,
2013-03-03 02:47:00,37.7,27.8,30.19,NE,37,0.0,0.0,67,0.00,,---,0.00,VWS V14.01,2013-03-03 08:47:00,
2013-03-03 02:48:00,37.7,27.4,30.19,NE,37,0.0,0.0,66,0.00,,---,0.00,VWS V14.01,2013-03-03 08:48:00,
2013-03-03 02:49:00,37.7,27.4,30.19,NE,37,0.0,0.0,66,0.00,,---,0.00,VWS V14.01,2013-03-03 08:49:00,
2013-03-03 02:50:00,37.8,27.5,30.19,NE,37,0.0,0.0,66,0.00,,---,0.00,VWS V14.01,2013-03-03 08:50:00,
2013-03-03 02:51:00,38.0,27.7,30.21,NE,37,0.0,0.0,66,0.00,,---,0.00,VWS V14.01,2013-03-03 08:51:00,
2013-03-03 02:52:00,37.9,27.6,30.19,NE,37,0.0,1.0,66,0.00,,---,0.00,VWS V14.01,2013-03-03 08:52:00,
2013-03-03 02:53:00,37.9,27.2,30.18,NE,37,0.0,1.0,65,0.00,,---,0.00,VWS V14.01,2013-03-03 08:53:00,
2013-03-03 02:54:00,38.0,27.3,30.18,NE,37,0.0,1.0,65,0.00,,---,0.00,VWS V14.01,2013-03-03 08:54:00,
2013-03-03 02:55:00,38.0,27.3,30.18,NE,37,0.0,1.0,65,0.00,,---,0.00,VWS V14.01,2013-03-03 08:55:00,
2013-03-03 02:56:00,37.9,27.2,30.21,NE,37,0.0,0.0,65,0.00,,---,0.00,VWS V14.01,2013-03-03 08:56:00,
2013-03-03 02:57:00,38.1,27.4,30.18,NE,37,0.0,0.0,65,0.00,,---,0.00,VWS V14.01,2013-03-03 08:57:00,
2013-03-03 02:58:00,38.2,27.5,30.18,NE,37,0.0,0.0,65,0.00,,---,0.00,VWS V14.01,2013-03-03 08:58:00,
2013-03-03 02:59:00,38.2,27.5,30.18,NE,37,0.0,0.0,65,0.00,,---,0.00,VWS V14.01,2013-03-03 08:59:00,
2013-03-03 03:00:00,38.2,27.5,30.18,NE,37,0.0,0.0,65,0.00,,---,0.00,VWS V14.01,2013-03-03 09:00:00,
2013-03-03 03:01:00,37.8,27.1,30.20,NE,37,0.0,0.0,65,0.00,,---,0.00,VWS V14.01,2013-03-03 09:01:00,
2013-03-03 03:02:00,38.3,27.6,30.18,NE,37,0.0,0.0,65,0.00,,---,0.00,VWS V14.01,2013-03-03 09:02:00,
2013-03-03 03:03:00,38.3,27.6,30.18,NE,37,1.0,2.0,65,0.00,,---,0.00,VWS V14.01,2013-03-03 09:03:00,
2013-03-03 03:04:00,38.4,27.7,30.18,NE,37,0.0,2.0,65,0.00,,---,0.00,VWS V14.01,2013-03-03 09:04:00,
2013-03-03 03:05:00,38.4,27.7,30.18,NE,37,0.0,2.0,65,0.00,,---,0.00,VWS V14.01,2013-03-03 09:05:00,
2013-03-03 03:06:00,37.6,27.3,30.20,NE,37,0.0,0.0,66,0.00,,---,0.00,VWS V14.01,2013-03-03 09:06:00,
2013-03-03 03:08:00,38.4,27.7,30.18,NE,37,2.0,3.0,65,0.00,,---,0.00,VWS V14.01,2013-03-03 09:08:00,
2013-03-03 03:09:00,38.4,27.7,30.18,NE,37,1.0,3.0,65,0.00,,---,0.00,VWS V14.01,2013-03-03 09:09:00,
2013-03-03 03:10:00,38.4,27.7,30.18,NE,37,0.0,3.0,65,0.00,,---,0.00,VWS V14.01,2013-03-03 09:10:00,
2013-03-03 03:11:00,37.5,27.2,30.20,NE,37,0.0,0.0,66,0.00,,---,0.00,VWS V14.01,2013-03-03 09:11:00,
2013-03-03 03:13:00,38.4,27.7,30.18,NE,38,2.0,3.0,65,0.00,,---,0.00,VWS V14.01,2013-03-03 09:13:00,
2013-03-03 03:14:00,38.4,27.7,30.18,NE,38,0.0,3.0,65,0.00,,---,0.00,VWS V14.01,2013-03-03 09:14:00,
2013-03-03 03:15:00,38.3,27.6,30.18,NE,38,0.0,3.0,65,0.00,,---,0.00,VWS V14.01,2013-03-03 09:15:00,
2013-03-03 03:16:00,37.5,27.5,30.20,NE,37,0.0,0.0,67,0.00,,---,0.00,VWS V14.01,2013-03-03 09:16:00,
2013-03-03 03:17:00,38.3,27.6,30.19,NE,38,0.0,3.0,65,0.00,,---,0.00,VWS V14.01,2013-03-03 09:17:00,
2013-03-03 03:21:00,37.4,27.5,30.19,NE,37,0.0,0.0,67,0.00,,---,0.00,VWS V14.01,2013-03-03 09:21:00,
2013-03-03 03:22:00,38.2,27.5,30.18,NE,38,0.0,0.0,65,0.00,,---,0.00,VWS V14.01,2013-03-03 09:22:00,
2013-03-03 03:23:00,38.2,27.5,30.18,NE,38,0.0,0.0,65,0.00,,---,0.00,VWS V14.01,2013-03-03 09:23:00,
2013-03-03 03:26:00,37.4,27.5,30.20,NE,37,0.0,0.0,67,0.00,,---,0.00,VWS V14.01,2013-03-03 09:26:00,
2013-03-03 03:29:00,38.0,27.3,30.18,NE,38,1.0,3.0,65,0.00,,---,0.00,VWS V14.01,2013-03-03 09:29:00,
2013-03-03 03:30:00,37.9,27.2,30.18,NE,38,1.0,3.0,65,0.00,,---,0.00,VWS V14.01,2013-03-03 09:30:00,
2013-03-03 03:31:00,37.4,27.5,30.19,NE,37,0.0,0.0,67,0.00,,---,0.00,VWS V14.01,2013-03-03 09:31:00,
2013-03-03 03:32:00,37.8,27.1,30.18,NE,38,0.0,1.0,65,0.00,,---,0.00,VWS V14.01,2013-03-03 09:32:00,
2013-03-03 03:33:00,37.8,27.1,30.18,NE,38,0.0,1.0,65,0.00,,---,0.00,VWS V14.01,2013-03-03 09:33:00,
2013-03-03 03:35:00,37.6,26.9,30.19,NE,38,0.0,3.0,65,0.00,,---,0.00,VWS V14.01,2013-03-03 09:35:00,
2013-03-03 03:36:00,37.5,27.5,30.19,NE,37,0.0,0.0,67,0.00,,---,0.00,VWS V14.01,2013-03-03 09:36:00,
2013-03-03 03:37:00,37.5,26.8,30.18,NE,38,0.0,3.0,65,0.00,,---,0.00,VWS V14.01,2013-03-03 09:37:00,
2013-03-03 03:38:00,37.5,27.2,30.18,NE,38,1.0,3.0,66,0.00,,---,0.00,VWS V14.01,2013-03-03 09:38:00,
2013-03-03 03:39:00,37.4,27.1,30.18,NE,38,1.0,3.0,66,0.00,,---,0.00,VWS V14.01,2013-03-03 09:39:00,
2013-03-03 03:41:00,37.6,27.6,30.19,NE,37,0.0,0.0,67,0.00,,---,0.00,VWS V14.01,2013-03-03 09:41:00,
2013-03-03 03:44:00,37.2,26.9,30.18,NE,38,1.0,3.0,66,0.00,,---,0.00,VWS V14.01,2013-03-03 09:44:00,
2013-03-03 03:46:00,37.8,27.5,30.19,NE,37,0.0,0.0,66,0.00,,---,0.00,VWS V14.01,2013-03-03 09:46:00,
2013-03-03 03:47:00,37.2,26.9,30.18,NE,39,0.0,4.0,66,0.00,,---,0.00,VWS V14.01,2013-03-03 09:47:00,
2013-03-03 03:51:00,38.0,27.3,30.18,NE,37,0.0,1.0,65,0.00,,---,0.00,VWS V14.01,2013-03-03 09:51:00,
2013-03-03 03:52:00,37.1,26.4,30.18,NE,39,0.0,3.0,65,0.00,,---,0.00,VWS V14.01,2013-03-03 09:52:00,
2013-03-03 03:53:00,37.1,26.4,30.18,NE,39,0.0,2.0,65,0.00,,---,0.00,VWS V14.01,2013-03-03 09:53:00,
2013-03-03 03:54:00,37.1,26.4,30.18,NE,39,2.0,2.0,65,0.00,,---,0.00,VWS V14.01,2013-03-03 09:54:00,
2013-03-03 03:55:00,37.1,26.8,30.18,NE,39,0.0,2.0,66,0.00,,---,0.00,VWS V14.01,2013-03-03 09:55:00,
2013-03-03 03:56:00,38.2,27.5,30.18,NE,37,0.0,0.0,65,0.00,,---,0.00,VWS V14.01,2013-03-03 09:56:00,
2013-03-03 03:58:00,37.2,26.5,30.18,NE,39,1.0,2.0,65,0.00,,---,0.00,VWS V14.01,2013-03-03 09:58:00,
2013-03-03 04:00:00,37.2,26.5,30.18,NE,39,0.0,3.0,65,0.00,,---,0.00,VWS V14.01,2013-03-03 10:00:00,
2013-03-03 04:01:00,38.4,27.7,30.18,NE,37,0.0,2.0,65,0.00,,---,0.00,VWS V14.01,2013-03-03 10:01:00,
2013-03-03 04:02:00,37.3,26.6,30.18,NE,39,0.0,3.0,65,0.00,,---,0.00,VWS V14.01,2013-03-03 10:02:00,
2013-03-03 04:04:00,37.3,26.6,30.18,NE,39,0.0,2.0,65,0.00,,---,0.00,VWS V14.01,2013-03-03 10:04:00,
2013-03-03 04:06:00,38.4,27.7,30.18,NE,37,0.0,3.0,65,0.00,,---,0.00,VWS V14.01,2013-03-03 10:06:00,
2013-03-03 04:09:00,37.3,26.6,30.18,NE,39,2.0,3.0,65,0.00,,---,0.00,VWS V14.01,2013-03-03 10:09:00,
2013-03-03 04:10:00,37.3,26.6,30.18,NE,41,1.0,4.0,65,0.00,,---,0.00,VWS V14.01,2013-03-03 10:10:00,
2013-03-03 04:11:00,38.3,27.6,30.18,NE,38,0.0,3.0,65,0.00,,---,0.00,VWS V14.01,2013-03-03 10:11:00,
2013-03-03 04:13:00,37.3,26.6,30.18,NE,43,0.0,4.0,65,0.00,,---,0.00,VWS V14.01,2013-03-03 10:13:00,
2013-03-03 04:15:00,37.3,26.6,30.19,NE,43,0.0,3.0,65,0.00,,---,0.00,VWS V14.01,2013-03-03 10:15:00,
2013-03-03 04:16:00,38.2,27.5,30.18,NE,38,0.0,3.0,65,0.00,,---,0.00,VWS V14.01,2013-03-03 10:16:00,
2013-03-03 04:19:00,37.3,26.2,30.19,NE,43,0.0,3.0,64,0.00,,---,0.00,VWS V14.01,2013-03-03 10:19:00,
2013-03-03 04:21:00,38.1,27.4,30.18,NE,38,2.0,3.0,65,0.00,,---,0.00,VWS V14.01,2013-03-03 10:21:00,
2013-03-03 04:22:00,37.3,26.2,30.19,NE,43,0.0,3.0,64,0.00,,---,0.00,VWS V14.01,2013-03-03 10:22:00,
2013-03-03 04:23:00,37.2,26.2,30.19,NE,43,0.0,3.0,64,0.00,,---,0.00,VWS V14.01,2013-03-03 10:23:00,
2013-03-03 04:25:00,37.2,26.2,30.19,NE,44,1.0,3.0,64,0.00,,---,0.00,VWS V14.01,2013-03-03 10:25:00,
2013-03-03 04:26:00,37.9,27.2,30.18,NE,38,0.0,2.0,65,0.00,,---,0.00,VWS V14.01,2013-03-03 10:26:00,
2013-03-03 04:29:00,37.2,26.5,30.18,NE,49,2.0,3.0,65,0.00,,---,0.00,VWS V14.01,2013-03-03 10:29:00,
2013-03-03 04:31:00,37.6,26.9,30.18,NE,38,0.0,3.0,65,0.00,,---,0.00,VWS V14.01,2013-03-03 10:31:00,
2013-03-03 04:34:00,37.2,26.5,30.18,East,82,4.0,5.0,65,0.00,,---,0.00,VWS V14.01,2013-03-03 10:34:00,
2013-03-03 04:35:00,37.2,26.5,30.18,East,86,3.0,5.0,65,0.00,,---,0.00,VWS V14.01,2013-03-03 10:35:00,
2013-03-03 04:36:00,37.3,27.0,30.18,NE,38,3.0,3.0,66,0.00,,---,0.00,VWS V14.01,2013-03-03 10:36:00,
2013-03-03 04:38:00,37.2,26.5,30.18,East,90,4.0,5.0,65,0.00,,---,0.00,VWS V14.01,2013-03-03 10:38:00,
2013-03-03 04:39:00,37.2,26.5,30.18,East,96,3.0,5.0,65,0.00,,---,0.00,VWS V14.01,2013-03-03 10:39:00,
2013-03-03 04:40:00,37.2,26.2,30.18,East,96,2.0,5.0,64,0.00,,---,0.00,VWS V14.01,2013-03-03 10:40:00,
2013-03-03 04:41:00,37.2,26.9,30.18,NE,39,0.0,4.0,66,0.00,,---,0.00,VWS V14.01,2013-03-03 10:41:00,
2013-03-03 04:42:00,37.1,26.4,30.18,ESE,104,4.0,5.0,65,0.00,,---,0.00,VWS V14.01,2013-03-03 10:42:00,
2013-03-03 04:43:00,37.1,26.4,30.18,ESE,113,3.0,5.0,65,0.00,,---,0.00,VWS V14.01,2013-03-03 10:43:00,
2013-03-03 04:44:00,37.1,26.4,30.18,ESE,120,3.0,5.0,65,0.00,,---,0.00,VWS V14.01,2013-03-03 10:44:00,
2013-03-03 04:46:00,37.1,26.4,30.18,NE,39,0.0,3.0,65,0.00,,---,0.00,VWS V14.01,2013-03-03 10:46:00,
2013-03-03 04:47:00,37.1,26.4,30.17,SE,135,4.0,6.0,65,0.00,,---,0.00,VWS V14.01,2013-03-03 10:47:00,
2013-03-03 04:50:00,37.3,26.6,30.17,SE,140,0.0,6.0,65,0.00,,---,0.00,VWS V14.01,2013-03-03 10:50:00,
2013-03-03 04:51:00,37.2,26.9,30.18,NE,39,0.0,2.0,66,0.00,,---,0.00,VWS V14.01,2013-03-03 10:51:00,
2013-03-03 04:54:00,37.4,26.7,30.17,SSE,153,9.0,10.0,65,0.00,,---,0.00,VWS V14.01,2013-03-03 10:54:00,
2013-03-03 04:55:00,37.5,26.5,30.17,SSE,163,5.0,10.0,64,0.00,,---,0.00,VWS V14.01,2013-03-03 10:55:00,
2013-03-03 04:56:00,37.3,26.6,30.18,NE,39,0.0,3.0,65,0.00,,---,0.00,VWS V14.01,2013-03-03 10:56:00,
2013-03-03 04:58:00,37.7,26.6,30.18,South,170,5.0,10.0,64,0.00,,---,0.00,VWS V14.01,2013-03-03 10:58:00,
2013-03-03 04:59:00,37.7,26.6,30.18,South,171,4.0,11.0,64,0.00,,---,0.00,VWS V14.01,2013-03-03 10:59:00,
2013-03-03 05:00:00,37.9,26.8,30.18,South,173,7.0,10.0,64,0.00,,---,0.00,VWS V14.01,2013-03-03 11:00:00,
2013-03-03 05:01:00,37.3,26.6,30.18,NE,39,0.0,2.0,65,0.00,,---,0.00,VWS V14.01,2013-03-03 11:01:00,
2013-03-03 05:04:00,38.2,26.7,30.18,South,172,4.0,10.0,63,0.00,,---,0.00,VWS V14.01,2013-03-03 11:04:00,
2013-03-03 05:05:00,38.2,26.7,30.18,South,172,6.0,10.0,63,0.00,,---,0.00,VWS V14.01,2013-03-03 11:05:00,
2013-03-03 05:06:00,37.3,26.6,30.18,NE,42,1.0,4.0,65,0.00,,---,0.00,VWS V14.01,2013-03-03 11:06:00,
2013-03-03 05:07:00,38.3,26.4,30.18,South,172,4.0,9.0,62,0.00,,---,0.00,VWS V14.01,2013-03-03 11:07:00,
2013-03-03 05:08:00,38.4,26.9,30.18,South,173,8.0,9.0,63,0.00,,---,0.00,VWS V14.01,2013-03-03 11:08:00,
2013-03-03 05:09:00,38.4,26.5,30.18,South,173,7.0,9.0,62,0.00,,---,0.00,VWS V14.01,2013-03-03 11:09:00,
2013-03-03 05:10:00,38.5,26.6,30.18,South,173,7.0,9.0,62,0.00,,---,0.00,VWS V14.01,2013-03-03 11:10:00,
2013-03-03 05:11:00,37.3,26.6,30.19,NE,43,0.0,3.0,65,0.00,,---,0.00,VWS V14.01,2013-03-03 11:11:00,
2013-03-03 05:12:00,38.6,26.3,30.17,South,178,7.0,10.0,61,0.00,,---,0.00,VWS V14.01,2013-03-03 11:12:00,
2013-03-03 05:13:00,38.6,26.7,30.18,South,177,6.0,10.0,62,0.00,,---,0.00,VWS V14.01,2013-03-03 11:13:00,
2013-03-03 05:14:00,38.7,26.4,30.17,South,177,6.0,10.0,61,0.00,,---,0.00,VWS V14.01,2013-03-03 11:14:00,
2013-03-03 05:15:00,38.7,26.4,30.17,South,175,6.0,10.0,61,0.00,,---,0.00,VWS V14.01,2013-03-03 11:15:00,
2013-03-03 05:16:00,37.3,26.3,30.19,NE,43,0.0,3.0,64,0.00,,---,0.00,VWS V14.01,2013-03-03 11:16:00,
2013-03-03 05:17:00,38.8,26.5,30.18,South,175,5.0,9.0,61,0.00,,---,0.00,VWS V14.01,2013-03-03 11:17:00,
2013-03-03 05:18:00,38.8,26.5,30.18,South,174,4.0,8.0,61,0.00,,---,0.00,VWS V14.01,2013-03-03 11:18:00,
2013-03-03 05:19:00,38.8,26.5,30.18,South,174,4.0,8.0,61,0.00,,---,0.00,VWS V14.01,2013-03-03 11:19:00,
2013-03-03 05:20:00,38.8,26.5,30.18,South,174,5.0,8.0,61,0.00,,---,0.00,VWS V14.01,2013-03-03 11:20:00,
2013-03-03 05:21:00,37.2,26.2,30.19,NE,44,0.0,3.0,64,0.00,,---,0.00,VWS V14.01,2013-03-03 11:21:00,
2013-03-03 05:22:00,38.8,26.5,30.18,South,173,5.0,6.0,61,0.00,,---,0.00,VWS V14.01,2013-03-03 11:22:00,
2013-03-03 05:23:00,38.8,26.5,30.18,South,173,5.0,6.0,61,0.00,,---,0.00,VWS V14.01,2013-03-03 11:23:00,
2013-03-03 05:24:00,38.7,26.4,30.18,South,173,3.0,6.0,61,0.00,,---,0.00,VWS V14.01,2013-03-03 11:24:00,
2013-03-03 05:25:00,38.7,26.4,30.18,South,173,4.0,6.0,61,0.00,,---,0.00,VWS V14.01,2013-03-03 11:25:00,
2013-03-03 05:26:00,37.2,26.5,30.19,NE,53,3.0,3.0,65,0.00,,---,0.00,VWS V14.01,2013-03-03 11:26:00,
2013-03-03 05:27:00,38.7,26.4,30.18,South,173,1.0,6.0,61,0.00,,---,0.00,VWS V14.01,2013-03-03 11:27:00,
2013-03-03 05:28:00,38.6,26.3,30.18,South,173,2.0,5.0,61,0.00,,---,0.00,VWS V14.01,2013-03-03 11:28:00,
2013-03-03 05:29:00,38.6,26.3,30.18,South,173,4.0,5.0,61,0.00,,---,0.00,VWS V14.01,2013-03-03 11:29:00,
2013-03-03 05:30:00,38.6,26.7,30.18,South,173,4.0,5.0,62,0.00,,---,0.00,VWS V14.01,2013-03-03 11:30:00,
2013-03-03 05:31:00,37.2,26.5,30.18,East,87,1.0,5.0,65,0.00,,---,0.00,VWS V14.01,2013-03-03 11:31:00,
2013-03-03 05:32:00,38.5,26.2,30.18,South,173,5.0,5.0,61,0.00,,---,0.00,VWS V14.01,2013-03-03 11:32:00,
2013-03-03 05:33:00,38.4,26.1,30.18,South,173,4.0,5.0,61,0.00,,---,0.00,VWS V14.01,2013-03-03 11:33:00,
2013-03-03 05:34:00,38.4,26.1,30.18,South,173,2.0,5.0,61,0.00,,---,0.00,VWS V14.01,2013-03-03 11:34:00,
2013-03-03 05:35:00,38.4,26.1,30.18,South,173,3.0,5.0,61,0.00,,---,0.00,VWS V14.01,2013-03-03 11:35:00,
2013-03-03 05:36:00,37.2,26.2,30.18,East,100,0.0,5.0,64,0.00,,---,0.00,VWS V14.01,2013-03-03 11:36:00,
2013-03-03 05:37:00,38.4,26.5,30.18,South,176,4.0,6.0,62,0.00,,---,0.00,VWS V14.01,2013-03-03 11:37:00,
2013-03-03 05:38:00,38.3,26.0,30.18,South,176,2.0,6.0,61,0.00,,---,0.00,VWS V14.01,2013-03-03 11:38:00,
2013-03-03 05:39:00,38.3,26.4,30.18,South,176,3.0,6.0,62,0.00,,---,0.00,VWS V14.01,2013-03-03 11:39:00,
2013-03-03 05:40:00,38.3,26.4,30.18,South,175,5.0,6.0,62,0.00,,---,0.00,VWS V14.01,2013-03-03 11:40:00,
2013-03-03 05:41:00,37.1,26.4,30.17,SE,130,1.0,5.0,65,0.00,,---,0.00,VWS V14.01,2013-03-03 11:41:00,
2013-03-03 05:42:00,38.3,26.4,30.18,South,175,5.0,5.0,62,0.00,,---,0.00,VWS V14.01,2013-03-03 11:42:00,
2013-03-03 05:43:00,38.3,26.4,30.18,South,175,3.0,6.0,62,0.00,,---,0.00,VWS V14.01,2013-03-03 11:43:00,
2013-03-03 05:44:00,38.3,26.4,30.18,South,175,4.0,6.0,62,0.00,,---,0.00,VWS V14.01,2013-03-03 11:44:00,
2013-03-03 05:45:00,38.3,26.4,30.18,South,175,5.0,6.0,62,0.00,,---,0.00,VWS V14.01,2013-03-03 11:45:00,
2013-03-03 05:46:00,37.3,26.6,30.17,SE,142,5.0,6.0,65,0.00,,---,0.00,VWS V14.01,2013-03-03 11:46:00,
2013-03-03 05:47:00,38.3,26.4,30.18,South,175,4.0,6.0,62,0.00,,---,0.00,VWS V14.01,2013-03-03 11:47:00,
2013-03-03 05:48:00,38.3,26.4,30.18,South,175,3.0,6.0,62,0.00,,---,0.00,VWS V14.01,2013-03-03 11:48:00,
2013-03-03 05:49:00,38.3,26.4,30.18,South,175,4.0,6.0,62,0.00,,---,0.00,VWS V14.01,2013-03-03 11:49:00,
2013-03-03 05:50:00,38.2,26.3,30.18,South,174,4.0,6.0,62,0.00,,---,0.00,VWS V14.01,2013-03-03 11:50:00,
2013-03-03 05:51:00,37.5,26.5,30.18,SSE,167,6.0,10.0,64,0.00,,---,0.00,VWS V14.01,2013-03-03 11:51:00,
2013-03-03 05:52:00,38.2,26.3,30.18,South,174,4.0,6.0,62,0.00,,---,0.00,VWS V14.01,2013-03-03 11:52:00,
2013-03-03 05:53:00,38.2,26.3,30.17,South,174,4.0,6.0,62,0.00,,---,0.00,VWS V14.01,2013-03-03 11:53:00,
2013-03-03 05:54:00,38.1,26.2,30.17,South,174,3.0,6.0,62,0.00,,---,0.00,VWS V14.01,2013-03-03 11:54:00,
2013-03-03 05:55:00,38.1,26.2,30.18,South,173,4.0,6.0,62,0.00,,---,0.00,VWS V14.01,2013-03-03 11:55:00,
2013-03-03 05:56:00,38.0,26.5,30.18,South,173,6.0,10.0,63,0.00,,---,0.00,VWS V14.01,2013-03-03 11:56:00,
2013-03-03 05:57:00,38.1,26.2,30.17,South,172,2.0,6.0,62,0.00,,---,0.00,VWS V14.01,2013-03-03 11:57:00,
2013-03-03 05:58:00,38.1,26.2,30.17,South,172,4.0,6.0,62,0.00,,---,0.00,VWS V14.01,2013-03-03 11:58:00,
2013-03-03 05:59:00,38.0,26.1,30.17,South,171,4.0,6.0,62,0.00,,---,0.00,VWS V14.01,2013-03-03 11:59:00,
2013-03-03 06:00:00,38.0,26.1,30.17,South,171,5.0,6.0,62,0.00,,---,0.00,VWS V14.01,2013-03-03 12:00:00,
2013-03-03 06:01:00,38.3,26.8,30.18,South,173,4.0,9.0,63,0.00,,---,0.00,VWS V14.01,2013-03-03 12:01:00,
2013-03-03 06:02:00,38.0,26.5,30.17,South,171,3.0,5.0,63,0.00,,---,0.00,VWS V14.01,2013-03-03 12:02:00,
2013-03-03 06:03:00,38.0,26.5,30.17,South,171,4.0,5.0,63,0.00,,---,0.00,VWS V14.01,2013-03-03 12:03:00,
2013-03-03 06:04:00,38.0,26.5,30.17,South,171,2.0,5.0,63,0.00,,---,0.00,VWS V14.01,2013-03-03 12:04:00,
2013-03-03 06:05:00,38.0,26.5,30.17,South,171,3.0,5.0,63,0.00,,---,0.00,VWS V14.01,2013-03-03 12:05:00,
2013-03-03 06:06:00,38.5,26.6,30.17,South,179,6.0,10.0,62,0.00,,---,0.00,VWS V14.01,2013-03-03 12:06:00,
2013-03-03 06:07:00,37.9,26.4,30.17,South,171,3.0,5.0,63,0.00,,---,0.00,VWS V14.01,2013-03-03 12:07:00,
2013-03-03 06:08:00,37.9,26.1,30.17,South,171,4.0,5.0,62,0.00,,---,0.00,VWS V14.01,2013-03-03 12:08:00,
2013-03-03 06:09:00,37.9,26.4,30.17,South,171,4.0,5.0,63,0.00,,---,0.00,VWS V14.01,2013-03-03 12:09:00,
2013-03-03 06:10:00,37.9,26.1,30.17,South,171,4.0,5.0,62,0.00,,---,0.00,VWS V14.01,2013-03-03 12:10:00,
2013-03-03 06:11:00,38.8,26.5,30.18,South,175,2.0,9.0,61,0.00,,---,0.00,VWS V14.01,2013-03-03 12:11:00,
2013-03-03 06:12:00,37.9,26.4,30.17,South,170,4.0,5.0,63,0.00,,---,0.00,VWS V14.01,2013-03-03 12:12:00,
2013-03-03 06:13:00,37.9,26.4,30.17,South,170,4.0,5.0,63,0.00,,---,0.00,VWS V14.01,2013-03-03 12:13:00,
2013-03-03 06:14:00,37.9,26.4,30.16,South,169,4.0,5.0,63,0.00,,---,0.00,VWS V14.01,2013-03-03 12:14:00,
2013-03-03 06:15:00,37.9,26.4,30.17,South,169,1.0,5.0,63,0.00,,---,0.00,VWS V14.01,2013-03-03 12:15:00,
2013-03-03 06:16:00,38.8,26.5,30.18,South,173,3.0,7.0,61,0.00,,---,0.00,VWS V14.01,2013-03-03 12:16:00,
2013-03-03 06:17:00,37.9,26.4,30.17,SSE,168,4.0,6.0,63,0.00,,---,0.00,VWS V14.01,2013-03-03 12:17:00,
2013-03-03 06:18:00,37.9,26.8,30.17,SSE,168,3.0,6.0,64,0.00,,---,0.00,VWS V14.01,2013-03-03 12:18:00,
2013-03-03 06:19:00,38.0,26.5,30.17,SSE,168,2.0,6.0,63,0.00,,---,0.00,VWS V14.01,2013-03-03 12:19:00,
2013-03-03 06:20:00,38.0,26.9,30.16,SSE,167,4.0,6.0,64,0.00,,---,0.00,VWS V14.01,2013-03-03 12:20:00,
2013-03-03 06:21:00,38.0,26.9,30.17,SSE,167,3.0,6.0,64,0.00,,---,0.00,VWS V14.01,2013-03-03 12:21:00,
2013-03-03 06:22:00,38.7,26.4,30.18,South,173,3.0,6.0,61,0.00,,---,0.00,VWS V14.01,2013-03-03 12:22:00,
2013-03-03 06:23:00,38.1,27.0,30.17,SSE,161,2.0,6.0,64,0.00,,---,0.00,VWS V14.01,2013-03-03 12:23:00,
2013-03-03 06:24:00,38.1,27.0,30.17,SSE,161,1.0,6.0,64,0.00,,---,0.00,VWS V14.01,2013-03-03 12:24:00,
2013-03-03 06:26:00,38.3,26.8,30.17,SSE,159,4.0,6.0,63,0.00,,---,0.00,VWS V14.01,2013-03-03 12:26:00,
2013-03-03 06:27:00,38.5,26.6,30.18,South,173,5.0,5.0,62,0.00,,---,0.00,VWS V14.01,2013-03-03 12:27:00,
2013-03-03 06:28:00,38.4,26.9,30.17,SSE,157,3.0,6.0,63,0.00,,---,0.00,VWS V14.01,2013-03-03 12:28:00,
2013-03-03 06:29:00,38.5,27.0,30.17,SSE,159,0.0,6.0,63,0.00,,---,0.00,VWS V14.01,2013-03-03 12:29:00,
2013-03-03 06:30:00,38.6,27.1,30.17,SSE,159,4.0,6.0,63,0.00,,---,0.00,VWS V14.01,2013-03-03 12:30:00,
2013-03-03 06:31:00,38.7,27.2,30.17,SSE,161,1.0,6.0,63,0.00,,---,0.00,VWS V14.01,2013-03-03 12:31:00,
2013-03-03 06:32:00,38.4,26.5,30.18,South,173,4.0,5.0,62,0.00,,---,0.00,VWS V14.01,2013-03-03 12:32:00,
2013-03-03 06:33:00,38.9,27.8,30.17,SSE,161,0.0,6.0,64,0.00,,---,0.00,VWS V14.01,2013-03-03 12:33:00,
2013-03-03 06:34:00,39.0,27.9,30.17,SSE,161,0.0,6.0,64,0.00,,---,0.00,VWS V14.01,2013-03-03 12:34:00,
2013-03-03 06:35:00,39.1,27.6,30.17,SSE,161,3.0,6.0,63,0.00,,---,0.00,VWS V14.01,2013-03-03 12:35:00,
2013-03-03 06:36:00,39.2,27.7,30.17,SSE,161,0.0,5.0,63,0.00,,---,0.00,VWS V14.01,2013-03-03 12:36:00,
2013-03-03 06:37:00,38.3,26.4,30.18,South,175,4.0,6.0,62,0.00,,---,0.00,VWS V14.01,2013-03-03 12:37:00,
2013-03-03 06:40:00,39.5,28.0,30.16,SSE,161,0.0,5.0,63,0.00,,---,0.00,VWS V14.01,2013-03-03 12:40:00,
2013-03-03 06:41:00,39.6,28.1,30.16,SSE,161,0.0,5.0,63,0.00,,---,0.00,VWS V14.01,2013-03-03 12:41:00,
2013-03-03 06:42:00,38.3,26.4,30.18,South,175,2.0,6.0,62,0.00,,---,0.00,VWS V14.01,2013-03-03 12:42:00,
2013-03-03 06:43:00,39.8,27.9,30.16,SSE,163,4.0,6.0,62,0.00,,---,0.00,VWS V14.01,2013-03-03 12:43:00,
2013-03-03 06:44:00,39.9,28.0,30.16,SSE,164,0.0,6.0,62,0.00,,---,0.00,VWS V14.01,2013-03-03 12:44:00,
2013-03-03 06:45:00,40.0,28.0,30.16,SSE,164,4.0,6.0,62,0.00,,---,0.00,VWS V14.01,2013-03-03 12:45:00,
2013-03-03 06:46:00,40.1,28.1,30.16,SSE,165,1.0,6.0,62,0.00,,---,0.00,VWS V14.01,2013-03-03 12:46:00,
2013-03-03 06:47:00,38.2,26.3,30.18,South,174,4.0,6.0,62,0.00,,---,0.00,VWS V14.01,2013-03-03 12:47:00,
2013-03-03 06:48:00,40.3,28.3,30.16,SSE,161,5.0,7.0,62,0.00,,---,0.00,VWS V14.01,2013-03-03 12:48:00,
2013-03-03 06:49:00,40.4,28.4,30.16,SSE,154,3.0,7.0,62,0.00,,---,0.00,VWS V14.01,2013-03-03 12:49:00,
2013-03-03 06:50:00,40.6,28.6,30.16,SSE,159,0.0,9.0,62,0.00,,---,0.00,VWS V14.01,2013-03-03 12:50:00,
2013-03-03 06:51:00,40.6,28.6,30.16,SSE,159,3.0,9.0,62,0.00,,---,0.00,VWS V14.01,2013-03-03 12:51:00,
2013-03-03 06:52:00,38.1,26.2,30.17,South,172,2.0,6.0,62,0.00,,---,0.00,VWS V14.01,2013-03-03 12:52:00,
2013-03-03 06:53:00,40.9,28.9,30.16,SSE,163,2.0,9.0,62,0.00,,---,0.00,VWS V14.01,2013-03-03 12:53:00,
2013-03-03 06:54:00,41.0,29.0,30.16,SSE,163,1.0,9.0,62,0.00,,---,0.00,VWS V14.01,2013-03-03 12:54:00,
2013-03-03 06:55:00,41.2,28.8,30.16,SSE,163,3.0,7.0,61,0.00,,---,0.00,VWS V14.01,2013-03-03 12:55:00,
2013-03-03 06:56:00,41.3,29.3,30.15,South,175,6.0,7.0,62,0.00,,---,0.00,VWS V14.01,2013-03-03 12:56:00,
2013-03-03 06:57:00,38.0,26.5,30.17,South,171,4.0,5.0,63,0.00,,---,0.00,VWS V14.01,2013-03-03 12:57:00,
2013-03-03 06:58:00,41.6,29.6,30.15,South,175,0.0,6.0,62,0.00,,---,0.00,VWS V14.01,2013-03-03 12:58:00,
2013-03-03 06:59:00,41.8,29.8,30.16,South,175,4.0,6.0,62,0.00,,---,0.00,VWS V14.01,2013-03-03 12:59:00,
2013-03-03 07:00:00,42.0,29.9,30.15,South,169,6.0,7.0,62,0.00,,---,0.00,VWS V14.01,2013-03-03 13:00:00,
2013-03-03 07:01:00,42.2,29.3,30.16,South,169,3.0,7.0,60,0.00,,---,0.00,VWS V14.01,2013-03-03 13:01:00,
2013-03-03 07:02:00,37.9,26.1,30.17,South,171,4.0,5.0,62,0.00,,---,0.00,VWS V14.01,2013-03-03 13:02:00,
2013-03-03 07:03:00,42.5,29.6,30.15,SSE,167,9.0,9.0,60,0.00,,---,0.00,VWS V14.01,2013-03-03 13:03:00,
2013-03-03 07:04:00,42.7,29.8,30.15,SSE,159,5.0,9.0,60,0.00,,---,0.00,VWS V14.01,2013-03-03 13:04:00,
2013-03-03 07:05:00,42.8,29.5,30.15,SSE,164,2.0,11.0,59,0.00,,---,0.00,VWS V14.01,2013-03-03 13:05:00,
2013-03-03 07:06:00,43.0,29.2,30.15,SSE,156,7.0,11.0,58,0.00,,---,0.00,VWS V14.01,2013-03-03 13:06:00,
2013-03-03 07:07:00,37.9,26.1,30.17,South,171,0.0,5.0,62,0.00,,---,0.00,VWS V14.01,2013-03-03 13:07:00,
2013-03-03 07:08:00,43.3,29.1,30.15,SSE,161,5.0,11.0,57,0.00,,---,0.00,VWS V14.01,2013-03-03 13:08:00,
2013-03-03 07:09:00,43.4,29.2,30.15,SSE,153,2.0,11.0,57,0.00,,---,0.00,VWS V14.01,2013-03-03 13:09:00,
2013-03-03 07:10:00,43.6,29.0,30.15,South,170,6.0,10.0,56,0.00,,---,0.00,VWS V14.01,2013-03-03 13:10:00,
2013-03-03 07:11:00,43.8,29.1,30.15,SSE,168,12.0,12.0,56,0.00,,---,0.00,VWS V14.01,2013-03-03 13:11:00,
2013-03-03 07:12:00,37.9,26.5,30.17,SSE,168,5.0,6.0,63,0.00,,---,0.00,VWS V14.01,2013-03-03 13:12:00,
2013-03-03 07:13:00,44.1,29.0,30.16,South,181,9.0,13.0,55,0.00,,---,0.00,VWS V14.01,2013-03-03 13:13:00,
2013-03-03 07:14:00,44.2,29.1,30.15,SSE,155,3.0,13.0,55,0.00,,---,0.00,VWS V14.01,2013-03-03 13:14:00,
2013-03-03 07:15:00,44.3,29.2,30.15,South,170,11.0,13.0,55,0.00,,---,0.00,VWS V14.01,2013-03-03 13:15:00,
2013-03-03 07:16:00,44.5,28.9,30.16,South,172,6.0,13.0,54,0.00,,---,0.00,VWS V14.01,2013-03-03 13:16:00,
2013-03-03 07:17:00,38.0,26.9,30.17,SSE,167,0.0,6.0,64,0.00,,---,0.00,VWS V14.01,2013-03-03 13:17:00,
2013-03-03 07:18:00,44.8,29.2,30.15,SSE,164,6.0,13.0,54,0.00,,---,0.00,VWS V14.01,2013-03-03 13:18:00,
2013-03-03 07:19:00,44.9,29.3,30.16,SSE,165,10.0,13.0,54,0.00,,---,0.00,VWS V14.01,2013-03-03 13:19:00,
2013-03-03 07:20:00,45.1,29.0,30.15,SSE,165,4.0,14.0,53,0.00,,---,0.00,VWS V14.01,2013-03-03 13:20:00,
2013-03-03 07:21:00,45.2,29.1,30.16,South,174,13.0,14.0,53,0.00,,---,0.00,VWS V14.01,2013-03-03 13:21:00,
2013-03-03 07:22:00,38.3,26.8,30.17,SSE,159,4.0,6.0,63,0.00,,---,0.00,VWS V14.01,2013-03-03 13:22:00,
2013-03-03 07:23:00,45.5,28.9,30.16,SSE,168,8.0,14.0,52,0.00,,---,0.00,VWS V14.01,2013-03-03 13:23:00,
2013-03-03 07:24:00,45.6,29.0,30.16,SSE,157,5.0,14.0,52,0.00,,---,0.00,VWS V14.01,2013-03-03 13:24:00,
2013-03-03 07:25:00,45.7,29.1,30.16,South,172,11.0,13.0,52,0.00,,---,0.00,VWS V14.01,2013-03-03 13:25:00,
2013-03-03 07:26:00,45.9,29.3,30.16,South,182,4.0,13.0,52,0.00,,---,0.00,VWS V14.01,2013-03-03 13:26:00,
2013-03-03 07:27:00,38.8,27.3,30.17,SSE,161,1.0,6.0,63,0.00,,---,0.00,VWS V14.01,2013-03-03 13:27:00,
2013-03-03 07:28:00,46.2,29.1,30.15,South,170,6.0,12.0,51,0.00,,---,0.00,VWS V14.01,2013-03-03 13:28:00,
2013-03-03 07:29:00,46.3,28.7,30.16,South,175,13.0,13.0,50,0.00,,---,0.00,VWS V14.01,2013-03-03 13:29:00,
2013-03-03 07:30:00,46.4,28.8,30.16,SSE,149,6.0,15.0,50,0.00,,---,0.00,VWS V14.01,2013-03-03 13:30:00,
2013-03-03 07:31:00,46.5,28.9,30.15,SSE,161,4.0,15.0,50,0.00,,---,0.00,VWS V14.01,2013-03-03 13:31:00,
2013-03-03 07:32:00,39.2,27.7,30.17,SSE,161,1.0,5.0,63,0.00,,---,0.00,VWS V14.01,2013-03-03 13:32:00,
2013-03-03 07:33:00,46.7,29.1,30.15,SSE,160,5.0,15.0,50,0.00,,---,0.00,VWS V14.01,2013-03-03 13:33:00,
2013-03-03 07:34:00,46.9,29.2,30.15,SSE,157,6.0,15.0,50,0.00,,---,0.00,VWS V14.01,2013-03-03 13:34:00,
2013-03-03 07:35:00,47.0,28.9,30.15,South,169,9.0,15.0,49,0.00,,---,0.00,VWS V14.01,2013-03-03 13:35:00,
2013-03-03 07:36:00,47.2,29.0,30.15,SSE,159,6.0,14.0,49,0.00,,---,0.00,VWS V14.01,2013-03-03 13:36:00,
2013-03-03 07:37:00,39.6,28.1,30.16,SSE,161,1.0,5.0,63,0.00,,---,0.00,VWS V14.01,2013-03-03 13:37:00,
2013-03-03 07:38:00,47.5,28.8,30.15,SSE,165,7.0,13.0,48,0.00,,---,0.00,VWS V14.01,2013-03-03 13:38:00,
2013-03-03 07:39:00,47.7,29.0,30.15,SSE,157,5.0,13.0,48,0.00,,---,0.00,VWS V14.01,2013-03-03 13:39:00,
2013-03-03 07:40:00,47.8,29.1,30.15,SSE,158,9.0,15.0,48,0.00,,---,0.00,VWS V14.01,2013-03-03 13:40:00,
2013-03-03 07:41:00,47.9,28.7,30.15,SSE,148,3.0,15.0,47,0.00,,---,0.00,VWS V14.01,2013-03-03 13:41:00,
2013-03-03 07:42:00,40.1,28.1,30.16,SSE,165,5.0,6.0,62,0.00,,---,0.00,VWS V14.01,2013-03-03 13:42:00,
2013-03-03 07:43:00,48.2,28.9,30.15,SE,146,6.0,15.0,47,0.00,,---,0.00,VWS V14.01,2013-03-03 13:43:00,
2013-03-03 07:44:00,48.3,28.5,30.15,SSE,164,5.0,15.0,46,0.00,,---,0.00,VWS V14.01,2013-03-03 13:44:00,
2013-03-03 07:45:00,48.4,28.6,30.15,SSE,154,5.0,15.0,46,0.00,,---,0.00,VWS V14.01,2013-03-03 13:45:00,
2013-03-03 07:46:00,48.5,28.7,30.15,South,174,11.0,12.0,46,0.00,,---,0.00,VWS V14.01,2013-03-03 13:46:00,
2013-03-03 07:47:00,40.7,28.7,30.16,SSE,157,2.0,9.0,62,0.00,,---,0.00,VWS V14.01,2013-03-03 13:47:00,
2013-03-03 07:48:00,48.8,28.4,30.15,South,176,12.0,15.0,45,0.00,,---,0.00,VWS V14.01,2013-03-03 13:48:00,
2013-03-03 07:49:00,48.9,28.5,30.15,SSE,164,10.0,15.0,45,0.00,,---,0.00,VWS V14.01,2013-03-03 13:49:00,
2013-03-03 07:50:00,49.1,28.7,30.16,South,175,12.0,15.0,45,0.00,,---,0.00,VWS V14.01,2013-03-03 13:50:00,
2013-03-03 07:51:00,49.2,28.8,30.15,South,183,9.0,15.0,45,0.00,,---,0.00,VWS V14.01,2013-03-03 13:51:00,
2013-03-03 07:52:00,41.4,29.4,30.15,South,175,5.0,7.0,62,0.00,,---,0.00,VWS V14.01,2013-03-03 13:52:00,
2013-03-03 07:53:00,49.5,28.5,30.15,South,187,10.0,14.0,44,0.00,,---,0.00,VWS V14.01,2013-03-03 13:53:00,
2013-03-03 07:54:00,49.6,28.6,30.15,South,173,12.0,19.0,44,0.00,,---,0.00,VWS V14.01,2013-03-03 13:54:00,
2013-03-03 07:55:00,49.8,28.8,30.15,South,180,14.0,19.0,44,0.00,,---,0.00,VWS V14.01,2013-03-03 13:55:00,
2013-03-03 07:56:00,49.9,28.3,30.15,South,175,13.0,19.0,43,0.00,,---,0.00,VWS V14.01,2013-03-03 13:56:00,
2013-03-03 07:57:00,42.2,29.3,30.16,SSE,166,1.0,7.0,60,0.00,,---,0.00,VWS V14.01,2013-03-03 13:57:00,
2013-03-03 07:58:00,50.3,28.7,30.15,SSE,164,11.0,19.0,43,0.00,,---,0.00,VWS V14.01,2013-03-03 13:58:00,
2013-03-03 07:59:00,50.4,28.8,30.15,South,182,14.0,19.0,43,0.00,,---,0.00,VWS V14.01,2013-03-03 13:59:00,
2013-03-03 08:00:00,50.5,28.9,30.15,South,179,12.0,17.0,43,0.00,,---,0.00,VWS V14.01,2013-03-03 14:00:00,
2013-03-03 08:01:00,50.7,29.0,30.15,South,171,12.0,17.0,43,0.00,,---,0.00,VWS V14.01,2013-03-03 14:01:00,
2013-03-03 08:02:00,43.1,29.3,30.15,SSE,163,3.0,11.0,58,0.00,,---,0.00,VWS V14.01,2013-03-03 14:02:00,
2013-03-03 08:03:00,51.0,28.7,30.15,South,172,15.0,17.0,42,0.00,,---,0.00,VWS V14.01,2013-03-03 14:03:00,
2013-03-03 08:04:00,51.1,28.2,30.15,South,171,13.0,17.0,41,0.00,,---,0.00,VWS V14.01,2013-03-03 14:04:00,
2013-03-03 08:05:00,51.2,28.9,30.15,SSE,168,11.0,17.0,42,0.00,,---,0.00,VWS V14.01,2013-03-03 14:05:00,
2013-03-03 08:06:00,51.4,28.5,30.15,South,186,12.0,17.0,41,0.00,,---,0.00,VWS V14.01,2013-03-03 14:06:00,
2013-03-03 08:07:00,43.8,29.1,30.15,South,178,9.0,12.0,56,0.00,,---,0.00,VWS V14.01,2013-03-03 14:07:00,
2013-03-03 08:08:00,51.6,28.7,30.15,SSE,167,9.0,17.0,41,0.00,,---,0.00,VWS V14.01,2013-03-03 14:08:00,
2013-03-03 08:09:00,51.8,28.9,30.15,South,171,12.0,17.0,41,0.00,,---,0.00,VWS V14.01,2013-03-03 14:09:00,
2013-03-03 08:10:00,51.9,28.4,30.15,SSE,167,12.0,17.0,40,0.00,,---,0.00,VWS V14.01,2013-03-03 14:10:00,
2013-03-03 08:11:00,52.0,28.5,30.15,SE,140,5.0,17.0,40,0.00,,---,0.00,VWS V14.01,2013-03-03 14:11:00,
2013-03-03 08:12:00,44.6,29.0,30.15,South,169,5.0,13.0,54,0.00,,---,0.00,VWS V14.01,2013-03-03 14:12:00,
2013-03-03 08:13:00,52.2,28.0,30.15,South,175,16.0,16.0,39,0.00,,---,0.00,VWS V14.01,2013-03-03 14:13:00,
2013-03-03 08:14:00,52.3,28.1,30.15,South,170,9.0,16.0,39,0.00,,---,0.00,VWS V14.01,2013-03-03 14:14:00,
2013-03-03 08:15:00,52.4,28.2,30.15,South,177,10.0,16.0,39,0.00,,---,0.00,VWS V14.01,2013-03-03 14:15:00,
2013-03-03 08:16:00,52.6,29.0,30.15,South,178,14.0,18.0,40,0.00,,---,0.00,VWS V14.01,2013-03-03 14:16:00,
2013-03-03 08:17:00,45.3,29.2,30.16,South,180,9.0,14.0,53,0.00,,---,0.00,VWS V14.01,2013-03-03 14:17:00,
2013-03-03 08:18:00,52.7,27.8,30.15,SSE,165,15.0,19.0,38,0.00,,---,0.00,VWS V14.01,2013-03-03 14:18:00,
2013-03-03 08:19:00,52.8,28.5,30.15,SE,136,4.0,19.0,39,0.00,,---,0.00,VWS V14.01,2013-03-03 14:19:00,
2013-03-03 08:20:00,52.9,28.6,30.15,SSE,161,7.0,19.0,39,0.00,,---,0.00,VWS V14.01,2013-03-03 14:20:00,
2013-03-03 08:21:00,53.0,28.1,30.15,South,188,11.0,19.0,38,0.00,,---,0.00,VWS V14.01,2013-03-03 14:21:00,
2013-03-03 08:22:00,46.0,29.4,30.16,SSE,147,6.0,12.0,52,0.00,,---,0.00,VWS V14.01,2013-03-03 14:22:00,
2013-03-03 08:23:00,53.2,28.9,30.14,SSW,192,15.0,16.0,39,0.00,,---,0.00,VWS V14.01,2013-03-03 14:23:00,
2013-03-03 08:24:00,53.4,29.1,30.14,South,175,15.0,20.0,39,0.00,,---,0.00,VWS V14.01,2013-03-03 14:24:00,
2013-03-03 08:25:00,53.5,28.5,30.14,South,173,11.0,20.0,38,0.00,,---,0.00,VWS V14.01,2013-03-03 14:25:00,
2013-03-03 08:26:00,53.6,28.6,30.15,South,186,12.0,20.0,38,0.00,,---,0.00,VWS V14.01,2013-03-03 14:26:00,
2013-03-03 08:27:00,46.6,29.0,30.15,South,171,14.0,15.0,50,0.00,,---,0.00,VWS V14.01,2013-03-03 14:27:00,
2013-03-03 08:29:00,54.0,29.0,30.14,SSE,153,3.0,18.0,38,0.00,,---,0.00,VWS V14.01,2013-03-03 14:29:00,
2013-03-03 08:32:00,47.3,29.1,30.15,SSE,163,4.0,14.0,49,0.00,,---,0.00,VWS V14.01,2013-03-03 14:32:00,
2013-03-03 08:33:00,54.4,28.7,30.14,SSE,153,12.0,18.0,37,0.00,,---,0.00,VWS V14.01,2013-03-03 14:33:00,
2013-03-03 08:34:00,54.6,28.9,30.14,South,184,13.0,17.0,37,0.00,,---,0.00,VWS V14.01,2013-03-03 14:34:00,
2013-03-03 08:35:00,54.7,29.0,30.14,South,170,11.0,17.0,37,0.00,,---,0.00,VWS V14.01,2013-03-03 14:35:00,
2013-03-03 08:36:00,54.8,29.0,30.14,SSE,162,18.0,22.0,37,0.00,,---,0.00,VWS V14.01,2013-03-03 14:36:00,
2013-03-03 08:37:00,48.0,28.8,30.15,SSE,149,3.0,15.0,47,0.00,,---,0.00,VWS V14.01,2013-03-03 14:37:00,
2013-03-03 08:38:00,55.0,28.6,30.14,SSE,161,13.0,22.0,36,0.00,,---,0.00,VWS V14.01,2013-03-03 14:38:00,
2013-03-03 08:39:00,55.1,29.3,30.14,South,170,12.0,22.0,37,0.00,,---,0.00,VWS V14.01,2013-03-03 14:39:00,
2013-03-03 08:40:00,55.1,28.6,30.14,South,184,12.0,22.0,36,0.00,,---,0.00,VWS V14.01,2013-03-03 14:40:00,
2013-03-03 08:41:00,55.2,29.4,30.14,South,186,14.0,19.0,37,0.00,,---,0.00,VWS V14.01,2013-03-03 14:41:00,
2013-03-03 08:42:00,48.6,28.8,30.15,South,169,13.0,14.0,46,0.00,,---,0.00,VWS V14.01,2013-03-03 14:42:00,
2013-03-03 08:43:00,55.4,28.9,30.14,SSE,164,10.0,21.0,36,0.00,,---,0.00,VWS V14.01,2013-03-03 14:43:00,
2013-03-03 08:44:00,55.5,29.7,30.14,South,189,14.0,21.0,37,0.00,,---,0.00,VWS V14.01,2013-03-03 14:44:00,
2013-03-03 08:45:00,55.7,29.9,30.14,South,183,17.0,21.0,37,0.00,,---,0.00,VWS V14.01,2013-03-03 14:45:00,
2013-03-03 08:46:00,55.8,28.6,30.13,South,171,14.0,21.0,35,0.00,,---,0.00,VWS V14.01,2013-03-03 14:46:00,
2013-03-03 08:47:00,49.3,28.9,30.15,SSE,159,6.0,15.0,45,0.00,,---,0.00,VWS V14.01,2013-03-03 14:47:00,
2013-03-03 08:48:00,55.9,29.4,30.13,South,175,19.0,19.0,36,0.00,,---,0.00,VWS V14.01,2013-03-03 14:48:00,
2013-03-03 08:49:00,56.0,28.8,30.13,South,171,16.0,21.0,35,0.00,,---,0.00,VWS V14.01,2013-03-03 14:49:00,
2013-03-03 08:50:00,56.0,28.8,30.13,South,169,9.0,21.0,35,0.00,,---,0.00,VWS V14.01,2013-03-03 14:50:00,
2013-03-03 08:51:00,56.1,29.5,30.13,South,170,11.0,25.0,36,0.00,,---,0.00,VWS V14.01,2013-03-03 14:51:00,
2013-03-03 08:52:00,50.1,29.0,30.15,SSE,167,9.0,19.0,44,0.00,,---,0.00,VWS V14.01,2013-03-03 14:52:00,
2013-03-03 08:53:00,56.1,28.8,30.13,South,171,14.0,23.0,35,0.00,,---,0.00,VWS V14.01,2013-03-03 14:53:00,
2013-03-03 08:54:00,56.1,28.8,30.13,SSE,161,7.0,23.0,35,0.00,,---,0.00,VWS V14.01,2013-03-03 14:54:00,
2013-03-03 08:55:00,56.1,28.8,30.13,South,188,14.0,23.0,35,0.00,,---,0.00,VWS V14.01,2013-03-03 14:55:00,
2013-03-03 08:56:00,56.2,28.9,30.13,South,180,12.0,23.0,35,0.00,,---,0.00,VWS V14.01,2013-03-03 14:56:00,
2013-03-03 08:57:00,50.8,28.5,30.15,South,170,15.0,17.0,42,0.00,,---,0.00,VWS V14.01,2013-03-03 14:57:00,
2013-03-03 08:58:00,56.3,29.7,30.13,South,174,16.0,18.0,36,0.00,,---,0.00,VWS V14.01,2013-03-03 14:58:00,
2013-03-03 08:59:00,56.3,29.0,30.13,South,186,11.0,18.0,35,0.00,,---,0.00,VWS V14.01,2013-03-03 14:59:00,
2013-03-03 09:00:00,56.4,29.1,30.13,South,173,17.0,18.0,35,0.00,,---,0.00,VWS V14.01,2013-03-03 15:00:00,
2013-03-03 09:01:00,56.5,29.2,30.13,South,186,13.0,20.0,35,0.00,,---,0.00,VWS V14.01,2013-03-03 15:01:00,
2013-03-03 09:02:00,51.5,28.6,30.14,South,171,13.0,17.0,41,0.00,,---,0.00,VWS V14.01,2013-03-03 15:02:00,
2013-03-03 09:03:00,56.6,29.3,30.13,SE,132,6.0,20.0,35,0.00,,---,0.00,VWS V14.01,2013-03-03 15:03:00,
2013-03-03 09:04:00,56.7,29.4,30.13,South,182,6.0,20.0,35,0.00,,---,0.00,VWS V14.01,2013-03-03 15:04:00,
2013-03-03 09:05:00,56.8,30.1,30.13,South,175,15.0,20.0,36,0.00,,---,0.00,VWS V14.01,2013-03-03 15:05:00,
2013-03-03 09:06:00,57.0,29.6,30.13,South,180,22.0,22.0,35,0.00,,---,0.00,VWS V14.01,2013-03-03 15:06:00,
2013-03-03 09:07:00,52.1,27.9,30.15,SE,142,9.0,16.0,39,0.00,,---,0.00,VWS V14.01,2013-03-03 15:07:00,
2013-03-03 09:08:00,57.2,29.8,30.13,South,171,12.0,22.0,35,0.00,,---,0.00,VWS V14.01,2013-03-03 15:08:00,
2013-03-03 09:09:00,57.3,30.6,30.13,South,189,14.0,22.0,36,0.00,,---,0.00,VWS V14.01,2013-03-03 15:09:00,
2013-03-03 09:10:00,57.4,30.7,30.13,South,186,7.0,22.0,36,0.00,,---,0.00,VWS V14.01,2013-03-03 15:10:00,
2013-03-03 09:11:00,57.5,30.1,30.13,SSW,197,17.0,22.0,35,0.00,,---,0.00,VWS V14.01,2013-03-03 15:11:00,
2013-03-03 09:12:00,52.7,28.5,30.15,South,180,17.0,19.0,39,0.00,,---,0.00,VWS V14.01,2013-03-03 15:12:00,
2013-03-03 09:13:00,57.7,30.3,30.13,South,184,18.0,20.0,35,0.00,,---,0.00,VWS V14.01,2013-03-03 15:13:00,
2013-03-03 09:14:00,57.7,29.5,30.13,South,173,16.0,20.0,34,0.00,,---,0.00,VWS V14.01,2013-03-03 15:14:00,
2013-03-03 09:15:00,57.8,30.4,30.13,SSW,195,12.0,20.0,35,0.00,,---,0.00,VWS V14.01,2013-03-03 15:15:00,
2013-03-03 09:16:00,57.8,30.4,30.13,South,185,10.0,19.0,35,0.00,,---,0.00,VWS V14.01,2013-03-03 15:16:00,
2013-03-03 09:17:00,53.1,28.2,30.14,SSE,163,9.0,17.0,38,0.00,,---,0.00,VWS V14.01,2013-03-03 15:17:00,
2013-03-03 09:18:00,58.0,30.5,30.13,South,174,15.0,18.0,35,0.00,,---,0.00,VWS V14.01,2013-03-03 15:18:00,
2013-03-03 09:19:00,58.0,29.8,30.13,SSE,147,7.0,18.0,34,0.00,,---,0.00,VWS V14.01,2013-03-03 15:19:00,
2013-03-03 09:20:00,58.1,30.6,30.12,South,186,16.0,19.0,35,0.00,,---,0.00,VWS V14.01,2013-03-03 15:20:00,
2013-03-03 09:21:00,58.2,30.0,30.12,SSW,193,12.0,19.0,34,0.00,,---,0.00,VWS V14.01,2013-03-03 15:21:00,
2013-03-03 09:22:00,53.7,29.4,30.14,SSE,160,9.0,20.0,39,0.00,,---,0.00,VWS V14.01,2013-03-03 15:22:00,
2013-03-03 09:23:00,58.4,30.9,30.12,South,177,15.0,19.0,35,0.00,,---,0.00,VWS V14.01,2013-03-03 15:23:00,
2013-03-03 09:24:00,58.5,31.0,30.12,SSE,147,4.0,19.0,35,0.00,,---,0.00,VWS V14.01,2013-03-03 15:24:00,
2013-03-03 09:25:00,58.6,31.1,30.12,South,174,12.0,22.0,35,0.00,,---,0.00,VWS V14.01,2013-03-03 15:25:00,
2013-03-03 09:26:00,58.7,30.4,30.12,South,170,14.0,22.0,34,0.00,,---,0.00,VWS V14.01,2013-03-03 15:26:00,
2013-03-03 09:27:00,54.3,29.2,30.14,SSE,156,12.0,18.0,38,0.00,,---,0.00,VWS V14.01,2013-03-03 15:27:00,
2013-03-03 09:28:00,58.9,31.3,30.12,South,171,14.0,22.0,35,0.00,,---,0.00,VWS V14.01,2013-03-03 15:28:00,
2013-03-03 09:29:00,59.1,31.5,30.12,South,176,16.0,22.0,35,0.00,,---,0.00,VWS V14.01,2013-03-03 15:29:00,
2013-03-03 09:30:00,59.3,31.0,30.12,South,180,14.0,19.0,34,0.00,,---,0.00,VWS V14.01,2013-03-03 15:30:00,
2013-03-03 09:31:00,59.4,31.0,30.12,South,186,12.0,19.0,34,0.00,,---,0.00,VWS V14.01,2013-03-03 15:31:00,
2013-03-03 09:32:00,54.9,28.5,30.14,South,169,8.0,22.0,36,0.00,,---,0.00,VWS V14.01,2013-03-03 15:32:00,
2013-03-03 09:33:00,59.6,31.2,30.11,SSW,192,12.0,19.0,34,0.00,,---,0.00,VWS V14.01,2013-03-03 15:33:00,
2013-03-03 09:34:00,59.7,31.3,30.11,South,182,17.0,18.0,34,0.00,,---,0.00,VWS V14.01,2013-03-03 15:34:00,
2013-03-03 09:35:00,59.8,31.4,30.11,South,171,11.0,18.0,34,0.00,,---,0.00,VWS V14.01,2013-03-03 15:35:00,
2013-03-03 09:36:00,59.8,30.7,30.11,South,178,7.0,18.0,33,0.00,,---,0.00,VWS V14.01,2013-03-03 15:36:00,
2013-03-03 09:37:00,55.3,28.8,30.14,South,170,17.0,21.0,36,0.00,,---,0.00,VWS V14.01,2013-03-03 15:37:00,
2013-03-03 09:38:00,59.9,31.5,30.11,South,190,14.0,18.0,34,0.00,,---,0.00,VWS V14.01,2013-03-03 15:38:00,
2013-03-03 09:39:00,60.0,31.6,30.11,SSE,153,11.0,18.0,34,0.00,,---,0.00,VWS V14.01,2013-03-03 15:39:00,
2013-03-03 09:40:00,60.0,30.8,30.11,SSE,157,12.0,18.0,33,0.00,,---,0.00,VWS V14.01,2013-03-03 15:40:00,
2013-03-03 09:41:00,60.1,30.9,30.11,SSW,192,14.0,21.0,33,0.00,,---,0.00,VWS V14.01,2013-03-03 15:41:00,
2013-03-03 09:42:00,55.9,29.4,30.13,South,176,14.0,19.0,36,0.00,,---,0.00,VWS V14.01,2013-03-03 15:42:00,
2013-03-03 09:43:00,60.2,31.8,30.11,South,173,18.0,21.0,34,0.00,,---,0.00,VWS V14.01,2013-03-03 15:43:00,
2013-03-03 09:44:00,60.2,31.0,30.11,South,177,15.0,21.0,33,0.00,,---,0.00,VWS V14.01,2013-03-03 15:44:00,
2013-03-03 09:45:00,60.3,31.1,30.11,South,173,13.0,21.0,33,0.00,,---,0.00,VWS V14.01,2013-03-03 15:45:00,
2013-03-03 09:46:00,60.4,31.9,30.11,South,175,12.0,18.0,34,0.00,,---,0.00,VWS V14.01,2013-03-03 15:46:00,
2013-03-03 09:47:00,56.1,28.8,30.13,South,170,19.0,23.0,35,0.00,,---,0.00,VWS V14.01,2013-03-03 15:47:00,
2013-03-03 09:48:00,60.6,31.4,30.11,South,175,11.0,20.0,33,0.00,,---,0.00,VWS V14.01,2013-03-03 15:48:00,
2013-03-03 09:49:00,60.7,31.5,30.11,SE,137,10.0,20.0,33,0.00,,---,0.00,VWS V14.01,2013-03-03 15:49:00,
2013-03-03 09:50:00,60.7,31.5,30.10,SE,140,7.0,20.0,33,0.00,,---,0.00,VWS V14.01,2013-03-03 15:50:00,
2013-03-03 09:51:00,60.8,31.5,30.11,South,178,14.0,20.0,33,0.00,,---,0.00,VWS V14.01,2013-03-03 15:51:00,
2013-03-03 09:52:00,56.2,29.6,30.13,South,171,11.0,22.0,36,0.00,,---,0.00,VWS V14.01,2013-03-03 15:52:00,
2013-03-03 09:53:00,60.8,31.5,30.10,SSE,154,7.0,16.0,33,0.00,,---,0.00,VWS V14.01,2013-03-03 15:53:00,
2013-03-03 09:54:00,60.9,31.6,30.10,South,170,10.0,16.0,33,0.00,,---,0.00,VWS V14.01,2013-03-03 15:54:00,
2013-03-03 09:55:00,61.0,32.5,30.10,South,178,9.0,17.0,34,0.00,,---,0.00,VWS V14.01,2013-03-03 15:55:00,
2013-03-03 09:56:00,61.1,31.8,30.10,South,181,10.0,17.0,33,0.00,,---,0.00,VWS V14.01,2013-03-03 15:56:00,
2013-03-03 09:57:00,56.6,29.3,30.13,South,175,17.0,20.0,35,0.00,,---,0.00,VWS V14.01,2013-03-03 15:57:00,
2013-03-03 09:58:00,61.2,31.9,30.09,SSE,156,12.0,17.0,33,0.00,,---,0.00,VWS V14.01,2013-03-03 15:58:00,
2013-03-03 09:59:00,61.2,31.9,30.09,South,178,15.0,21.0,33,0.00,,---,0.00,VWS V14.01,2013-03-03 15:59:00,
2013-03-03 10:00:00,61.3,32.0,30.09,South,182,16.0,21.0,33,0.00,,---,0.00,VWS V14.01,2013-03-03 16:00:00,
2013-03-03 10:01:00,61.3,32.0,30.09,South,169,11.0,21.0,33,0.00,,---,0.00,VWS V14.01,2013-03-03 16:01:00,
2013-03-03 10:02:00,57.1,29.7,30.13,SSE,167,14.0,22.0,35,0.00,,---,0.00,VWS V14.01,2013-03-03 16:02:00,
2013-03-03 10:03:00,61.4,32.1,30.09,SSE,150,8.0,21.0,33,0.00,,---,0.00,VWS V14.01,2013-03-03 16:03:00,
2013-03-03 10:04:00,61.4,32.1,30.09,South,180,18.0,19.0,33,0.00,,---,0.00,VWS V14.01,2013-03-03 16:04:00,
2013-03-03 10:05:00,61.5,32.2,30.09,South,180,13.0,19.0,33,0.00,,---,0.00,VWS V14.01,2013-03-03 16:05:00,
2013-03-03 10:06:00,61.5,32.2,30.09,SSE,165,10.0,18.0,33,0.00,,---,0.00,VWS V14.01,2013-03-03 16:06:00,
2013-03-03 10:07:00,57.6,30.2,30.13,South,175,17.0,20.0,35,0.00,,---,0.00,VWS V14.01,2013-03-03 16:07:00,
2013-03-03 10:08:00,61.6,32.2,30.09,South,171,16.0,19.0,33,0.00,,---,0.00,VWS V14.01,2013-03-03 16:08:00,
2013-03-03 10:09:00,61.7,32.3,30.08,SSE,150,7.0,19.0,33,0.00,,---,0.00,VWS V14.01,2013-03-03 16:09:00,
2013-03-03 10:10:00,61.7,31.6,30.08,South,170,14.0,19.0,32,0.00,,---,0.00,VWS V14.01,2013-03-03 16:10:00,
2013-03-03 10:11:00,61.7,32.3,30.08,SSE,162,15.0,19.0,33,0.00,,---,0.00,VWS V14.01,2013-03-03 16:11:00,
2013-03-03 10:12:00,57.9,30.4,30.13,SSE,164,11.0,19.0,35,0.00,,---,0.00,VWS V14.01,2013-03-03 16:12:00,
2013-03-03 10:13:00,61.7,32.3,30.08,SSE,167,18.0,22.0,33,0.00,,---,0.00,VWS V14.01,2013-03-03 16:13:00,
2013-03-03 10:14:00,61.7,32.3,30.08,South,180,16.0,22.0,33,0.00,,---,0.00,VWS V14.01,2013-03-03 16:14:00,
2013-03-03 10:15:00,61.7,32.3,30.08,South,173,11.0,22.0,33,0.00,,---,0.00,VWS V14.01,2013-03-03 16:15:00,
2013-03-03 10:16:00,61.8,32.4,30.08,South,175,8.0,22.0,33,0.00,,---,0.00,VWS V14.01,2013-03-03 16:16:00,
2013-03-03 10:17:00,58.3,30.8,30.12,SSE,155,12.0,19.0,35,0.00,,---,0.00,VWS V14.01,2013-03-03 16:17:00,
2013-03-03 10:18:00,62.0,31.8,30.08,SSE,164,15.0,19.0,32,0.00,,---,0.00,VWS V14.01,2013-03-03 16:18:00,
2013-03-03 10:19:00,62.0,32.6,30.08,South,171,9.0,18.0,33,0.00,,---,0.00,VWS V14.01,2013-03-03 16:19:00,
2013-03-03 10:20:00,62.1,32.7,30.08,South,173,6.0,18.0,33,0.00,,---,0.00,VWS V14.01,2013-03-03 16:20:00,
2013-03-03 10:21:00,62.1,32.7,30.08,South,183,12.0,18.0,33,0.00,,---,0.00,VWS V14.01,2013-03-03 16:21:00,
2013-03-03 10:22:00,58.7,30.4,30.12,SSW,192,7.0,22.0,34,0.00,,---,0.00,VWS V14.01,2013-03-03 16:22:00,
2013-03-03 10:23:00,62.3,32.8,30.08,South,175,12.0,17.0,33,0.00,,---,0.00,VWS V14.01,2013-03-03 16:23:00,
2013-03-03 10:24:00,62.3,32.8,30.08,South,177,14.0,17.0,33,0.00,,---,0.00,VWS V14.01,2013-03-03 16:24:00,
2013-03-03 10:25:00,62.4,32.9,30.08,SE,134,3.0,17.0,33,0.00,,---,0.00,VWS V14.01,2013-03-03 16:25:00,
2013-03-03 10:26:00,62.5,32.3,30.08,SE,132,2.0,17.0,32,0.00,,---,0.00,VWS V14.01,2013-03-03 16:26:00,
2013-03-03 10:27:00,59.5,31.1,30.12,South,189,16.0,19.0,34,0.00,,---,0.00,VWS V14.01,2013-03-03 16:27:00,
2013-03-03 10:28:00,62.6,32.3,30.08,South,188,15.0,16.0,32,0.00,,---,0.00,VWS V14.01,2013-03-03 16:28:00,
2013-03-03 10:30:00,62.6,33.1,30.08,South,182,17.0,17.0,33,0.00,,---,0.00,VWS V14.01,2013-03-03 16:30:00,
2013-03-03 10:31:00,62.7,33.2,30.08,South,177,15.0,17.0,33,0.00,,---,0.00,VWS V14.01,2013-03-03 16:31:00,
2013-03-03 10:32:00,59.8,30.7,30.11,South,186,10.0,18.0,33,0.00,,---,0.00,VWS V14.01,2013-03-03 16:32:00,
2013-03-03 10:33:00,62.8,32.5,30.07,South,188,13.0,19.0,32,0.00,,---,0.00,VWS V14.01,2013-03-03 16:33:00,
2013-03-03 10:34:00,62.8,33.3,30.07,South,188,14.0,19.0,33,0.00,,---,0.00,VWS V14.01,2013-03-03 16:34:00,
2013-03-03 10:35:00,62.9,32.6,30.07,South,173,12.0,19.0,32,0.00,,---,0.00,VWS V14.01,2013-03-03 16:35:00,
2013-03-03 10:36:00,62.9,32.6,30.07,South,171,12.0,19.0,32,0.00,,---,0.00,VWS V14.01,2013-03-03 16:36:00,
2013-03-03 10:37:00,60.2,31.0,30.11,South,178,13.0,21.0,33,0.00,,---,0.00,VWS V14.01,2013-03-03 16:37:00,
2013-03-03 10:38:00,63.1,33.6,30.07,SSW,193,16.0,19.0,33,0.00,,---,0.00,VWS V14.01,2013-03-03 16:38:00,
2013-03-03 10:39:00,63.2,33.7,30.07,SSE,155,5.0,18.0,33,0.00,,---,0.00,VWS V14.01,2013-03-03 16:39:00,
2013-03-03 10:40:00,63.3,33.7,30.07,South,186,11.0,17.0,33,0.00,,---,0.00,VWS V14.01,2013-03-03 16:40:00,
2013-03-03 10:41:00,63.4,33.0,30.07,South,181,11.0,17.0,32,0.00,,---,0.00,VWS V14.01,2013-03-03 16:41:00,
2013-03-03 10:42:00,60.5,31.3,30.11,South,190,11.0,18.0,33,0.00,,---,0.00,VWS V14.01,2013-03-03 16:42:00,
2013-03-03 10:43:00,63.6,33.2,30.07,SSE,152,12.0,21.0,32,0.00,,---,0.00,VWS V14.01,2013-03-03 16:43:00,
2013-03-03 10:44:00,63.7,34.1,30.07,South,175,11.0,21.0,33,0.00,,---,0.00,VWS V14.01,2013-03-03 16:44:00,
2013-03-03 10:45:00,63.8,33.4,30.07,South,175,15.0,21.0,32,0.00,,---,0.00,VWS V14.01,2013-03-03 16:45:00,
2013-03-03 10:46:00,63.9,33.5,30.06,SSE,164,15.0,21.0,32,0.00,,---,0.00,VWS V14.01,2013-03-03 16:46:00,
2013-03-03 10:47:00,60.8,31.5,30.10,SSE,162,10.0,20.0,33,0.00,,---,0.00,VWS V14.01,2013-03-03 16:47:00,
2013-03-03 10:48:00,64.0,32.8,30.07,SSE,156,13.0,17.0,31,0.00,,---,0.00,VWS V14.01,2013-03-03 16:48:00,
2013-03-03 10:49:00,64.1,32.9,30.06,South,173,11.0,17.0,31,0.00,,---,0.00,VWS V14.01,2013-03-03 16:49:00,
2013-03-03 10:50:00,64.1,33.7,30.06,South,189,12.0,19.0,32,0.00,,---,0.00,VWS V14.01,2013-03-03 16:50:00,
2013-03-03 10:51:00,64.1,33.7,30.06,South,178,15.0,19.0,32,0.00,,---,0.00,VWS V14.01,2013-03-03 16:51:00,
2013-03-03 10:52:00,61.1,31.8,30.10,South,188,13.0,17.0,33,0.00,,---,0.00,VWS V14.01,2013-03-03 16:52:00,
2013-03-03 10:53:00,64.3,33.8,30.06,South,171,10.0,19.0,32,0.00,,---,0.00,VWS V14.01,2013-03-03 16:53:00,
2013-03-03 10:54:00,64.3,33.8,30.06,South,171,9.0,19.0,32,0.00,,---,0.00,VWS V14.01,2013-03-03 16:54:00,
2013-03-03 10:55:00,64.3,33.0,30.06,SE,144,5.0,16.0,31,0.00,,---,0.00,VWS V14.01,2013-03-03 16:55:00,
2013-03-03 10:56:00,64.4,33.9,30.06,South,178,12.0,16.0,32,0.00,,---,0.00,VWS V14.01,2013-03-03 16:56:00,
2013-03-03 10:57:00,61.3,32.0,30.09,South,176,13.0,21.0,33,0.00,,---,0.00,VWS V14.01,2013-03-03 16:57:00,
2013-03-03 10:58:00,64.5,34.0,30.06,SSE,157,9.0,15.0,32,0.00,,---,0.00,VWS V14.01,2013-03-03 16:58:00,
2013-03-03 10:59:00,64.7,33.4,30.06,South,183,16.0,16.0,31,0.00,,---,0.00,VWS V14.01,2013-03-03 16:59:00,
2013-03-03 11:00:00,64.7,33.4,30.06,South,171,11.0,16.0,31,0.00,,---,0.00,VWS V14.01,2013-03-03 17:00:00,
2013-03-03 11:01:00,64.8,34.3,30.06,SE,136,2.0,16.0,32,0.00,,---,0.00,VWS V14.01,2013-03-03 17:01:00,
2013-03-03 11:02:00,61.6,32.2,30.09,South,177,16.0,18.0,33,0.00,,---,0.00,VWS V14.01,2013-03-03 17:02:00,
2013-03-03 11:03:00,64.9,34.4,30.06,South,175,13.0,16.0,32,0.00,,---,0.00,VWS V14.01,2013-03-03 17:03:00,
2013-03-03 11:04:00,64.9,34.4,30.06,South,184,10.0,16.0,32,0.00,,---,0.00,VWS V14.01,2013-03-03 17:04:00,
2013-03-03 11:05:00,65.0,33.7,30.05,South,175,17.0,18.0,31,0.00,,---,0.00,VWS V14.01,2013-03-03 17:05:00,
2013-03-03 11:06:00,65.1,33.7,30.06,South,182,15.0,19.0,31,0.00,,---,0.00,VWS V14.01,2013-03-03 17:06:00,
2013-03-03 11:07:00,61.7,32.3,30.08,SSW,196,13.0,22.0,33,0.00,,---,0.00,VWS V14.01,2013-03-03 17:07:00,
2013-03-03 11:08:00,65.1,33.7,30.05,South,191,12.0,19.0,31,0.00,,---,0.00,VWS V14.01,2013-03-03 17:08:00,
2013-03-03 11:09:00,65.1,34.5,30.05,SSE,150,3.0,19.0,32,0.00,,---,0.00,VWS V14.01,2013-03-03 17:09:00,
2013-03-03 11:10:00,65.2,33.8,30.05,South,177,15.0,19.0,31,0.00,,---,0.00,VWS V14.01,2013-03-03 17:10:00,
2013-03-03 11:11:00,65.2,33.8,30.05,South,181,12.0,18.0,31,0.00,,---,0.00,VWS V14.01,2013-03-03 17:11:00,
2013-03-03 11:12:00,61.9,32.5,30.08,South,173,15.0,21.0,33,0.00,,---,0.00,VWS V14.01,2013-03-03 17:12:00,
2013-03-03 11:13:00,65.2,33.8,30.05,SSE,153,10.0,18.0,31,0.00,,---,0.00,VWS V14.01,2013-03-03 17:13:00,
2013-03-03 11:14:00,65.2,33.8,30.05,South,182,17.0,18.0,31,0.00,,---,0.00,VWS V14.01,2013-03-03 17:14:00,
2013-03-03 11:15:00,65.2,33.0,30.05,SSE,148,9.0,18.0,30,0.00,,---,0.00,VWS V14.01,2013-03-03 17:15:00,
2013-03-03 11:16:00,65.2,33.8,30.04,SE,126,4.0,18.0,31,0.00,,---,0.00,VWS V14.01,2013-03-03 17:16:00,
2013-03-03 11:17:00,62.2,32.8,30.08,South,190,12.0,18.0,33,0.00,,---,0.00,VWS V14.01,2013-03-03 17:17:00,
2013-03-03 11:18:00,65.1,32.9,30.04,South,171,9.0,17.0,30,0.00,,---,0.00,VWS V14.01,2013-03-03 17:18:00,
2013-03-03 11:19:00,65.1,34.5,30.04,South,176,14.0,17.0,32,0.00,,---,0.00,VWS V14.01,2013-03-03 17:19:00,
2013-03-03 11:20:00,65.2,34.6,30.04,South,191,16.0,18.0,32,0.00,,---,0.00,VWS V14.01,2013-03-03 17:20:00,
2013-03-03 11:21:00,65.3,33.9,30.04,South,173,12.0,18.0,31,0.00,,---,0.00,VWS V14.01,2013-03-03 17:21:00,
2013-03-03 11:22:00,65.4,34.0,30.04,South,178,9.0,18.0,31,0.00,,---,0.00,VWS V14.01,2013-03-03 17:22:00,
2013-03-03 11:23:00,62.5,33.0,30.08,SSE,149,6.0,17.0,33,0.00,,---,0.00,VWS V14.01,2013-03-03 17:23:00,
2013-03-03 11:24:00,65.5,34.1,30.03,SSE,168,17.0,18.0,31,0.00,,---,0.00,VWS V14.01,2013-03-03 17:24:00,
2013-03-03 11:25:00,65.6,34.2,30.04,SSE,158,7.0,17.0,31,0.00,,---,0.00,VWS V14.01,2013-03-03 17:25:00,
2013-03-03 11:27:00,65.7,34.3,30.03,SSE,163,14.0,17.0,31,0.00,,---,0.00,VWS V14.01,2013-03-03 17:27:00,
2013-03-03 11:28:00,62.8,32.5,30.07,South,182,13.0,19.0,32,0.00,,---,0.00,VWS V14.01,2013-03-03 17:28:00,
2013-03-03 11:29:00,65.8,34.3,30.03,South,175,11.0,15.0,31,0.00,,---,0.00,VWS V14.01,2013-03-03 17:29:00,
2013-03-03 11:30:00,65.9,34.4,30.03,SSE,157,9.0,15.0,31,0.00,,---,0.00,VWS V14.01,2013-03-03 17:30:00,
2013-03-03 11:31:00,66.0,34.5,30.03,SSE,167,11.0,16.0,31,0.00,,---,0.00,VWS V14.01,2013-03-03 17:31:00,
2013-03-03 11:32:00,66.1,34.6,30.03,SSE,167,12.0,18.0,31,0.00,,---,0.00,VWS V14.01,2013-03-03 17:32:00,
2013-03-03 11:33:00,63.0,32.7,30.07,South,175,5.0,19.0,32,0.00,,---,0.00,VWS V14.01,2013-03-03 17:33:00,
2013-03-03 11:34:00,66.1,33.8,30.03,South,169,5.0,21.0,30,0.00,,---,0.00,VWS V14.01,2013-03-03 17:34:00,
2013-03-03 11:35:00,66.1,33.8,30.03,SSE,152,6.0,21.0,30,0.00,,---,0.00,VWS V14.01,2013-03-03 17:35:00,
2013-03-03 11:36:00,66.1,34.6,30.03,SSE,148,10.0,21.0,31,0.00,,---,0.00,VWS V14.01,2013-03-03 17:36:00,
2013-03-03 11:37:00,66.1,33.8,30.03,SSE,160,10.0,21.0,30,0.00,,---,0.00,VWS V14.01,2013-03-03 17:37:00,
2013-03-03 11:38:00,63.6,34.0,30.07,SSE,153,9.0,21.0,33,0.00,,---,0.00,VWS V14.01,2013-03-03 17:38:00,
2013-03-03 11:39:00,66.1,34.6,30.03,SSE,168,6.0,17.0,31,0.00,,---,0.00,VWS V14.01,2013-03-03 17:39:00,
2013-03-03 11:40:00,66.1,34.6,30.03,SE,145,6.0,17.0,31,0.00,,---,0.00,VWS V14.01,2013-03-03 17:40:00,
2013-03-03 11:41:00,66.1,33.8,30.03,South,171,11.0,17.0,30,0.00,,---,0.00,VWS V14.01,2013-03-03 17:41:00,
2013-03-03 11:42:00,66.1,33.8,30.03,SSE,163,7.0,16.0,30,0.00,,---,0.00,VWS V14.01,2013-03-03 17:42:00,
2013-03-03 11:43:00,64.0,33.6,30.07,SSE,158,6.0,17.0,32,0.00,,---,0.00,VWS V14.01,2013-03-03 17:43:00,
2013-03-03 11:44:00,66.1,34.6,30.02,SSW,194,11.0,14.0,31,0.00,,---,0.00,VWS V14.01,2013-03-03 17:44:00,
2013-03-03 11:45:00,66.2,33.9,30.02,South,187,7.0,14.0,30,0.00,,---,0.00,VWS V14.01,2013-03-03 17:45:00,
2013-03-03 11:46:00,66.2,35.5,30.02,South,186,7.0,14.0,32,0.00,,---,0.00,VWS V14.01,2013-03-03 17:46:00,
2013-03-03 11:47:00,66.4,35.7,30.02,South,174,13.0,14.0,32,0.00,,---,0.00,VWS V14.01,2013-03-03 17:47:00,
2013-03-03 11:48:00,64.2,33.8,30.06,SSE,163,8.0,19.0,32,0.00,,---,0.00,VWS V14.01,2013-03-03 17:48:00,
2013-03-03 11:49:00,66.8,34.4,30.02,South,173,16.0,18.0,30,0.00,,---,0.00,VWS V14.01,2013-03-03 17:49:00,
2013-03-03 11:50:00,66.9,35.3,30.02,South,176,13.0,18.0,31,0.00,,---,0.00,VWS V14.01,2013-03-03 17:50:00,
2013-03-03 11:51:00,67.0,34.6,30.02,SSE,161,6.0,18.0,30,0.00,,---,0.00,VWS V14.01,2013-03-03 17:51:00,
2013-03-03 11:52:00,67.0,35.4,30.02,SE,142,4.0,18.0,31,0.00,,---,0.00,VWS V14.01,2013-03-03 17:52:00,
2013-03-03 11:53:00,64.5,34.0,30.06,SSE,163,7.0,16.0,32,0.00,,---,0.00,VWS V14.01,2013-03-03 17:53:00,
2013-03-03 11:54:00,67.2,34.8,30.02,SE,137,10.0,17.0,30,0.00,,---,0.00,VWS V14.01,2013-03-03 17:54:00,
2013-03-03 11:55:00,67.2,34.8,30.02,South,169,12.0,17.0,30,0.00,,---,0.00,VWS V14.01,2013-03-03 17:55:00,
2013-03-03 11:56:00,67.2,34.8,30.02,SSE,148,5.0,16.0,30,0.00,,---,0.00,VWS V14.01,2013-03-03 17:56:00,
2013-03-03 11:57:00,67.2,34.8,30.02,SSE,163,2.0,16.0,30,0.00,,---,0.00,VWS V14.01,2013-03-03 17:57:00,
2013-03-03 11:58:00,64.8,34.3,30.06,South,171,11.0,16.0,32,0.00,,---,0.00,VWS V14.01,2013-03-03 17:58:00,
2013-03-03 11:59:00,67.3,35.7,30.02,SSE,163,9.0,16.0,31,0.00,,---,0.00,VWS V14.01,2013-03-03 17:59:00,
2013-03-03 12:00:00,67.4,34.9,30.02,SSE,166,10.0,15.0,30,0.00,,---,0.00,VWS V14.01,2013-03-03 18:00:00,
2013-03-03 12:01:00,67.5,35.0,30.02,SSE,152,6.0,15.0,30,0.00,,---,0.00,VWS V14.01,2013-03-03 18:01:00,
2013-03-03 12:02:00,67.6,35.1,30.02,SSE,168,7.0,15.0,30,0.00,,---,0.00,VWS V14.01,2013-03-03 18:02:00,
2013-03-03 12:03:00,65.1,33.7,30.05,South,174,12.0,19.0,31,0.00,,---,0.00,VWS V14.01,2013-03-03 18:03:00,
2013-03-03 12:04:00,67.7,35.2,30.02,SSE,166,13.0,18.0,30,0.00,,---,0.00,VWS V14.01,2013-03-03 18:04:00,
2013-03-03 12:05:00,67.9,35.3,30.02,South,169,15.0,18.0,30,0.00,,---,0.00,VWS V14.01,2013-03-03 18:05:00,
2013-03-03 12:06:00,67.9,34.5,30.01,SE,144,2.0,18.0,29,0.00,,---,0.00,VWS V14.01,2013-03-03 18:06:00,
2013-03-03 12:07:00,68.0,35.4,30.01,SSE,152,10.0,18.0,30,0.00,,---,0.00,VWS V14.01,2013-03-03 18:07:00,
2013-03-03 12:08:00,65.2,33.8,30.05,SSE,153,7.0,18.0,31,0.00,,---,0.00,VWS V14.01,2013-03-03 18:08:00,
2013-03-03 12:10:00,68.0,34.6,30.01,SSE,161,12.0,19.0,29,0.00,,---,0.00,VWS V14.01,2013-03-03 18:10:00,
2013-03-03 12:11:00,68.0,34.6,30.01,South,171,13.0,19.0,29,0.00,,---,0.00,VWS V14.01,2013-03-03 18:11:00,
2013-03-03 12:12:00,67.9,34.5,30.01,SSE,162,5.0,19.0,29,0.00,,---,0.00,VWS V14.01,2013-03-03 18:12:00,
2013-03-03 12:13:00,65.1,32.9,30.04,SSE,158,2.0,18.0,30,0.00,,---,0.00,VWS V14.01,2013-03-03 18:13:00,
2013-03-03 12:14:00,68.0,35.4,30.01,SE,142,6.0,19.0,30,0.00,,---,0.00,VWS V14.01,2013-03-03 18:14:00,
2013-03-03 12:15:00,68.1,35.5,30.01,South,175,12.0,20.0,30,0.00,,---,0.00,VWS V14.01,2013-03-03 18:15:00,
2013-03-03 12:16:00,68.1,34.7,30.00,SSE,154,7.0,20.0,29,0.00,,---,0.00,VWS V14.01,2013-03-03 18:16:00,
2013-03-03 12:17:00,68.2,35.6,30.00,South,184,9.0,20.0,30,0.00,,---,0.00,VWS V14.01,2013-03-03 18:17:00,
2013-03-03 12:18:00,65.4,34.0,30.04,South,178,14.0,18.0,31,0.00,,---,0.00,VWS V14.01,2013-03-03 18:18:00,
2013-03-03 12:19:00,68.3,35.7,30.00,SE,142,3.0,20.0,30,0.00,,---,0.00,VWS V14.01,2013-03-03 18:19:00,
2013-03-03 12:20:00,68.4,34.9,30.00,SSE,161,3.0,16.0,29,0.00,,---,0.00,VWS V14.01,2013-03-03 18:20:00,
2013-03-03 12:21:00,68.4,34.9,30.00,SSE,159,12.0,15.0,29,0.00,,---,0.00,VWS V14.01,2013-03-03 18:21:00,
2013-03-03 12:22:00,68.5,35.9,30.00,SE,141,10.0,13.0,30,0.00,,---,0.00,VWS V14.01,2013-03-03 18:22:00,
2013-03-03 12:23:00,65.7,34.3,30.03,South,175,6.0,17.0,31,0.00,,---,0.00,VWS V14.01,2013-03-03 18:23:00,
2013-03-03 12:24:00,68.6,35.1,30.00,South,178,9.0,18.0,29,0.00,,---,0.00,VWS V14.01,2013-03-03 18:24:00,
2013-03-03 12:25:00,68.6,35.1,30.00,SSE,155,12.0,18.0,29,0.00,,---,0.00,VWS V14.01,2013-03-03 18:25:00,
2013-03-03 12:26:00,68.6,35.1,30.00,SSE,167,5.0,18.0,29,0.00,,---,0.00,VWS V14.01,2013-03-03 18:26:00,
2013-03-03 12:27:00,68.6,35.1,30.00,South,173,15.0,18.0,29,0.00,,---,0.00,VWS V14.01,2013-03-03 18:27:00,
2013-03-03 12:28:00,66.1,33.8,30.03,South,171,15.0,18.0,30,0.00,,---,0.00,VWS V14.01,2013-03-03 18:28:00,
2013-03-03 12:29:00,68.6,35.1,29.99,SE,133,1.0,17.0,29,0.00,,---,0.00,VWS V14.01,2013-03-03 18:29:00,
2013-03-03 12:30:00,68.5,35.0,29.99,South,178,9.0,17.0,29,0.00,,---,0.00,VWS V14.01,2013-03-03 18:30:00,
2013-03-03 12:31:00,68.6,36.0,29.98,South,173,7.0,17.0,30,0.00,,---,0.00,VWS V14.01,2013-03-03 18:31:00,
2013-03-03 12:33:00,66.1,33.8,30.03,SSE,158,12.0,21.0,30,0.00,,---,0.00,VWS V14.01,2013-03-03 18:33:00,
2013-03-03 12:34:00,68.7,36.0,29.98,South,175,12.0,16.0,30,0.00,,---,0.00,VWS V14.01,2013-03-03 18:34:00,
2013-03-03 12:35:00,68.8,36.1,29.98,SE,142,12.0,16.0,30,0.00,,---,0.00,VWS V14.01,2013-03-03 18:35:00,
2013-03-03 12:36:00,68.7,35.2,29.97,SSE,157,6.0,17.0,29,0.00,,---,0.00,VWS V14.01,2013-03-03 18:36:00,
2013-03-03 12:37:00,68.7,35.2,29.98,SSE,158,6.0,17.0,29,0.00,,---,0.00,VWS V14.01,2013-03-03 18:37:00,
2013-03-03 12:38:00,66.1,33.8,30.03,SSE,162,6.0,16.0,30,0.00,,---,0.00,VWS V14.01,2013-03-03 18:38:00,
2013-03-03 12:39:00,68.5,35.0,29.97,SSE,162,2.0,17.0,29,0.00,,---,0.00,VWS V14.01,2013-03-03 18:39:00,
2013-03-03 12:40:00,68.4,34.9,29.97,SSE,157,6.0,17.0,29,0.00,,---,0.00,VWS V14.01,2013-03-03 18:40:00,
2013-03-03 12:41:00,68.3,34.8,29.97,SSE,153,5.0,17.0,29,0.00,,---,0.00,VWS V14.01,2013-03-03 18:41:00,
2013-03-03 12:42:00,68.2,34.8,29.97,South,171,4.0,17.0,29,0.00,,---,0.00,VWS V14.01,2013-03-03 18:42:00,
2013-03-03 12:43:00,66.5,35.0,30.02,South,188,15.0,16.0,31,0.00,,---,0.00,VWS V14.01,2013-03-03 18:43:00,
2013-03-03 12:44:00,68.0,34.6,29.97,SSE,149,3.0,17.0,29,0.00,,---,0.00,VWS V14.01,2013-03-03 18:44:00,
2013-03-03 12:45:00,67.9,34.5,29.97,SSE,159,7.0,17.0,29,0.00,,---,0.00,VWS V14.01,2013-03-03 18:45:00,
2013-03-03 12:46:00,67.9,35.3,29.97,South,170,6.0,17.0,30,0.00,,---,0.00,VWS V14.01,2013-03-03 18:46:00,
2013-03-03 12:48:00,67.1,35.5,30.02,South,170,6.0,18.0,31,0.00,,---,0.00,VWS V14.01,2013-03-03 18:48:00,
2013-03-03 12:51:00,68.0,35.4,29.96,South,174,10.0,21.0,30,0.00,,---,0.00,VWS V14.01,2013-03-03 18:51:00,
2013-03-03 12:52:00,68.1,34.7,29.97,SSE,168,14.0,21.0,29,0.00,,---,0.00,VWS V14.01,2013-03-03 18:52:00,
2013-03-03 12:53:00,67.2,34.8,30.02,South,173,11.0,16.0,30,0.00,,---,0.00,VWS V14.01,2013-03-03 18:53:00,
2013-03-03 12:54:00,68.3,35.7,29.96,South,171,11.0,21.0,30,0.00,,---,0.00,VWS V14.01,2013-03-03 18:54:00,
2013-03-03 12:55:00,68.5,35.9,29.96,SSE,167,8.0,19.0,30,0.00,,---,0.00,VWS V14.01,2013-03-03 18:55:00,
2013-03-03 12:56:00,68.7,36.0,29.96,South,175,7.0,19.0,30,0.00,,---,0.00,VWS V14.01,2013-03-03 18:56:00,
2013-03-03 12:57:00,68.8,36.1,29.96,SSE,167,9.0,19.0,30,0.00,,---,0.00,VWS V14.01,2013-03-03 18:57:00,
2013-03-03 12:58:00,67.6,35.1,30.02,SE,144,3.0,15.0,30,0.00,,---,0.00,VWS V14.01,2013-03-03 18:58:00,
2013-03-03 12:59:00,69.1,36.4,29.96,South,190,11.0,17.0,30,0.00,,---,0.00,VWS V14.01,2013-03-03 18:59:00,
2013-03-03 13:00:00,69.4,35.8,29.96,SSE,163,5.0,17.0,29,0.00,,---,0.00,VWS V14.01,2013-03-03 19:00:00,
2013-03-03 13:01:00,69.5,35.9,29.96,South,186,12.0,17.0,29,0.00,,---,0.00,VWS V14.01,2013-03-03 19:01:00,
2013-03-03 13:02:00,69.6,36.8,29.96,SSE,158,7.0,18.0,30,0.00,,---,0.00,VWS V14.01,2013-03-03 19:02:00,
2013-03-03 13:03:00,68.0,34.6,30.01,South,173,9.0,18.0,29,0.00,,---,0.00,VWS V14.01,2013-03-03 19:03:00,
2013-03-03 13:04:00,69.8,36.1,29.96,South,178,15.0,19.0,29,0.00,,---,0.00,VWS V14.01,2013-03-03 19:04:00,
2013-03-03 13:05:00,69.9,36.2,29.95,South,181,12.0,19.0,29,0.00,,---,0.00,VWS V14.01,2013-03-03 19:05:00,
2013-03-03 13:06:00,70.0,36.3,29.95,South,173,13.0,19.0,29,0.00,,---,0.00,VWS V14.01,2013-03-03 19:06:00,
2013-03-03 13:07:00,70.0,36.3,29.95,South,177,11.0,19.0,29,0.00,,---,0.00,VWS V14.01,2013-03-03 19:07:00,
2013-03-03 13:08:00,67.9,35.3,30.01,SSE,164,8.0,19.0,30,0.00,,---,0.00,VWS V14.01,2013-03-03 19:08:00,
2013-03-03 13:09:00,70.2,36.5,29.95,South,173,15.0,21.0,29,0.00,,---,0.00,VWS V14.01,2013-03-03 19:09:00,
2013-03-03 13:11:00,70.3,35.7,29.95,SSW,192,10.0,22.0,28,0.00,,---,0.00,VWS V14.01,2013-03-03 19:11:00,
2013-03-03 13:12:00,70.3,36.6,29.94,South,173,16.0,22.0,29,0.00,,---,0.00,VWS V14.01,2013-03-03 19:12:00,
2013-03-03 13:13:00,68.2,35.6,30.00,SSE,153,5.0,20.0,30,0.00,,---,0.00,VWS V14.01,2013-03-03 19:13:00,
2013-03-03 13:15:00,70.5,36.7,29.94,South,173,11.0,20.0,29,0.00,,---,0.00,VWS V14.01,2013-03-03 19:15:00,
2013-03-03 13:17:00,70.7,36.9,29.94,SE,138,6.0,19.0,29,0.00,,---,0.00,VWS V14.01,2013-03-03 19:17:00,
2013-03-03 13:18:00,68.5,35.0,30.00,South,173,17.0,18.0,29,0.00,,---,0.00,VWS V14.01,2013-03-03 19:18:00,
2013-03-03 13:19:00,70.7,36.0,29.94,SSE,159,6.0,19.0,28,0.00,,---,0.00,VWS V14.01,2013-03-03 19:19:00,
2013-03-03 13:20:00,70.7,36.9,29.93,South,190,16.0,19.0,29,0.00,,---,0.00,VWS V14.01,2013-03-03 19:20:00,
2013-03-03 13:21:00,70.8,37.0,29.93,SSE,157,12.0,22.0,29,0.00,,---,0.00,VWS V14.01,2013-03-03 19:21:00,
2013-03-03 13:22:00,70.8,36.1,29.93,South,188,14.0,22.0,28,0.00,,---,0.00,VWS V14.01,2013-03-03 19:22:00,
2013-03-03 13:23:00,68.6,36.0,29.99,South,176,11.0,17.0,30,0.00,,---,0.00,VWS V14.01,2013-03-03 19:23:00,
2013-03-03 13:24:00,70.7,36.0,29.93,SSE,150,16.0,22.0,28,0.00,,---,0.00,VWS V14.01,2013-03-03 19:24:00,
2013-03-03 13:25:00,70.6,36.8,29.93,South,173,22.0,22.0,29,0.00,,---,0.00,VWS V14.01,2013-03-03 19:25:00,
2013-03-03 13:27:00,70.5,35.9,29.93,SSE,158,4.0,22.0,28,0.00,,---,0.00,VWS V14.01,2013-03-03 19:27:00,
2013-03-03 13:28:00,68.6,36.0,29.98,South,172,11.0,15.0,30,0.00,,---,0.00,VWS V14.01,2013-03-03 19:28:00,
2013-03-03 13:29:00,70.4,36.7,29.93,SSE,149,14.0,25.0,29,0.00,,---,0.00,VWS V14.01,2013-03-03 19:29:00,
2013-03-03 13:30:00,70.5,36.7,29.93,South,171,13.0,25.0,29,0.00,,---,0.00,VWS V14.01,2013-03-03 19:30:00,
2013-03-03 13:31:00,70.5,36.7,29.93,SE,140,3.0,25.0,29,0.00,,---,0.00,VWS V14.01,2013-03-03 19:31:00,
2013-03-03 13:32:00,70.5,36.7,29.92,SSE,168,10.0,25.0,29,0.00,,---,0.00,VWS V14.01,2013-03-03 19:32:00,
2013-03-03 13:33:00,68.6,35.1,29.98,SSE,162,10.0,17.0,29,0.00,,---,0.00,VWS V14.01,2013-03-03 19:33:00,
2013-03-03 13:34:00,70.5,35.9,29.92,South,171,17.0,17.0,28,0.00,,---,0.00,VWS V14.01,2013-03-03 19:34:00,
2013-03-03 13:35:00,70.4,36.7,29.92,South,186,15.0,17.0,29,0.00,,---,0.00,VWS V14.01,2013-03-03 19:35:00,
2013-03-03 13:36:00,70.5,37.6,29.92,SSE,150,2.0,17.0,30,0.00,,---,0.00,VWS V14.01,2013-03-03 19:36:00,
2013-03-03 13:37:00,70.6,37.7,29.92,SE,141,11.0,17.0,30,0.00,,---,0.00,VWS V14.01,2013-03-03 19:37:00,
2013-03-03 13:38:00,68.1,34.7,29.97,SSE,153,11.0,17.0,29,0.00,,---,0.00,VWS V14.01,2013-03-03 19:38:00,
2013-03-03 13:39:00,70.9,36.2,29.92,SSE,165,14.0,19.0,28,0.00,,---,0.00,VWS V14.01,2013-03-03 19:39:00,
2013-03-03 13:40:00,70.9,36.2,29.92,SE,134,5.0,19.0,28,0.00,,---,0.00,VWS V14.01,2013-03-03 19:40:00,
2013-03-03 13:41:00,70.9,36.2,29.91,South,171,12.0,19.0,28,0.00,,---,0.00,VWS V14.01,2013-03-03 19:41:00,
2013-03-03 13:42:00,70.9,36.2,29.91,South,188,14.0,19.0,28,0.00,,---,0.00,VWS V14.01,2013-03-03 19:42:00,
2013-03-03 13:43:00,67.9,35.3,29.97,South,169,14.0,17.0,30,0.00,,---,0.00,VWS V14.01,2013-03-03 19:43:00,
2013-03-03 13:44:00,70.9,37.1,29.91,SSE,154,5.0,18.0,29,0.00,,---,0.00,VWS V14.01,2013-03-03 19:44:00,
2013-03-03 13:45:00,70.9,37.1,29.91,South,181,16.0,18.0,29,0.00,,---,0.00,VWS V14.01,2013-03-03 19:45:00,
2013-03-03 13:46:00,71.0,37.2,29.91,SE,128,12.0,18.0,29,0.00,,---,0.00,VWS V14.01,2013-03-03 19:46:00,
2013-03-03 13:47:00,71.1,37.3,29.91,SSE,164,10.0,23.0,29,0.00,,---,0.00,VWS V14.01,2013-03-03 19:47:00,
2013-03-03 13:48:00,68.1,35.5,29.97,SSE,163,15.0,21.0,30,0.00,,---,0.00,VWS V14.01,2013-03-03 19:48:00,
2013-03-03 13:49:00,71.2,37.3,29.91,SSE,166,17.0,23.0,29,0.00,,---,0.00,VWS V14.01,2013-03-03 19:49:00,
2013-03-03 13:50:00,71.3,37.4,29.91,South,187,15.0,23.0,29,0.00,,---,0.00,VWS V14.01,2013-03-03 19:50:00,
2013-03-03 13:51:00,71.3,37.4,29.91,SSE,161,11.0,23.0,29,0.00,,---,0.00,VWS V14.01,2013-03-03 19:51:00,
2013-03-03 13:52:00,71.4,37.5,29.91,South,173,17.0,20.0,29,0.00,,---,0.00,VWS V14.01,2013-03-03 19:52:00,
2013-03-03 13:53:00,68.9,35.4,29.96,SE,142,2.0,19.0,29,0.00,,---,0.00,VWS V14.01,2013-03-03 19:53:00,
2013-03-03 13:55:00,71.5,37.6,29.91,South,191,14.0,20.0,29,0.00,,---,0.00,VWS V14.01,2013-03-03 19:55:00,
2013-03-03 13:56:00,71.6,37.7,29.91,SSE,152,9.0,20.0,29,0.00,,---,0.00,VWS V14.01,2013-03-03 19:56:00,
2013-03-03 13:57:00,71.7,36.9,29.90,South,186,13.0,20.0,28,0.00,,---,0.00,VWS V14.01,2013-03-03 19:57:00,
2013-03-03 13:58:00,69.7,36.0,29.96,SSE,163,12.0,19.0,29,0.00,,---,0.00,VWS V14.01,2013-03-03 19:58:00,
2013-03-03 13:59:00,71.9,37.1,29.91,South,169,6.0,20.0,28,0.00,,---,0.00,VWS V14.01,2013-03-03 19:59:00,
2013-03-03 14:00:00,71.9,37.1,29.91,South,169,5.0,20.0,28,0.00,,---,0.00,VWS V14.01,2013-03-03 20:00:00,
2013-03-03 14:01:00,72.0,37.1,29.91,SSE,163,8.0,20.0,28,0.00,,---,0.00,VWS V14.01,2013-03-03 20:01:00,
2013-03-03 14:02:00,72.0,37.1,29.91,ESE,116,6.0,20.0,28,0.00,,---,0.00,VWS V14.01,2013-03-03 20:02:00,
2013-03-03 14:03:00,70.1,35.5,29.95,South,172,12.0,19.0,28,0.00,,---,0.00,VWS V14.01,2013-03-03 20:03:00,
2013-03-03 14:04:00,71.9,37.1,29.91,South,171,9.0,17.0,28,0.00,,---,0.00,VWS V14.01,2013-03-03 20:04:00,
2013-03-03 14:05:00,71.9,37.1,29.91,SSE,157,7.0,17.0,28,0.00,,---,0.00,VWS V14.01,2013-03-03 20:05:00,
2013-03-03 14:06:00,71.9,37.1,29.91,South,169,14.0,18.0,28,0.00,,---,0.00,VWS V14.01,2013-03-03 20:06:00,
2013-03-03 14:07:00,71.9,37.1,29.90,SSE,157,3.0,19.0,28,0.00,,---,0.00,VWS V14.01,2013-03-03 20:07:00,
2013-03-03 14:08:00,70.3,36.6,29.94,SSE,157,4.0,22.0,29,0.00,,---,0.00,VWS V14.01,2013-03-03 20:08:00,
2013-03-03 14:09:00,71.9,37.1,29.90,SSE,151,6.0,19.0,28,0.00,,---,0.00,VWS V14.01,2013-03-03 20:09:00,
2013-03-03 14:10:00,71.9,37.1,29.90,South,173,17.0,22.0,28,0.00,,---,0.00,VWS V14.01,2013-03-03 20:10:00,
2013-03-03 14:11:00,71.9,37.1,29.90,SSE,150,8.0,22.0,28,0.00,,---,0.00,VWS V14.01,2013-03-03 20:11:00,
2013-03-03 14:12:00,72.0,37.1,29.90,SSE,163,4.0,22.0,28,0.00,,---,0.00,VWS V14.01,2013-03-03 20:12:00,
2013-03-03 14:13:00,70.7,36.0,29.94,South,180,14.0,19.0,28,0.00,,---,0.00,VWS V14.01,2013-03-03 20:13:00,
2013-03-03 14:14:00,72.1,37.2,29.90,SE,146,15.0,22.0,28,0.00,,---,0.00,VWS V14.01,2013-03-03 20:14:00,
2013-03-03 14:15:00,72.1,37.2,29.90,South,173,17.0,20.0,28,0.00,,---,0.00,VWS V14.01,2013-03-03 20:15:00,
2013-03-03 14:16:00,72.1,37.2,29.90,SSE,158,17.0,19.0,28,0.00,,---,0.00,VWS V14.01,2013-03-03 20:16:00,
2013-03-03 14:17:00,72.1,36.3,29.90,SSE,167,17.0,24.0,27,0.00,,---,0.00,VWS V14.01,2013-03-03 20:17:00,
2013-03-03 14:18:00,70.7,36.0,29.93,South,182,11.0,22.0,28,0.00,,---,0.00,VWS V14.01,2013-03-03 20:18:00,
2013-03-03 14:19:00,71.9,37.1,29.90,South,188,16.0,24.0,28,0.00,,---,0.00,VWS V14.01,2013-03-03 20:19:00,
2013-03-03 14:20:00,72.0,37.1,29.90,SSE,152,9.0,24.0,28,0.00,,---,0.00,VWS V14.01,2013-03-03 20:20:00,
2013-03-03 14:21:00,72.0,37.1,29.89,South,180,18.0,24.0,28,0.00,,---,0.00,VWS V14.01,2013-03-03 20:21:00,
2013-03-03 14:22:00,72.0,37.1,29.89,South,175,16.0,21.0,28,0.00,,---,0.00,VWS V14.01,2013-03-03 20:22:00,
2013-03-03 14:23:00,70.5,36.7,29.93,SSE,149,6.0,22.0,29,0.00,,---,0.00,VWS V14.01,2013-03-03 20:23:00,
2013-03-03 14:24:00,72.1,36.3,29.89,South,186,12.0,21.0,27,0.00,,---,0.00,VWS V14.01,2013-03-03 20:24:00,
2013-03-03 14:25:00,72.1,37.2,29.89,SSE,154,12.0,22.0,28,0.00,,---,0.00,VWS V14.01,2013-03-03 20:25:00,
2013-03-03 14:26:00,72.1,36.3,29.89,South,179,10.0,22.0,27,0.00,,---,0.00,VWS V14.01,2013-03-03 20:26:00,
2013-03-03 14:27:00,72.1,36.3,29.89,South,175,12.0,22.0,27,0.00,,---,0.00,VWS V14.01,2013-03-03 20:27:00,
2013-03-03 14:28:00,70.5,35.9,29.93,SSE,155,12.0,25.0,28,0.00,,---,0.00,VWS V14.01,2013-03-03 20:28:00,
2013-03-03 14:29:00,72.1,37.2,29.89,SSE,155,14.0,22.0,28,0.00,,---,0.00,VWS V14.01,2013-03-03 20:29:00,
2013-03-03 14:30:00,72.1,37.2,29.89,South,174,13.0,22.0,28,0.00,,---,0.00,VWS V14.01,2013-03-03 20:30:00,
2013-03-03 14:31:00,72.2,37.3,29.89,South,191,13.0,22.0,28,0.00,,---,0.00,VWS V14.01,2013-03-03 20:31:00,
2013-03-03 14:32:00,72.2,37.3,29.89,South,172,16.0,22.0,28,0.00,,---,0.00,VWS V14.01,2013-03-03 20:32:00,
2013-03-03 14:33:00,70.8,37.0,29.92,SE,144,4.0,18.0,29,0.00,,---,0.00,VWS V14.01,2013-03-03 20:33:00,
2013-03-03 14:34:00,72.2,37.3,29.89,SE,131,10.0,25.0,28,0.00,,---,0.00,VWS V14.01,2013-03-03 20:34:00,
2013-03-03 14:35:00,72.2,37.3,29.89,SSE,153,15.0,25.0,28,0.00,,---,0.00,VWS V14.01,2013-03-03 20:35:00,
2013-03-03 14:36:00,72.2,37.3,29.89,South,178,12.0,25.0,28,0.00,,---,0.00,VWS V14.01,2013-03-03 20:36:00,
2013-03-03 14:38:00,70.9,37.1,29.91,South,180,11.0,19.0,29,0.00,,---,0.00,VWS V14.01,2013-03-03 20:38:00,
2013-03-03 14:40:00,72.1,37.2,29.88,South,180,14.0,22.0,28,0.00,,---,0.00,VWS V14.01,2013-03-03 20:40:00,
2013-03-03 14:41:00,72.1,36.3,29.88,SSE,153,10.0,22.0,27,0.00,,---,0.00,VWS V14.01,2013-03-03 20:41:00,
2013-03-03 14:42:00,72.0,36.2,29.88,SE,127,5.0,21.0,27,0.00,,---,0.00,VWS V14.01,2013-03-03 20:42:00,
2013-03-03 14:43:00,71.2,37.3,29.91,SSE,160,14.0,23.0,29,0.00,,---,0.00,VWS V14.01,2013-03-03 20:43:00,
2013-03-03 14:44:00,71.9,37.1,29.88,South,173,21.0,21.0,28,0.00,,---,0.00,VWS V14.01,2013-03-03 20:44:00,
2013-03-03 14:46:00,71.9,36.1,29.88,ESE,111,20.0,22.0,27,0.00,,---,0.00,VWS V14.01,2013-03-03 20:46:00,
2013-03-03 14:47:00,71.9,36.1,29.88,SSE,159,10.0,22.0,27,0.00,,---,0.00,VWS V14.01,2013-03-03 20:47:00,
2013-03-03 14:48:00,71.5,36.7,29.91,SSE,163,12.0,20.0,28,0.00,,---,0.00,VWS V14.01,2013-03-03 20:48:00,
2013-03-03 14:49:00,71.9,37.1,29.88,South,181,22.0,22.0,28,0.00,,---,0.00,VWS V14.01,2013-03-03 20:49:00,
2013-03-03 14:50:00,71.9,37.1,29.88,SSE,161,16.0,22.0,28,0.00,,---,0.00,VWS V14.01,2013-03-03 20:50:00,
2013-03-03 14:51:00,71.9,37.1,29.88,South,179,15.0,22.0,28,0.00,,---,0.00,VWS V14.01,2013-03-03 20:51:00,
2013-03-03 14:52:00,71.9,36.1,29.88,South,175,18.0,22.0,27,0.00,,---,0.00,VWS V14.01,2013-03-03 20:52:00,
2013-03-03 14:53:00,71.8,37.9,29.90,South,170,13.0,20.0,29,0.00,,---,0.00,VWS V14.01,2013-03-03 20:53:00,
2013-03-03 14:54:00,71.9,37.1,29.87,SSE,162,17.0,24.0,28,0.00,,---,0.00,VWS V14.01,2013-03-03 20:54:00,
2013-03-03 14:55:00,71.9,37.1,29.88,South,180,11.0,24.0,28,0.00,,---,0.00,VWS V14.01,2013-03-03 20:55:00,
2013-03-03 14:56:00,71.9,37.1,29.88,SSE,159,7.0,24.0,28,0.00,,---,0.00,VWS V14.01,2013-03-03 20:56:00,
2013-03-03 14:57:00,72.0,38.0,29.87,South,169,13.0,24.0,29,0.00,,---,0.00,VWS V14.01,2013-03-03 20:57:00,
2013-03-03 14:58:00,71.9,36.1,29.91,SSE,161,9.0,17.0,27,0.00,,---,0.00,VWS V14.01,2013-03-03 20:58:00,
2013-03-03 14:59:00,72.1,36.3,29.87,SSE,151,8.0,19.0,27,0.00,,---,0.00,VWS V14.01,2013-03-03 20:59:00,
2013-03-03 15:00:00,72.0,37.1,29.87,SSW,194,13.0,19.0,28,0.00,,---,0.00,VWS V14.01,2013-03-03 21:00:00,
2013-03-03 15:01:00,72.1,37.2,29.87,SSW,198,16.0,26.0,28,0.00,,---,0.00,VWS V14.01,2013-03-03 21:01:00,
2013-03-03 15:02:00,72.2,37.3,29.87,South,169,22.0,24.0,28,0.00,,---,0.00,VWS V14.01,2013-03-03 21:02:00,
2013-03-03 15:03:00,72.0,37.1,29.90,South,169,16.0,19.0,28,0.00,,---,0.00,VWS V14.01,2013-03-03 21:03:00,
2013-03-03 15:04:00,72.1,37.2,29.87,SSE,165,14.0,24.0,28,0.00,,---,0.00,VWS V14.01,2013-03-03 21:04:00,
2013-03-03 15:05:00,72.2,37.3,29.87,SE,124,6.0,24.0,28,0.00,,---,0.00,VWS V14.01,2013-03-03 21:05:00,
2013-03-03 15:06:00,72.2,36.4,29.87,South,174,24.0,24.0,27,0.00,,---,0.00,VWS V14.01,2013-03-03 21:06:00,
2013-03-03 15:07:00,72.2,37.3,29.87,South,169,17.0,24.0,28,0.00,,---,0.00,VWS V14.01,2013-03-03 21:07:00,
2013-03-03 15:08:00,72.1,37.2,29.90,SSW,192,17.0,22.0,28,0.00,,---,0.00,VWS V14.01,2013-03-03 21:08:00,
2013-03-03 15:09:00,72.1,37.2,29.87,South,171,18.0,25.0,28,0.00,,---,0.00,VWS V14.01,2013-03-03 21:09:00,
2013-03-03 15:10:00,72.1,37.2,29.87,SSW,194,12.0,25.0,28,0.00,,---,0.00,VWS V14.01,2013-03-03 21:10:00,
2013-03-03 15:11:00,72.1,37.2,29.87,South,169,20.0,25.0,28,0.00,,---,0.00,VWS V14.01,2013-03-03 21:11:00,
2013-03-03 15:12:00,72.1,37.2,29.87,South,173,13.0,25.0,28,0.00,,---,0.00,VWS V14.01,2013-03-03 21:12:00,
2013-03-03 15:13:00,72.0,36.2,29.90,South,172,15.0,24.0,27,0.00,,---,0.00,VWS V14.01,2013-03-03 21:13:00,
2013-03-03 15:14:00,72.2,37.3,29.87,South,169,10.0,22.0,28,0.00,,---,0.00,VWS V14.01,2013-03-03 21:14:00,
2013-03-03 15:15:00,72.2,37.3,29.87,South,172,17.0,22.0,28,0.00,,---,0.00,VWS V14.01,2013-03-03 21:15:00,
2013-03-03 15:16:00,72.2,37.3,29.87,South,179,13.0,22.0,28,0.00,,---,0.00,VWS V14.01,2013-03-03 21:16:00,
2013-03-03 15:17:00,72.2,37.3,29.87,South,175,9.0,22.0,28,0.00,,---,0.00,VWS V14.01,2013-03-03 21:17:00,
2013-03-03 15:18:00,72.0,37.1,29.89,SSE,159,9.0,21.0,28,0.00,,---,0.00,VWS V14.01,2013-03-03 21:18:00,
2013-03-03 15:19:00,72.3,37.4,29.87,SE,140,4.0,20.0,28,0.00,,---,0.00,VWS V14.01,2013-03-03 21:19:00,
2013-03-03 15:20:00,72.3,37.4,29.87,South,180,11.0,20.0,28,0.00,,---,0.00,VWS V14.01,2013-03-03 21:20:00,
2013-03-03 15:21:00,72.3,37.4,29.87,South,178,15.0,20.0,28,0.00,,---,0.00,VWS V14.01,2013-03-03 21:21:00,
2013-03-03 15:22:00,72.3,37.4,29.87,SSE,166,13.0,20.0,28,0.00,,---,0.00,VWS V14.01,2013-03-03 21:22:00,
2013-03-03 15:23:00,72.1,37.2,29.89,South,184,15.0,22.0,28,0.00,,---,0.00,VWS V14.01,2013-03-03 21:23:00,
2013-03-03 15:24:00,72.3,37.4,29.87,South,178,8.0,18.0,28,0.00,,---,0.00,VWS V14.01,2013-03-03 21:24:00,
2013-03-03 15:25:00,72.2,38.2,29.87,South,187,9.0,20.0,29,0.00,,---,0.00,VWS V14.01,2013-03-03 21:25:00,
2013-03-03 15:26:00,72.2,37.3,29.86,South,182,11.0,20.0,28,0.00,,---,0.00,VWS V14.01,2013-03-03 21:26:00,
2013-03-03 15:27:00,72.2,37.3,29.86,South,171,18.0,20.0,28,0.00,,---,0.00,VWS V14.01,2013-03-03 21:27:00,
2013-03-03 15:28:00,72.2,36.4,29.89,SSE,167,9.0,22.0,27,0.00,,---,0.00,VWS V14.01,2013-03-03 21:28:00,
2013-03-03 15:29:00,72.2,37.3,29.86,SSE,149,10.0,20.0,28,0.00,,---,0.00,VWS V14.01,2013-03-03 21:29:00,
2013-03-03 15:31:00,72.2,37.3,29.86,South,188,17.0,21.0,28,0.00,,---,0.00,VWS V14.01,2013-03-03 21:31:00,
2013-03-03 15:32:00,72.2,37.3,29.85,SE,135,4.0,21.0,28,0.00,,---,0.00,VWS V14.01,2013-03-03 21:32:00,
2013-03-03 15:33:00,72.1,36.3,29.88,South,173,11.0,25.0,27,0.00,,---,0.00,VWS V14.01,2013-03-03 21:33:00,
2013-03-03 15:34:00,72.2,38.2,29.86,SE,137,7.0,21.0,29,0.00,,---,0.00,VWS V14.01,2013-03-03 21:34:00,
2013-03-03 15:35:00,72.1,37.2,29.86,South,180,12.0,21.0,28,0.00,,---,0.00,VWS V14.01,2013-03-03 21:35:00,
2013-03-03 15:36:00,72.1,37.2,29.86,South,178,23.0,23.0,28,0.00,,---,0.00,VWS V14.01,2013-03-03 21:36:00,
2013-03-03 15:37:00,72.1,37.2,29.85,SSE,159,13.0,25.0,28,0.00,,---,0.00,VWS V14.01,2013-03-03 21:37:00,
2013-03-03 15:38:00,72.0,36.2,29.88,SE,135,18.0,18.0,27,0.00,,---,0.00,VWS V14.01,2013-03-03 21:38:00,
2013-03-03 15:39:00,72.0,38.0,29.86,South,182,14.0,25.0,29,0.00,,---,0.00,VWS V14.01,2013-03-03 21:39:00,
2013-03-03 15:40:00,71.9,38.0,29.85,SE,140,5.0,25.0,29,0.00,,---,0.00,VWS V14.01,2013-03-03 21:40:00,
2013-03-03 15:41:00,71.9,38.0,29.85,South,186,19.0,25.0,29,0.00,,---,0.00,VWS V14.01,2013-03-03 21:41:00,
2013-03-03 15:42:00,71.8,37.9,29.85,SE,130,11.0,23.0,29,0.00,,---,0.00,VWS V14.01,2013-03-03 21:42:00,
2013-03-03 15:43:00,71.8,37.9,29.85,South,173,16.0,23.0,29,0.00,,---,0.00,VWS V14.01,2013-03-03 21:43:00,
2013-03-03 15:44:00,71.8,37.0,29.88,SSW,192,15.0,22.0,28,0.00,,---,0.00,VWS V14.01,2013-03-03 21:44:00,
2013-03-03 15:45:00,71.7,37.8,29.85,SSE,167,17.0,23.0,29,0.00,,---,0.00,VWS V14.01,2013-03-03 21:45:00,
2013-03-03 15:46:00,71.6,37.7,29.85,South,184,16.0,22.0,29,0.00,,---,0.00,VWS V14.01,2013-03-03 21:46:00,
2013-03-03 15:47:00,71.5,37.6,29.85,SSE,159,10.0,22.0,29,0.00,,---,0.00,VWS V14.01,2013-03-03 21:47:00,
2013-03-03 15:48:00,71.4,37.5,29.85,South,174,13.0,22.0,29,0.00,,---,0.00,VWS V14.01,2013-03-03 21:48:00,
2013-03-03 15:49:00,71.9,36.1,29.87,South,174,16.0,24.0,27,0.00,,---,0.00,VWS V14.01,2013-03-03 21:49:00,
2013-03-03 15:50:00,71.1,37.3,29.85,SE,128,11.0,25.0,29,0.00,,---,0.00,VWS V14.01,2013-03-03 21:50:00,
2013-03-03 15:51:00,71.1,37.3,29.85,South,170,19.0,25.0,29,0.00,,---,0.00,VWS V14.01,2013-03-03 21:51:00,
2013-03-03 15:53:00,70.8,37.9,29.85,South,178,11.0,25.0,30,0.00,,---,0.00,VWS V14.01,2013-03-03 21:53:00,
2013-03-03 15:54:00,72.0,37.1,29.87,SSE,154,17.0,19.0,28,0.00,,---,0.00,VWS V14.01,2013-03-03 21:54:00,
2013-03-03 15:55:00,70.8,37.9,29.85,South,183,9.0,25.0,30,0.00,,---,0.00,VWS V14.01,2013-03-03 21:55:00,
2013-03-03 15:56:00,70.8,38.7,29.85,SE,143,12.0,22.0,31,0.00,,---,0.00,VWS V14.01,2013-03-03 21:56:00,
2013-03-03 15:57:00,70.8,37.9,29.85,SSE,168,9.0,22.0,30,0.00,,---,0.00,VWS V14.01,2013-03-03 21:57:00,
2013-03-03 15:58:00,70.9,38.0,29.85,SE,146,5.0,22.0,30,0.00,,---,0.00,VWS V14.01,2013-03-03 21:58:00,
2013-03-03 15:59:00,72.1,37.2,29.87,South,170,10.0,24.0,28,0.00,,---,0.00,VWS V14.01,2013-03-03 21:59:00,
2013-03-03 16:00:00,71.0,38.9,29.85,South,175,18.0,21.0,31,0.00,,---,0.00,VWS V14.01,2013-03-03 22:00:00,
2013-03-03 16:01:00,71.0,38.0,29.84,SSE,157,14.0,21.0,30,0.00,,---,0.00,VWS V14.01,2013-03-03 22:01:00,
2013-03-03 16:02:00,71.1,38.1,29.85,South,172,6.0,21.0,30,0.00,,---,0.00,VWS V14.01,2013-03-03 22:02:00,
2013-03-03 16:03:00,71.1,38.1,29.84,SSE,162,16.0,22.0,30,0.00,,---,0.00,VWS V14.01,2013-03-03 22:03:00,
2013-03-03 16:04:00,72.2,36.4,29.87,South,175,19.0,25.0,27,0.00,,---,0.00,VWS V14.01,2013-03-03 22:04:00,
2013-03-03 16:05:00,71.1,38.1,29.84,South,184,18.0,22.0,30,0.00,,---,0.00,VWS V14.01,2013-03-03 22:05:00,
2013-03-03 16:06:00,71.1,38.1,29.84,South,188,19.0,23.0,30,0.00,,---,0.00,VWS V14.01,2013-03-03 22:06:00,
2013-03-03 16:07:00,71.1,38.1,29.84,South,184,13.0,23.0,30,0.00,,---,0.00,VWS V14.01,2013-03-03 22:07:00,
2013-03-03 16:08:00,71.2,38.2,29.84,SSE,163,5.0,23.0,30,0.00,,---,0.00,VWS V14.01,2013-03-03 22:08:00,
2013-03-03 16:09:00,72.2,37.3,29.87,South,180,21.0,22.0,28,0.00,,---,0.00,VWS V14.01,2013-03-03 22:09:00,
2013-03-03 16:10:00,71.1,39.0,29.84,SSE,153,13.0,23.0,31,0.00,,---,0.00,VWS V14.01,2013-03-03 22:10:00,
2013-03-03 16:11:00,71.1,38.1,29.84,SSE,167,7.0,23.0,30,0.00,,---,0.00,VWS V14.01,2013-03-03 22:11:00,
2013-03-03 16:12:00,71.1,38.1,29.84,SSE,159,17.0,20.0,30,0.00,,---,0.00,VWS V14.01,2013-03-03 22:12:00,
2013-03-03 16:13:00,71.0,38.9,29.84,SSE,165,14.0,20.0,31,0.00,,---,0.00,VWS V14.01,2013-03-03 22:13:00,
2013-03-03 16:14:00,72.2,37.3,29.87,SSE,161,11.0,21.0,28,0.00,,---,0.00,VWS V14.01,2013-03-03 22:14:00,
2013-03-03 16:15:00,70.9,38.8,29.84,SSE,159,3.0,20.0,31,0.00,,---,0.00,VWS V14.01,2013-03-03 22:15:00,
2013-03-03 16:16:00,70.8,38.7,29.84,SE,144,8.0,20.0,31,0.00,,---,0.00,VWS V14.01,2013-03-03 22:16:00,
2013-03-03 16:17:00,70.8,38.7,29.84,South,173,17.0,18.0,31,0.00,,---,0.00,VWS V14.01,2013-03-03 22:17:00,
2013-03-03 16:18:00,70.7,38.6,29.84,South,174,18.0,20.0,31,0.00,,---,0.00,VWS V14.01,2013-03-03 22:18:00,
2013-03-03 16:19:00,72.3,37.4,29.87,SSE,158,7.0,18.0,28,0.00,,---,0.00,VWS V14.01,2013-03-03 22:19:00,
2013-03-03 16:20:00,70.5,38.4,29.84,SSE,159,13.0,20.0,31,0.00,,---,0.00,VWS V14.01,2013-03-03 22:20:00,
2013-03-03 16:21:00,70.4,38.3,29.84,South,171,12.0,20.0,31,0.00,,---,0.00,VWS V14.01,2013-03-03 22:21:00,
2013-03-03 16:22:00,70.3,38.3,29.84,SSE,153,7.0,20.0,31,0.00,,---,0.00,VWS V14.01,2013-03-03 22:22:00,
2013-03-03 16:23:00,70.3,38.3,29.84,South,169,15.0,22.0,31,0.00,,---,0.00,VWS V14.01,2013-03-03 22:23:00,
2013-03-03 16:24:00,72.2,37.3,29.86,South,171,14.0,20.0,28,0.00,,---,0.00,VWS V14.01,2013-03-03 22:24:00,
2013-03-03 16:25:00,70.1,38.1,29.83,South,180,13.0,22.0,31,0.00,,---,0.00,VWS V14.01,2013-03-03 22:25:00,
2013-03-03 16:26:00,70.0,38.0,29.83,South,169,16.0,22.0,31,0.00,,---,0.00,VWS V14.01,2013-03-03 22:26:00,
2013-03-03 16:27:00,69.9,38.7,29.84,SSE,153,9.0,22.0,32,0.00,,---,0.00,VWS V14.01,2013-03-03 22:27:00,
2013-03-03 16:28:00,69.9,38.7,29.83,SSE,165,13.0,21.0,32,0.00,,---,0.00,VWS V14.01,2013-03-03 22:28:00,
2013-03-03 16:29:00,72.2,38.2,29.86,SSE,161,14.0,21.0,29,0.00,,---,0.00,VWS V14.01,2013-03-03 22:29:00,
2013-03-03 16:30:00,69.7,38.5,29.84,SSE,156,11.0,21.0,32,0.00,,---,0.00,VWS V14.01,2013-03-03 22:30:00,
2013-03-03 16:31:00,69.7,38.5,29.83,South,176,14.0,20.0,32,0.00,,---,0.00,VWS V14.01,2013-03-03 22:31:00,
2013-03-03 16:33:00,69.6,38.5,29.83,South,172,16.0,20.0,32,0.00,,---,0.00,VWS V14.01,2013-03-03 22:33:00,
2013-03-03 16:34:00,72.0,37.1,29.86,South,178,16.0,25.0,28,0.00,,---,0.00,VWS V14.01,2013-03-03 22:34:00,
2013-03-03 16:35:00,69.5,38.4,29.84,South,178,17.0,20.0,32,0.00,,---,0.00,VWS V14.01,2013-03-03 22:35:00,
2013-03-03 16:36:00,69.6,38.5,29.84,SSE,166,13.0,20.0,32,0.00,,---,0.00,VWS V14.01,2013-03-03 22:36:00,
2013-03-03 16:37:00,69.6,38.5,29.83,South,185,16.0,20.0,32,0.00,,---,0.00,VWS V14.01,2013-03-03 22:37:00,
2013-03-03 16:38:00,69.5,38.4,29.83,SSE,168,16.0,23.0,32,0.00,,---,0.00,VWS V14.01,2013-03-03 22:38:00,
2013-03-03 16:39:00,71.7,37.8,29.85,South,187,15.0,23.0,29,0.00,,---,0.00,VWS V14.01,2013-03-03 22:39:00,
2013-03-03 16:40:00,69.5,39.2,29.83,SE,144,6.0,23.0,33,0.00,,---,0.00,VWS V14.01,2013-03-03 22:40:00,
2013-03-03 16:41:00,69.5,39.2,29.84,South,175,15.0,23.0,33,0.00,,---,0.00,VWS V14.01,2013-03-03 22:41:00,
2013-03-03 16:42:00,69.5,39.2,29.83,SE,144,1.0,23.0,33,0.00,,---,0.00,VWS V14.01,2013-03-03 22:42:00,
2013-03-03 16:43:00,69.5,39.2,29.84,South,175,13.0,18.0,33,0.00,,---,0.00,VWS V14.01,2013-03-03 22:43:00,
2013-03-03 16:44:00,71.4,37.5,29.85,SSE,151,14.0,22.0,29,0.00,,---,0.00,VWS V14.01,2013-03-03 22:44:00,
2013-03-03 16:45:00,69.5,39.2,29.83,SSE,157,6.0,18.0,33,0.00,,---,0.00,VWS V14.01,2013-03-03 22:45:00,
2013-03-03 16:46:00,69.4,39.1,29.83,SSE,153,6.0,18.0,33,0.00,,---,0.00,VWS V14.01,2013-03-03 22:46:00,
2013-03-03 16:47:00,69.5,39.2,29.83,SE,142,3.0,18.0,33,0.00,,---,0.00,VWS V14.01,2013-03-03 22:47:00,
2013-03-03 16:48:00,69.5,39.2,29.83,SSE,155,9.0,18.0,33,0.00,,---,0.00,VWS V14.01,2013-03-03 22:48:00,
2013-03-03 16:49:00,70.8,37.9,29.85,South,175,16.0,25.0,30,0.00,,---,0.00,VWS V14.01,2013-03-03 22:49:00,
2013-03-03 16:50:00,69.5,39.2,29.83,South,179,17.0,22.0,33,0.00,,---,0.00,VWS V14.01,2013-03-03 22:50:00,
2013-03-03 16:51:00,69.5,39.2,29.83,SE,138,4.0,22.0,33,0.00,,---,0.00,VWS V14.01,2013-03-03 22:51:00,
2013-03-03 16:52:00,69.5,39.2,29.83,SE,140,9.0,22.0,33,0.00,,---,0.00,VWS V14.01,2013-03-03 22:52:00,
2013-03-03 16:53:00,69.5,39.2,29.83,SSE,155,16.0,22.0,33,0.00,,---,0.00,VWS V14.01,2013-03-03 22:53:00,
2013-03-03 16:54:00,70.9,38.0,29.85,SSE,164,7.0,22.0,30,0.00,,---,0.00,VWS V14.01,2013-03-03 22:54:00,
2013-03-03 16:55:00,69.5,39.2,29.83,South,174,5.0,17.0,33,0.00,,---,0.00,VWS V14.01,2013-03-03 22:55:00,
2013-03-03 16:56:00,69.5,39.2,29.83,South,171,15.0,17.0,33,0.00,,---,0.00,VWS V14.01,2013-03-03 22:56:00,
2013-03-03 16:57:00,69.5,39.2,29.83,SSE,162,11.0,17.0,33,0.00,,---,0.00,VWS V14.01,2013-03-03 22:57:00,
2013-03-03 16:58:00,69.4,39.1,29.83,SE,141,2.0,17.0,33,0.00,,---,0.00,VWS V14.01,2013-03-03 22:58:00,
2013-03-03 16:59:00,71.1,38.1,29.84,South,174,18.0,22.0,30,0.00,,---,0.00,VWS V14.01,2013-03-03 22:59:00,
2013-03-03 17:00:00,69.3,39.0,29.83,South,171,13.0,21.0,33,0.00,,---,0.00,VWS V14.01,2013-03-03 23:00:00,
2013-03-03 17:01:00,69.3,39.0,29.83,South,185,14.0,21.0,33,0.00,,---,0.00,VWS V14.01,2013-03-03 23:01:00,
2013-03-03 17:02:00,69.2,38.9,29.83,SSE,163,15.0,21.0,33,0.00,,---,0.00,VWS V14.01,2013-03-03 23:02:00,
2013-03-03 17:03:00,69.1,38.8,29.83,SE,139,2.0,21.0,33,0.00,,---,0.00,VWS V14.01,2013-03-03 23:03:00,
2013-03-03 17:04:00,71.1,38.1,29.84,South,181,14.0,23.0,30,0.00,,---,0.00,VWS V14.01,2013-03-03 23:04:00,
2013-03-03 17:05:00,69.0,38.7,29.83,South,172,12.0,16.0,33,0.00,,---,0.00,VWS V14.01,2013-03-03 23:05:00,
2013-03-03 17:06:00,69.0,38.7,29.83,South,171,10.0,16.0,33,0.00,,---,0.00,VWS V14.01,2013-03-03 23:06:00,
2013-03-03 17:07:00,69.0,38.7,29.83,SSE,165,6.0,15.0,33,0.00,,---,0.00,VWS V14.01,2013-03-03 23:07:00,
2013-03-03 17:08:00,68.9,38.6,29.83,SE,146,6.0,15.0,33,0.00,,---,0.00,VWS V14.01,2013-03-03 23:08:00,
2013-03-03 17:09:00,71.0,38.9,29.84,SE,145,5.0,20.0,31,0.00,,---,0.00,VWS V14.01,2013-03-03 23:09:00,
2013-03-03 17:10:00,68.8,38.5,29.83,SSE,166,6.0,16.0,33,0.00,,---,0.00,VWS V14.01,2013-03-03 23:10:00,
2013-03-03 17:11:00,68.7,38.5,29.82,SSE,149,3.0,16.0,33,0.00,,---,0.00,VWS V14.01,2013-03-03 23:11:00,
2013-03-03 17:12:00,68.6,38.4,29.82,SSE,165,12.0,16.0,33,0.00,,---,0.00,VWS V14.01,2013-03-03 23:12:00,
2013-03-03 17:13:00,68.6,38.4,29.82,South,170,9.0,16.0,33,0.00,,---,0.00,VWS V14.01,2013-03-03 23:13:00,
2013-03-03 17:14:00,70.6,38.5,29.84,SE,145,4.0,20.0,31,0.00,,---,0.00,VWS V14.01,2013-03-03 23:14:00,
2013-03-03 17:15:00,68.5,39.0,29.82,SSE,167,12.0,15.0,34,0.00,,---,0.00,VWS V14.01,2013-03-03 23:15:00,
2013-03-03 17:16:00,68.5,39.0,29.82,South,172,13.0,14.0,34,0.00,,---,0.00,VWS V14.01,2013-03-03 23:16:00,
2013-03-03 17:17:00,68.4,39.0,29.82,SSE,168,6.0,13.0,34,0.00,,---,0.00,VWS V14.01,2013-03-03 23:17:00,
2013-03-03 17:18:00,68.3,38.9,29.82,SSE,150,1.0,13.0,34,0.00,,---,0.00,VWS V14.01,2013-03-03 23:18:00,
2013-03-03 17:19:00,70.2,38.2,29.84,South,170,4.0,22.0,31,0.00,,---,0.00,VWS V14.01,2013-03-03 23:19:00,
2013-03-03 17:20:00,68.2,38.8,29.82,South,175,10.0,15.0,34,0.00,,---,0.00,VWS V14.01,2013-03-03 23:20:00,
2013-03-03 17:21:00,68.1,38.7,29.81,SSE,165,5.0,18.0,34,0.00,,---,0.00,VWS V14.01,2013-03-03 23:21:00,
2013-03-03 17:22:00,68.1,38.7,29.81,SSE,147,3.0,18.0,34,0.00,,---,0.00,VWS V14.01,2013-03-03 23:22:00,
2013-03-03 17:23:00,68.0,38.6,29.81,SSE,158,10.0,18.0,34,0.00,,---,0.00,VWS V14.01,2013-03-03 23:23:00,
2013-03-03 17:24:00,69.8,38.6,29.84,South,180,12.0,21.0,32,0.00,,---,0.00,VWS V14.01,2013-03-03 23:24:00,
2013-03-03 17:25:00,67.9,38.5,29.81,SSE,150,9.0,18.0,34,0.00,,---,0.00,VWS V14.01,2013-03-03 23:25:00,
2013-03-03 17:26:00,67.9,38.5,29.81,SE,139,4.0,15.0,34,0.00,,---,0.00,VWS V14.01,2013-03-03 23:26:00,
2013-03-03 17:27:00,67.9,38.5,29.81,SSE,164,6.0,15.0,34,0.00,,---,0.00,VWS V14.01,2013-03-03 23:27:00,
2013-03-03 17:28:00,67.8,38.4,29.81,SSE,158,9.0,17.0,34,0.00,,---,0.00,VWS V14.01,2013-03-03 23:28:00,
2013-03-03 17:29:00,69.6,38.5,29.84,SE,140,7.0,20.0,32,0.00,,---,0.00,VWS V14.01,2013-03-03 23:29:00,
2013-03-03 17:30:00,67.7,38.3,29.81,SSE,166,14.0,20.0,34,0.00,,---,0.00,VWS V14.01,2013-03-03 23:30:00,
2013-03-03 17:31:00,67.7,38.3,29.81,SSE,147,15.0,20.0,34,0.00,,---,0.00,VWS V14.01,2013-03-03 23:31:00,
2013-03-03 17:32:00,67.7,38.3,29.81,South,182,6.0,20.0,34,0.00,,---,0.00,VWS V14.01,2013-03-03 23:32:00,
2013-03-03 17:33:00,67.6,38.3,29.81,SE,139,6.0,20.0,34,0.00,,---,0.00,VWS V14.01,2013-03-03 23:33:00,
2013-03-03 17:34:00,69.5,39.2,29.83,SSE,167,14.0,23.0,33,0.00,,---,0.00,VWS V14.01,2013-03-03 23:34:00,
2013-03-03 17:35:00,67.6,38.3,29.81,SSE,157,10.0,19.0,34,0.00,,---,0.00,VWS V14.01,2013-03-03 23:35:00,
2013-03-03 17:36:00,67.5,38.2,29.81,SE,144,6.0,19.0,34,0.00,,---,0.00,VWS V14.01,2013-03-03 23:36:00,
2013-03-03 17:37:00,67.5,38.2,29.81,SSE,161,11.0,19.0,34,0.00,,---,0.00,VWS V14.01,2013-03-03 23:37:00,
2013-03-03 17:38:00,67.5,38.2,29.81,SSE,163,11.0,19.0,34,0.00,,---,0.00,VWS V14.01,2013-03-03 23:38:00,
2013-03-03 17:39:00,69.5,39.2,29.83,SSE,148,10.0,18.0,33,0.00,,---,0.00,VWS V14.01,2013-03-03 23:39:00,
2013-03-03 17:40:00,67.4,38.8,29.81,SSE,149,1.0,18.0,35,0.00,,---,0.00,VWS V14.01,2013-03-03 23:40:00,
2013-03-03 17:41:00,67.4,38.8,29.81,SSE,151,5.0,18.0,35,0.00,,---,0.00,VWS V14.01,2013-03-03 23:41:00,
2013-03-03 17:42:00,67.3,38.7,29.81,SSE,153,4.0,13.0,35,0.00,,---,0.00,VWS V14.01,2013-03-03 23:42:00,
2013-03-03 17:43:00,67.3,38.7,29.81,SSE,165,1.0,13.0,35,0.00,,---,0.00,VWS V14.01,2013-03-03 23:43:00,
2013-03-03 17:44:00,69.5,39.2,29.83,South,175,18.0,18.0,33,0.00,,---,0.00,VWS V14.01,2013-03-03 23:44:00,
2013-03-03 17:45:00,67.2,38.7,29.81,SSE,162,1.0,17.0,35,0.00,,---,0.00,VWS V14.01,2013-03-03 23:45:00,
2013-03-03 17:46:00,67.2,38.7,29.81,SSE,159,4.0,17.0,35,0.00,,---,0.00,VWS V14.01,2013-03-03 23:46:00,
2013-03-03 17:47:00,67.1,38.6,29.81,SSE,166,12.0,17.0,35,0.00,,---,0.00,VWS V14.01,2013-03-03 23:47:00,
2013-03-03 17:48:00,67.1,38.6,29.81,SSE,148,6.0,17.0,35,0.00,,---,0.00,VWS V14.01,2013-03-03 23:48:00,
2013-03-03 17:49:00,69.5,39.2,29.83,South,171,9.0,22.0,33,0.00,,---,0.00,VWS V14.01,2013-03-03 23:49:00,
2013-03-03 17:50:00,67.0,38.5,29.81,South,173,12.0,17.0,35,0.00,,---,0.00,VWS V14.01,2013-03-03 23:50:00,
2013-03-03 17:51:00,67.0,38.5,29.81,SSE,152,2.0,17.0,35,0.00,,---,0.00,VWS V14.01,2013-03-03 23:51:00,
2013-03-03 17:52:00,67.0,38.5,29.80,SSE,151,9.0,17.0,35,0.00,,---,0.00,VWS V14.01,2013-03-03 23:52:00,
2013-03-03 17:53:00,66.9,38.4,29.80,SSE,168,14.0,16.0,35,0.00,,---,0.00,VWS V14.01,2013-03-03 23:53:00,
2013-03-03 17:54:00,69.4,39.1,29.83,SE,138,3.0,16.0,33,0.00,,---,0.00,VWS V14.01,2013-03-03 23:54:00,
2013-03-03 17:55:00,66.9,38.4,29.80,SSE,167,12.0,18.0,35,0.00,,---,0.00,VWS V14.01,2013-03-03 23:55:00,
2013-03-03 17:56:00,66.8,38.3,29.80,SSE,168,11.0,18.0,35,0.00,,---,0.00,VWS V14.01,2013-03-03 23:56:00,
2013-03-03 17:57:00,66.8,38.3,29.80,SSE,160,5.0,18.0,35,0.00,,---,0.00,VWS V14.01,2013-03-03 23:57:00,
2013-03-03 17:58:00,66.8,38.3,29.80,SE,136,10.0,18.0,35,0.00,,---,0.00,VWS V14.01,2013-03-03 23:58:00,
2013-03-03 17:59:00,69.1,38.8,29.83,South,171,6.0,21.0,33,0.00,,---,0.00,VWS V14.01,2013-03-03 23:59:00,
2013-03-03 18:00:00,66.8,38.3,29.80,SE,146,3.0,17.0,35,0.00,,---,0.00,VWS V14.01,2013-03-04 00:00:00,
2013-03-03 18:01:00,66.7,38.2,29.80,SSE,162,10.0,17.0,35,0.00,,---,0.00,VWS V14.01,2013-03-04 00:01:00,
2013-03-03 18:02:00,66.7,38.2,29.80,SSE,148,5.0,15.0,35,0.00,,---,0.00,VWS V14.01,2013-03-04 00:02:00,
2013-03-03 18:03:00,66.7,38.2,29.80,SSE,166,13.0,15.0,35,0.00,,---,0.00,VWS V14.01,2013-03-04 00:03:00,
2013-03-03 18:04:00,68.9,38.6,29.83,South,175,11.0,15.0,33,0.00,,---,0.00,VWS V14.01,2013-03-04 00:04:00,
2013-03-03 18:05:00,66.6,38.8,29.80,SSE,150,6.0,15.0,36,0.00,,---,0.00,VWS V14.01,2013-03-04 00:05:00,
2013-03-03 18:06:00,66.6,38.8,29.80,South,169,13.0,15.0,36,0.00,,---,0.00,VWS V14.01,2013-03-04 00:06:00,
2013-03-03 18:07:00,66.6,38.8,29.80,SSE,150,2.0,15.0,36,0.00,,---,0.00,VWS V14.01,2013-03-04 00:07:00,
2013-03-03 18:08:00,66.5,38.8,29.80,SSE,147,7.0,15.0,36,0.00,,---,0.00,VWS V14.01,2013-03-04 00:08:00,
2013-03-03 18:09:00,68.5,38.3,29.82,SSE,155,7.0,16.0,33,0.00,,---,0.00,VWS V14.01,2013-03-04 00:09:00,
2013-03-03 18:10:00,66.5,38.8,29.79,SSE,163,13.0,17.0,36,0.00,,---,0.00,VWS V14.01,2013-03-04 00:10:00,
2013-03-03 18:11:00,66.5,38.8,29.80,SSE,167,12.0,17.0,36,0.00,,---,0.00,VWS V14.01,2013-03-04 00:11:00,
2013-03-03 18:12:00,66.4,38.7,29.79,SSE,149,11.0,17.0,36,0.00,,---,0.00,VWS V14.01,2013-03-04 00:12:00,
2013-03-03 18:13:00,66.4,38.7,29.79,SSE,167,14.0,17.0,36,0.00,,---,0.00,VWS V14.01,2013-03-04 00:13:00,
2013-03-03 18:14:00,68.3,38.9,29.82,SSE,155,9.0,13.0,34,0.00,,---,0.00,VWS V14.01,2013-03-04 00:14:00,
2013-03-03 18:15:00,66.3,38.6,29.79,SE,133,5.0,16.0,36,0.00,,---,0.00,VWS V14.01,2013-03-04 00:15:00,
2013-03-03 18:16:00,66.3,38.6,29.79,SSE,168,11.0,16.0,36,0.00,,---,0.00,VWS V14.01,2013-03-04 00:16:00,
2013-03-03 18:17:00,66.3,38.6,29.79,SSE,161,6.0,16.0,36,0.00,,---,0.00,VWS V14.01,2013-03-04 00:17:00,
2013-03-03 18:18:00,66.2,38.5,29.79,South,175,12.0,16.0,36,0.00,,---,0.00,VWS V14.01,2013-03-04 00:18:00,
2013-03-03 18:19:00,68.0,38.6,29.81,SSE,168,10.0,18.0,34,0.00,,---,0.00,VWS V14.01,2013-03-04 00:19:00,
2013-03-03 18:20:00,66.2,38.5,29.79,SSE,164,6.0,16.0,36,0.00,,---,0.00,VWS V14.01,2013-03-04 00:20:00,
2013-03-03 18:21:00,66.1,38.4,29.79,SSE,166,9.0,16.0,36,0.00,,---,0.00,VWS V14.01,2013-03-04 00:21:00,
2013-03-03 18:22:00,66.1,38.4,29.80,SSE,165,7.0,16.0,36,0.00,,---,0.00,VWS V14.01,2013-03-04 00:22:00,
2013-03-03 18:23:00,66.1,38.4,29.79,South,174,15.0,21.0,36,0.00,,---,0.00,VWS V14.01,2013-03-04 00:23:00,
2013-03-03 18:24:00,67.8,38.4,29.81,South,173,13.0,17.0,34,0.00,,---,0.00,VWS V14.01,2013-03-04 00:24:00,
2013-03-03 18:25:00,66.1,39.1,29.80,South,175,11.0,21.0,37,0.00,,---,0.00,VWS V14.01,2013-03-04 00:25:00,
2013-03-03 18:26:00,66.0,39.0,29.80,SE,136,12.0,21.0,37,0.00,,---,0.00,VWS V14.01,2013-03-04 00:26:00,
2013-03-03 18:27:00,65.9,38.9,29.80,SSE,165,15.0,21.0,37,0.00,,---,0.00,VWS V14.01,2013-03-04 00:27:00,
2013-03-03 18:28:00,65.9,38.9,29.79,SSE,159,7.0,17.0,37,0.00,,---,0.00,VWS V14.01,2013-03-04 00:28:00,
2013-03-03 18:29:00,67.6,38.3,29.81,SE,140,5.0,20.0,34,0.00,,---,0.00,VWS V14.01,2013-03-04 00:29:00,
2013-03-03 18:30:00,65.8,38.8,29.79,South,172,11.0,18.0,37,0.00,,---,0.00,VWS V14.01,2013-03-04 00:30:00,
2013-03-03 18:31:00,65.8,38.8,29.79,SSE,150,2.0,18.0,37,0.00,,---,0.00,VWS V14.01,2013-03-04 00:31:00,
2013-03-03 18:32:00,65.8,38.8,29.79,SSE,167,14.0,18.0,37,0.00,,---,0.00,VWS V14.01,2013-03-04 00:32:00,
2013-03-03 18:33:00,65.7,38.7,29.79,SSE,159,8.0,18.0,37,0.00,,---,0.00,VWS V14.01,2013-03-04 00:33:00,
2013-03-03 18:34:00,67.5,38.9,29.81,SE,146,5.0,19.0,35,0.00,,---,0.00,VWS V14.01,2013-03-04 00:34:00,
2013-03-03 18:35:00,65.7,38.7,29.79,South,177,11.0,18.0,37,0.00,,---,0.00,VWS V14.01,2013-03-04 00:35:00,
2013-03-03 18:36:00,65.7,38.7,29.80,SE,144,3.0,18.0,37,0.00,,---,0.00,VWS V14.01,2013-03-04 00:36:00,
2013-03-03 18:37:00,65.6,38.7,29.80,South,169,10.0,18.0,37,0.00,,---,0.00,VWS V14.01,2013-03-04 00:37:00,
2013-03-03 18:38:00,65.6,38.7,29.80,SSE,158,19.0,19.0,37,0.00,,---,0.00,VWS V14.01,2013-03-04 00:38:00,
2013-03-03 18:39:00,67.3,38.7,29.81,SE,140,2.0,13.0,35,0.00,,---,0.00,VWS V14.01,2013-03-04 00:39:00,
2013-03-03 18:40:00,65.6,38.7,29.79,SSE,167,6.0,19.0,37,0.00,,---,0.00,VWS V14.01,2013-03-04 00:40:00,
2013-03-03 18:41:00,65.6,38.7,29.79,South,176,14.0,19.0,37,0.00,,---,0.00,VWS V14.01,2013-03-04 00:41:00,
2013-03-03 18:42:00,65.5,38.6,29.79,South,173,8.0,19.0,37,0.00,,---,0.00,VWS V14.01,2013-03-04 00:42:00,
2013-03-03 18:43:00,65.5,38.6,29.79,SE,146,6.0,19.0,37,0.00,,---,0.00,VWS V14.01,2013-03-04 00:43:00,
2013-03-03 18:44:00,67.1,38.6,29.81,SSE,157,15.0,17.0,35,0.00,,---,0.00,VWS V14.01,2013-03-04 00:44:00,
2013-03-03 18:45:00,65.5,38.6,29.80,SSE,160,7.0,17.0,37,0.00,,---,0.00,VWS V14.01,2013-03-04 00:45:00,
2013-03-03 18:46:00,65.5,38.6,29.80,SSE,153,10.0,19.0,37,0.00,,---,0.00,VWS V14.01,2013-03-04 00:46:00,
2013-03-03 18:47:00,65.5,38.6,29.80,SSE,148,6.0,19.0,37,0.00,,---,0.00,VWS V14.01,2013-03-04 00:47:00,
2013-03-03 18:48:00,65.5,38.6,29.80,South,172,13.0,19.0,37,0.00,,---,0.00,VWS V14.01,2013-03-04 00:48:00,
2013-03-03 18:49:00,66.9,38.4,29.80,South,169,12.0,18.0,35,0.00,,---,0.00,VWS V14.01,2013-03-04 00:49:00,
2013-03-03 18:50:00,65.4,38.5,29.79,South,173,14.0,21.0,37,0.00,,---,0.00,VWS V14.01,2013-03-04 00:50:00,
2013-03-03 18:51:00,65.4,38.5,29.79,SSE,159,5.0,21.0,37,0.00,,---,0.00,VWS V14.01,2013-03-04 00:51:00,
2013-03-03 18:52:00,65.4,38.5,29.79,SE,132,5.0,21.0,37,0.00,,---,0.00,VWS V14.01,2013-03-04 00:52:00,
2013-03-03 18:53:00,65.4,38.5,29.79,South,169,12.0,21.0,37,0.00,,---,0.00,VWS V14.01,2013-03-04 00:53:00,
2013-03-03 18:54:00,66.8,38.3,29.80,South,171,10.0,17.0,35,0.00,,---,0.00,VWS V14.01,2013-03-04 00:54:00,
2013-03-03 18:55:00,65.4,38.5,29.79,South,169,12.0,18.0,37,0.00,,---,0.00,VWS V14.01,2013-03-04 00:55:00,
2013-03-03 18:56:00,65.4,38.5,29.79,South,171,10.0,18.0,37,0.00,,---,0.00,VWS V14.01,2013-03-04 00:56:00,
2013-03-03 18:57:00,65.3,38.4,29.79,SSE,154,7.0,18.0,37,0.00,,---,0.00,VWS V14.01,2013-03-04 00:57:00,
2013-03-03 18:58:00,65.3,38.4,29.79,SE,136,4.0,20.0,37,0.00,,---,0.00,VWS V14.01,2013-03-04 00:58:00,
2013-03-03 18:59:00,66.7,38.2,29.80,SSE,148,10.0,15.0,35,0.00,,---,0.00,VWS V14.01,2013-03-04 00:59:00,
2013-03-03 19:00:00,65.3,39.1,29.79,South,175,11.0,20.0,38,0.00,,---,0.00,VWS V14.01,2013-03-04 01:00:00,
2013-03-03 19:01:00,65.2,39.0,29.79,South,171,16.0,20.0,38,0.00,,---,0.00,VWS V14.01,2013-03-04 01:01:00,
2013-03-03 19:02:00,65.2,39.0,29.79,South,176,15.0,20.0,38,0.00,,---,0.00,VWS V14.01,2013-03-04 01:02:00,
2013-03-03 19:03:00,65.2,39.0,29.80,SSE,159,3.0,17.0,38,0.00,,---,0.00,VWS V14.01,2013-03-04 01:03:00,
2013-03-03 19:04:00,66.5,38.8,29.80,SE,131,11.0,15.0,36,0.00,,---,0.00,VWS V14.01,2013-03-04 01:04:00,
2013-03-03 19:05:00,65.1,38.9,29.80,SSE,167,7.0,17.0,38,0.00,,---,0.00,VWS V14.01,2013-03-04 01:05:00,
2013-03-03 19:06:00,65.1,38.9,29.79,SSE,152,11.0,17.0,38,0.00,,---,0.00,VWS V14.01,2013-03-04 01:06:00,
2013-03-03 19:07:00,65.0,38.8,29.79,SSE,157,5.0,17.0,38,0.00,,---,0.00,VWS V14.01,2013-03-04 01:07:00,
2013-03-03 19:08:00,65.0,38.8,29.80,SSE,155,12.0,15.0,38,0.00,,---,0.00,VWS V14.01,2013-03-04 01:08:00,
2013-03-03 19:09:00,66.3,38.6,29.79,SSE,161,16.0,17.0,36,0.00,,---,0.00,VWS V14.01,2013-03-04 01:09:00,
2013-03-03 19:10:00,65.0,38.8,29.79,South,169,11.0,16.0,38,0.00,,---,0.00,VWS V14.01,2013-03-04 01:10:00,
2013-03-03 19:11:00,64.9,38.7,29.80,South,175,9.0,16.0,38,0.00,,---,0.00,VWS V14.01,2013-03-04 01:11:00,
2013-03-03 19:12:00,64.9,38.7,29.80,South,169,16.0,16.0,38,0.00,,---,0.00,VWS V14.01,2013-03-04 01:12:00,
2013-03-03 19:13:00,64.9,38.7,29.80,SE,144,5.0,16.0,38,0.00,,---,0.00,VWS V14.01,2013-03-04 01:13:00,
2013-03-03 19:14:00,66.2,38.5,29.79,SSE,156,6.0,16.0,36,0.00,,---,0.00,VWS V14.01,2013-03-04 01:14:00,
2013-03-03 19:15:00,64.8,38.6,29.80,South,170,6.0,17.0,38,0.00,,---,0.00,VWS V14.01,2013-03-04 01:15:00,
2013-03-03 19:16:00,64.7,38.5,29.80,SSE,155,5.0,17.0,38,0.00,,---,0.00,VWS V14.01,2013-03-04 01:16:00,
2013-03-03 19:17:00,64.7,38.5,29.80,SSE,158,6.0,17.0,38,0.00,,---,0.00,VWS V14.01,2013-03-04 01:17:00,
2013-03-03 19:18:00,64.7,38.5,29.80,SSE,157,10.0,17.0,38,0.00,,---,0.00,VWS V14.01,2013-03-04 01:18:00,
2013-03-03 19:19:00,66.1,39.1,29.79,SSE,155,4.0,21.0,37,0.00,,---,0.00,VWS V14.01,2013-03-04 01:19:00,
2013-03-03 19:20:00,64.6,38.4,29.80,South,180,11.0,17.0,38,0.00,,---,0.00,VWS V14.01,2013-03-04 01:20:00,
2013-03-03 19:21:00,64.6,38.4,29.80,SE,140,4.0,17.0,38,0.00,,---,0.00,VWS V14.01,2013-03-04 01:21:00,
2013-03-03 19:22:00,64.6,38.4,29.80,SSE,159,5.0,17.0,38,0.00,,---,0.00,VWS V14.01,2013-03-04 01:22:00,
2013-03-03 19:23:00,64.6,38.4,29.80,SSE,163,2.0,17.0,38,0.00,,---,0.00,VWS V14.01,2013-03-04 01:23:00,
2013-03-03 19:24:00,65.8,38.8,29.79,SSE,158,5.0,17.0,37,0.00,,---,0.00,VWS V14.01,2013-03-04 01:24:00,
2013-03-03 19:25:00,64.5,38.3,29.80,SSE,161,9.0,16.0,38,0.00,,---,0.00,VWS V14.01,2013-03-04 01:25:00,
2013-03-03 19:26:00,64.5,38.3,29.80,SSE,163,7.0,16.0,38,0.00,,---,0.00,VWS V14.01,2013-03-04 01:26:00,
2013-03-03 19:27:00,64.5,39.0,29.80,South,169,6.0,15.0,39,0.00,,---,0.00,VWS V14.01,2013-03-04 01:27:00,
2013-03-03 19:28:00,64.4,38.9,29.80,SSE,160,5.0,15.0,39,0.00,,---,0.00,VWS V14.01,2013-03-04 01:28:00,
2013-03-03 19:29:00,65.7,38.7,29.80,SSE,162,10.0,18.0,37,0.00,,---,0.00,VWS V14.01,2013-03-04 01:29:00,
2013-03-03 19:30:00,64.4,38.9,29.80,South,169,4.0,15.0,39,0.00,,---,0.00,VWS V14.01,2013-03-04 01:30:00,
2013-03-03 19:31:00,64.3,38.8,29.80,SSE,168,8.0,14.0,39,0.00,,---,0.00,VWS V14.01,2013-03-04 01:31:00,
2013-03-03 19:32:00,64.3,38.8,29.80,SSW,193,15.0,15.0,39,0.00,,---,0.00,VWS V14.01,2013-03-04 01:32:00,
2013-03-03 19:33:00,64.3,38.8,29.80,SE,141,6.0,15.0,39,0.00,,---,0.00,VWS V14.01,2013-03-04 01:33:00,
2013-03-03 19:34:00,65.6,38.7,29.80,South,184,12.0,19.0,37,0.00,,---,0.00,VWS V14.01,2013-03-04 01:34:00,
2013-03-03 19:35:00,64.2,38.8,29.80,SE,133,7.0,15.0,39,0.00,,---,0.00,VWS V14.01,2013-03-04 01:35:00,
2013-03-03 19:36:00,64.2,38.8,29.80,South,173,14.0,15.0,39,0.00,,---,0.00,VWS V14.01,2013-03-04 01:36:00,
2013-03-03 19:38:00,64.1,38.7,29.80,South,169,7.0,14.0,39,0.00,,---,0.00,VWS V14.01,2013-03-04 01:38:00,
2013-03-03 19:39:00,65.5,38.6,29.79,SSE,147,11.0,17.0,37,0.00,,---,0.00,VWS V14.01,2013-03-04 01:39:00,
2013-03-03 19:40:00,64.0,38.6,29.80,SSE,164,6.0,14.0,39,0.00,,---,0.00,VWS V14.01,2013-03-04 01:40:00,
2013-03-03 19:41:00,64.0,38.6,29.80,SSE,159,9.0,14.0,39,0.00,,---,0.00,VWS V14.01,2013-03-04 01:41:00,
2013-03-03 19:42:00,64.0,39.2,29.80,SSE,162,5.0,13.0,40,0.00,,---,0.00,VWS V14.01,2013-03-04 01:42:00,
2013-03-03 19:43:00,63.9,39.1,29.80,SE,141,2.0,13.0,40,0.00,,---,0.00,VWS V14.01,2013-03-04 01:43:00,
2013-03-03 19:44:00,65.4,38.5,29.80,SSE,161,7.0,19.0,37,0.00,,---,0.00,VWS V14.01,2013-03-04 01:44:00,
2013-03-03 19:45:00,63.9,39.1,29.80,SSE,161,9.0,13.0,40,0.00,,---,0.00,VWS V14.01,2013-03-04 01:45:00,
2013-03-03 19:46:00,63.9,39.1,29.80,SE,142,6.0,13.0,40,0.00,,---,0.00,VWS V14.01,2013-03-04 01:46:00,
2013-03-03 19:47:00,63.8,39.0,29.80,SSE,167,11.0,14.0,40,0.00,,---,0.00,VWS V14.01,2013-03-04 01:47:00,
2013-03-03 19:48:00,63.8,39.0,29.80,SSE,158,3.0,14.0,40,0.00,,---,0.00,VWS V14.01,2013-03-04 01:48:00,
2013-03-03 19:49:00,65.4,38.5,29.79,South,177,12.0,21.0,37,0.00,,---,0.00,VWS V14.01,2013-03-04 01:49:00,
2013-03-03 19:50:00,63.8,39.0,29.80,SE,146,6.0,16.0,40,0.00,,---,0.00,VWS V14.01,2013-03-04 01:50:00,
2013-03-03 19:51:00,63.8,39.0,29.80,SE,140,5.0,16.0,40,0.00,,---,0.00,VWS V14.01,2013-03-04 01:51:00,
2013-03-03 19:52:00,63.8,39.0,29.80,SSE,166,4.0,16.0,40,0.00,,---,0.00,VWS V14.01,2013-03-04 01:52:00,
2013-03-03 19:53:00,63.8,39.0,29.80,SSE,168,6.0,16.0,40,0.00,,---,0.00,VWS V14.01,2013-03-04 01:53:00,
2013-03-03 19:54:00,65.3,38.4,29.79,South,181,13.0,20.0,37,0.00,,---,0.00,VWS V14.01,2013-03-04 01:54:00,
2013-03-03 19:55:00,63.7,39.0,29.80,SSE,150,5.0,12.0,40,0.00,,---,0.00,VWS V14.01,2013-03-04 01:55:00,
2013-03-03 19:56:00,63.7,39.0,29.80,SSE,163,7.0,12.0,40,0.00,,---,0.00,VWS V14.01,2013-03-04 01:56:00,
2013-03-03 19:57:00,63.7,39.0,29.80,SSE,151,5.0,12.0,40,0.00,,---,0.00,VWS V14.01,2013-03-04 01:57:00,
2013-03-03 19:58:00,63.7,39.0,29.80,SSE,161,8.0,12.0,40,0.00,,---,0.00,VWS V14.01,2013-03-04 01:58:00,
2013-03-03 19:59:00,65.1,38.9,29.79,SSE,163,7.0,17.0,38,0.00,,---,0.00,VWS V14.01,2013-03-04 01:59:00,
2013-03-03 20:00:00,63.7,39.0,29.80,South,173,4.0,12.0,40,0.00,,---,0.00,VWS V14.01,2013-03-04 02:00:00,
2013-03-03 20:01:00,63.7,39.0,29.80,South,187,13.0,13.0,40,0.00,,---,0.00,VWS V14.01,2013-03-04 02:01:00,
2013-03-03 20:02:00,63.7,39.0,29.80,South,175,12.0,14.0,40,0.00,,---,0.00,VWS V14.01,2013-03-04 02:02:00,
2013-03-03 20:03:00,63.6,38.9,29.80,South,173,12.0,14.0,40,0.00,,---,0.00,VWS V14.01,2013-03-04 02:03:00,
2013-03-03 20:04:00,65.0,38.8,29.80,SE,140,4.0,15.0,38,0.00,,---,0.00,VWS V14.01,2013-03-04 02:04:00,
2013-03-03 20:05:00,63.6,38.9,29.80,South,171,10.0,14.0,40,0.00,,---,0.00,VWS V14.01,2013-03-04 02:05:00,
2013-03-03 20:06:00,63.6,38.9,29.80,South,169,7.0,14.0,40,0.00,,---,0.00,VWS V14.01,2013-03-04 02:06:00,
2013-03-03 20:07:00,63.6,38.9,29.80,SSE,153,3.0,14.0,40,0.00,,---,0.00,VWS V14.01,2013-03-04 02:07:00,
2013-03-03 20:08:00,63.6,38.9,29.80,SSE,155,10.0,12.0,40,0.00,,---,0.00,VWS V14.01,2013-03-04 02:08:00,
2013-03-03 20:09:00,64.8,38.6,29.80,South,170,11.0,17.0,38,0.00,,---,0.00,VWS V14.01,2013-03-04 02:09:00,
2013-03-03 20:10:00,63.6,38.9,29.80,SSE,147,3.0,15.0,40,0.00,,---,0.00,VWS V14.01,2013-03-04 02:10:00,
2013-03-03 20:11:00,63.6,38.9,29.80,SSE,155,6.0,16.0,40,0.00,,---,0.00,VWS V14.01,2013-03-04 02:11:00,
2013-03-03 20:12:00,63.6,38.9,29.79,South,175,11.0,16.0,40,0.00,,---,0.00,VWS V14.01,2013-03-04 02:12:00,
2013-03-03 20:13:00,63.7,39.0,29.80,South,171,13.0,16.0,40,0.00,,---,0.00,VWS V14.01,2013-03-04 02:13:00,
2013-03-03 20:14:00,64.6,38.4,29.80,SSE,157,6.0,17.0,38,0.00,,---,0.00,VWS V14.01,2013-03-04 02:14:00,
2013-03-03 20:15:00,63.7,39.0,29.79,South,171,11.0,16.0,40,0.00,,---,0.00,VWS V14.01,2013-03-04 02:15:00,
2013-03-03 20:16:00,63.7,39.0,29.79,SSE,163,9.0,15.0,40,0.00,,---,0.00,VWS V14.01,2013-03-04 02:16:00,
2013-03-03 20:17:00,63.7,39.0,29.80,SSE,160,2.0,15.0,40,0.00,,---,0.00,VWS V14.01,2013-03-04 02:17:00,
2013-03-03 20:18:00,63.7,39.0,29.80,SSE,161,6.0,15.0,40,0.00,,---,0.00,VWS V14.01,2013-03-04 02:18:00,
2013-03-03 20:19:00,64.6,38.4,29.80,South,169,4.0,16.0,38,0.00,,---,0.00,VWS V14.01,2013-03-04 02:19:00,
2013-03-03 20:20:00,63.7,39.0,29.80,SSE,165,11.0,13.0,40,0.00,,---,0.00,VWS V14.01,2013-03-04 02:20:00,
2013-03-03 20:21:00,63.7,39.0,29.80,SSE,149,4.0,18.0,40,0.00,,---,0.00,VWS V14.01,2013-03-04 02:21:00,
2013-03-03 20:22:00,63.8,39.0,29.79,SE,144,11.0,18.0,40,0.00,,---,0.00,VWS V14.01,2013-03-04 02:22:00,
2013-03-03 20:23:00,63.8,39.0,29.79,South,175,12.0,18.0,40,0.00,,---,0.00,VWS V14.01,2013-03-04 02:23:00,
2013-03-03 20:24:00,64.4,38.9,29.80,SE,138,11.0,15.0,39,0.00,,---,0.00,VWS V14.01,2013-03-04 02:24:00,
2013-03-03 20:25:00,63.8,39.7,29.79,SSE,167,7.0,18.0,41,0.00,,---,0.00,VWS V14.01,2013-03-04 02:25:00,
2013-03-03 20:26:00,63.8,39.7,29.79,South,185,13.0,16.0,41,0.00,,---,0.00,VWS V14.01,2013-03-04 02:26:00,
2013-03-03 20:27:00,63.8,39.0,29.79,South,177,14.0,16.0,40,0.00,,---,0.00,VWS V14.01,2013-03-04 02:27:00,
2013-03-03 20:28:00,63.8,39.0,29.79,SSE,154,4.0,16.0,40,0.00,,---,0.00,VWS V14.01,2013-03-04 02:28:00,
2013-03-03 20:29:00,64.2,38.8,29.80,South,173,7.0,15.0,39,0.00,,---,0.00,VWS V14.01,2013-03-04 02:29:00,
2013-03-03 20:30:00,63.8,39.7,29.79,SSE,152,7.0,16.0,41,0.00,,---,0.00,VWS V14.01,2013-03-04 02:30:00,
2013-03-03 20:31:00,63.8,39.7,29.79,SSE,153,3.0,15.0,41,0.00,,---,0.00,VWS V14.01,2013-03-04 02:31:00,
2013-03-03 20:32:00,63.8,39.7,29.79,SSE,159,10.0,15.0,41,0.00,,---,0.00,VWS V14.01,2013-03-04 02:32:00,
2013-03-03 20:33:00,63.8,39.7,29.79,SSE,157,13.0,14.0,41,0.00,,---,0.00,VWS V14.01,2013-03-04 02:33:00,
2013-03-03 20:34:00,64.1,38.7,29.80,SSE,152,2.0,14.0,39,0.00,,---,0.00,VWS V14.01,2013-03-04 02:34:00,
2013-03-03 20:35:00,63.9,39.8,29.79,SE,136,7.0,13.0,41,0.00,,---,0.00,VWS V14.01,2013-03-04 02:35:00,
2013-03-03 20:36:00,63.9,39.8,29.79,SSE,159,5.0,13.0,41,0.00,,---,0.00,VWS V14.01,2013-03-04 02:36:00,
2013-03-03 20:37:00,63.9,39.8,29.79,South,173,12.0,13.0,41,0.00,,---,0.00,VWS V14.01,2013-03-04 02:37:00,
2013-03-03 20:38:00,63.9,39.8,29.79,SSE,155,12.0,14.0,41,0.00,,---,0.00,VWS V14.01,2013-03-04 02:38:00,
2013-03-03 20:39:00,63.9,39.1,29.80,SSE,163,11.0,13.0,40,0.00,,---,0.00,VWS V14.01,2013-03-04 02:39:00,
2013-03-03 20:40:00,63.9,39.8,29.78,South,176,14.0,19.0,41,0.00,,---,0.00,VWS V14.01,2013-03-04 02:40:00,
2013-03-03 20:41:00,63.9,39.8,29.78,South,182,14.0,19.0,41,0.00,,---,0.00,VWS V14.01,2013-03-04 02:41:00,
2013-03-03 20:42:00,63.9,39.8,29.78,SSE,153,5.0,19.0,41,0.00,,---,0.00,VWS V14.01,2013-03-04 02:42:00,
2013-03-03 20:43:00,63.9,39.8,29.78,SSE,153,13.0,19.0,41,0.00,,---,0.00,VWS V14.01,2013-03-04 02:43:00,
2013-03-03 20:44:00,63.8,39.0,29.80,South,174,16.0,16.0,40,0.00,,---,0.00,VWS V14.01,2013-03-04 02:44:00,
2013-03-03 20:45:00,64.0,39.8,29.78,SSE,164,11.0,19.0,41,0.00,,---,0.00,VWS V14.01,2013-03-04 02:45:00,
2013-03-03 20:46:00,64.0,39.8,29.78,SSE,167,13.0,19.0,41,0.00,,---,0.00,VWS V14.01,2013-03-04 02:46:00,
2013-03-03 20:47:00,64.0,39.8,29.78,SSE,163,6.0,19.0,41,0.00,,---,0.00,VWS V14.01,2013-03-04 02:47:00,
2013-03-03 20:48:00,64.0,39.8,29.78,SSE,159,10.0,19.0,41,0.00,,---,0.00,VWS V14.01,2013-03-04 02:48:00,
2013-03-03 20:49:00,63.8,39.0,29.80,South,176,12.0,16.0,40,0.00,,---,0.00,VWS V14.01,2013-03-04 02:49:00,
2013-03-03 20:50:00,64.1,39.9,29.78,SSE,149,5.0,14.0,41,0.00,,---,0.00,VWS V14.01,2013-03-04 02:50:00,
2013-03-03 20:51:00,64.1,39.9,29.78,SSE,155,6.0,15.0,41,0.00,,---,0.00,VWS V14.01,2013-03-04 02:51:00,
2013-03-03 20:52:00,64.1,39.9,29.78,South,171,9.0,15.0,41,0.00,,---,0.00,VWS V14.01,2013-03-04 02:52:00,
2013-03-03 20:53:00,64.1,39.9,29.78,South,175,12.0,15.0,41,0.00,,---,0.00,VWS V14.01,2013-03-04 02:53:00,
2013-03-03 20:54:00,63.7,39.0,29.80,SSE,150,4.0,12.0,40,0.00,,---,0.00,VWS V14.01,2013-03-04 02:54:00,
2013-03-03 20:55:00,64.1,39.9,29.78,SSE,168,11.0,18.0,41,0.00,,---,0.00,VWS V14.01,2013-03-04 02:55:00,
2013-03-03 20:56:00,64.1,39.9,29.78,SSE,156,3.0,18.0,41,0.00,,---,0.00,VWS V14.01,2013-03-04 02:56:00,
2013-03-03 20:57:00,64.1,39.9,29.78,SE,135,9.0,18.0,41,0.00,,---,0.00,VWS V14.01,2013-03-04 02:57:00,
2013-03-03 20:58:00,64.0,39.8,29.78,SE,144,2.0,20.0,41,0.00,,---,0.00,VWS V14.01,2013-03-04 02:58:00,
2013-03-03 20:59:00,63.6,38.9,29.80,South,178,11.0,14.0,40,0.00,,---,0.00,VWS V14.01,2013-03-04 02:59:00,
2013-03-03 21:00:00,64.0,39.8,29.78,South,173,18.0,20.0,41,0.00,,---,0.00,VWS V14.01,2013-03-04 03:00:00,
2013-03-03 21:01:00,64.0,39.8,29.78,South,170,10.0,20.0,41,0.00,,---,0.00,VWS V14.01,2013-03-04 03:01:00,
2013-03-03 21:02:00,64.0,39.8,29.78,South,169,12.0,20.0,41,0.00,,---,0.00,VWS V14.01,2013-03-04 03:02:00,
2013-03-03 21:03:00,64.0,39.8,29.78,South,180,14.0,18.0,41,0.00,,---,0.00,VWS V14.01,2013-03-04 03:03:00,
2013-03-03 21:04:00,63.6,38.9,29.80,SE,146,7.0,15.0,40,0.00,,---,0.00,VWS V14.01,2013-03-04 03:04:00,
2013-03-03 21:05:00,64.0,39.8,29.78,SSE,163,6.0,16.0,41,0.00,,---,0.00,VWS V14.01,2013-03-04 03:05:00,
2013-03-03 21:06:00,64.0,39.8,29.78,SSE,151,10.0,16.0,41,0.00,,---,0.00,VWS V14.01,2013-03-04 03:06:00,
2013-03-03 21:07:00,64.0,39.8,29.78,SSE,167,11.0,16.0,41,0.00,,---,0.00,VWS V14.01,2013-03-04 03:07:00,
2013-03-03 21:08:00,64.0,39.8,29.78,SE,145,4.0,16.0,41,0.00,,---,0.00,VWS V14.01,2013-03-04 03:08:00,
2013-03-03 21:09:00,63.7,39.0,29.79,South,175,11.0,16.0,40,0.00,,---,0.00,VWS V14.01,2013-03-04 03:09:00,
2013-03-03 21:10:00,63.9,40.4,29.78,South,169,11.0,16.0,42,0.00,,---,0.00,VWS V14.01,2013-03-04 03:10:00,
2013-03-03 21:11:00,63.9,39.8,29.78,South,186,12.0,17.0,41,0.00,,---,0.00,VWS V14.01,2013-03-04 03:11:00,
2013-03-03 21:12:00,63.9,39.8,29.78,SSE,150,7.0,17.0,41,0.00,,---,0.00,VWS V14.01,2013-03-04 03:12:00,
2013-03-03 21:13:00,63.9,39.8,29.78,SSE,163,9.0,17.0,41,0.00,,---,0.00,VWS V14.01,2013-03-04 03:13:00,
2013-03-03 21:14:00,63.7,39.0,29.80,South,175,11.0,13.0,40,0.00,,---,0.00,VWS V14.01,2013-03-04 03:14:00,
2013-03-03 21:15:00,63.9,40.4,29.78,South,182,13.0,17.0,42,0.00,,---,0.00,VWS V14.01,2013-03-04 03:15:00,
2013-03-03 21:16:00,63.9,39.8,29.78,South,179,15.0,16.0,41,0.00,,---,0.00,VWS V14.01,2013-03-04 03:16:00,
2013-03-03 21:17:00,63.8,40.3,29.78,SSE,162,6.0,15.0,42,0.00,,---,0.00,VWS V14.01,2013-03-04 03:17:00,
2013-03-03 21:18:00,63.8,40.3,29.78,SSE,166,6.0,15.0,42,0.00,,---,0.00,VWS V14.01,2013-03-04 03:18:00,
2013-03-03 21:19:00,63.8,39.0,29.79,South,173,12.0,18.0,40,0.00,,---,0.00,VWS V14.01,2013-03-04 03:19:00,
2013-03-03 21:20:00,63.8,40.3,29.78,South,179,7.0,18.0,42,0.00,,---,0.00,VWS V14.01,2013-03-04 03:20:00,
2013-03-03 21:21:00,63.8,40.3,29.78,South,169,9.0,18.0,42,0.00,,---,0.00,VWS V14.01,2013-03-04 03:21:00,
2013-03-03 21:22:00,63.8,39.7,29.78,South,171,13.0,18.0,41,0.00,,---,0.00,VWS V14.01,2013-03-04 03:22:00,
2013-03-03 21:23:00,63.8,40.3,29.78,SSE,152,10.0,18.0,42,0.00,,---,0.00,VWS V14.01,2013-03-04 03:23:00,
2013-03-03 21:24:00,63.8,39.7,29.79,South,181,14.0,16.0,41,0.00,,---,0.00,VWS V14.01,2013-03-04 03:24:00,
2013-03-03 21:25:00,63.8,40.3,29.78,SSE,162,4.0,16.0,42,0.00,,---,0.00,VWS V14.01,2013-03-04 03:25:00,
2013-03-03 21:26:00,63.8,40.3,29.78,SSE,150,12.0,15.0,42,0.00,,---,0.00,VWS V14.01,2013-03-04 03:26:00,
2013-03-03 21:27:00,63.8,40.3,29.78,SSE,163,4.0,15.0,42,0.00,,---,0.00,VWS V14.01,2013-03-04 03:27:00,
2013-03-03 21:28:00,63.8,40.3,29.78,SE,132,7.0,15.0,42,0.00,,---,0.00,VWS V14.01,2013-03-04 03:28:00,
2013-03-03 21:29:00,63.8,39.7,29.79,SSE,151,2.0,14.0,41,0.00,,---,0.00,VWS V14.01,2013-03-04 03:29:00,
2013-03-03 21:30:00,63.7,40.2,29.78,SSE,152,3.0,15.0,42,0.00,,---,0.00,VWS V14.01,2013-03-04 03:30:00,
2013-03-03 21:31:00,63.7,40.2,29.78,South,169,6.0,17.0,42,0.00,,---,0.00,VWS V14.01,2013-03-04 03:31:00,
2013-03-03 21:32:00,63.7,40.2,29.79,SSE,151,6.0,17.0,42,0.00,,---,0.00,VWS V14.01,2013-03-04 03:32:00,
2013-03-03 21:33:00,63.6,40.1,29.78,South,177,10.0,17.0,42,0.00,,---,0.00,VWS V14.01,2013-03-04 03:33:00,
2013-03-03 21:34:00,63.8,39.7,29.78,South,171,14.0,16.0,41,0.00,,---,0.00,VWS V14.01,2013-03-04 03:34:00,
2013-03-03 21:35:00,63.6,40.1,29.78,SSE,153,11.0,17.0,42,0.00,,---,0.00,VWS V14.01,2013-03-04 03:35:00,
2013-03-03 21:36:00,63.5,40.0,29.78,SE,145,4.0,15.0,42,0.00,,---,0.00,VWS V14.01,2013-03-04 03:36:00,
2013-03-03 21:37:00,63.5,40.0,29.78,South,180,12.0,15.0,42,0.00,,---,0.00,VWS V14.01,2013-03-04 03:37:00,
2013-03-03 21:38:00,63.5,40.0,29.79,SSE,150,5.0,15.0,42,0.00,,---,0.00,VWS V14.01,2013-03-04 03:38:00,
2013-03-03 21:39:00,63.9,39.8,29.78,SSE,160,13.0,19.0,41,0.00,,---,0.00,VWS V14.01,2013-03-04 03:39:00,
2013-03-03 21:40:00,63.4,39.9,29.79,SSE,150,4.0,19.0,42,0.00,,---,0.00,VWS V14.01,2013-03-04 03:40:00,
2013-03-03 21:41:00,63.4,40.5,29.79,South,179,13.0,19.0,43,0.00,,---,0.00,VWS V14.01,2013-03-04 03:41:00,
2013-03-03 21:42:00,63.3,40.4,29.79,South,173,7.0,19.0,43,0.00,,---,0.00,VWS V14.01,2013-03-04 03:42:00,
2013-03-03 21:43:00,63.3,40.4,29.79,South,169,10.0,19.0,43,0.00,,---,0.00,VWS V14.01,2013-03-04 03:43:00,
2013-03-03 21:44:00,64.0,39.8,29.78,SSE,150,3.0,19.0,41,0.00,,---,0.00,VWS V14.01,2013-03-04 03:44:00,
2013-03-03 21:45:00,63.2,40.3,29.79,SE,145,3.0,19.0,43,0.00,,---,0.00,VWS V14.01,2013-03-04 03:45:00,
2013-03-03 21:46:00,63.1,40.3,29.78,South,181,16.0,19.0,43,0.00,,---,0.00,VWS V14.01,2013-03-04 03:46:00,
2013-03-03 21:47:00,63.1,40.3,29.78,SSE,155,3.0,19.0,43,0.00,,---,0.00,VWS V14.01,2013-03-04 03:47:00,
2013-03-03 21:48:00,63.1,40.3,29.78,SSE,155,5.0,19.0,43,0.00,,---,0.00,VWS V14.01,2013-03-04 03:48:00,
2013-03-03 21:49:00,64.1,39.9,29.78,SSE,163,6.0,18.0,41,0.00,,---,0.00,VWS V14.01,2013-03-04 03:49:00,
2013-03-03 21:50:00,63.0,40.2,29.78,South,171,6.0,16.0,43,0.00,,---,0.00,VWS V14.01,2013-03-04 03:50:00,
2013-03-03 21:51:00,62.9,40.1,29.78,South,170,13.0,17.0,43,0.00,,---,0.00,VWS V14.01,2013-03-04 03:51:00,
2013-03-03 21:52:00,62.9,40.7,29.78,South,172,16.0,17.0,44,0.00,,---,0.00,VWS V14.01,2013-03-04 03:52:00,
2013-03-03 21:53:00,62.9,40.7,29.78,SSE,167,19.0,19.0,44,0.00,,---,0.00,VWS V14.01,2013-03-04 03:53:00,
2013-03-03 21:54:00,64.0,39.8,29.78,South,170,11.0,20.0,41,0.00,,---,0.00,VWS V14.01,2013-03-04 03:54:00,
2013-03-03 21:55:00,62.9,40.7,29.78,South,173,15.0,19.0,44,0.00,,---,0.00,VWS V14.01,2013-03-04 03:55:00,
2013-03-03 21:56:00,62.8,40.6,29.79,SSE,156,9.0,19.0,44,0.00,,---,0.00,VWS V14.01,2013-03-04 03:56:00,
2013-03-03 21:57:00,62.8,40.6,29.79,SSE,150,5.0,19.0,44,0.00,,---,0.00,VWS V14.01,2013-03-04 03:57:00,
2013-03-03 21:58:00,62.8,40.6,29.79,South,174,6.0,19.0,44,0.00,,---,0.00,VWS V14.01,2013-03-04 03:58:00,
2013-03-03 21:59:00,64.0,39.8,29.78,South,169,12.0,18.0,41,0.00,,---,0.00,VWS V14.01,2013-03-04 03:59:00,
2013-03-03 22:00:00,62.7,40.5,29.79,SSE,167,6.0,16.0,44,0.00,,---,0.00,VWS V14.01,2013-03-04 04:00:00,
2013-03-03 22:01:00,62.7,40.5,29.79,SSE,150,2.0,16.0,44,0.00,,---,0.00,VWS V14.01,2013-03-04 04:01:00,
2013-03-03 22:02:00,62.7,40.5,29.79,South,174,10.0,16.0,44,0.00,,---,0.00,VWS V14.01,2013-03-04 04:02:00,
2013-03-03 22:03:00,62.6,41.0,29.78,SSE,159,5.0,16.0,45,0.00,,---,0.00,VWS V14.01,2013-03-04 04:03:00,
2013-03-03 22:04:00,63.9,40.4,29.78,SSE,158,3.0,16.0,42,0.00,,---,0.00,VWS V14.01,2013-03-04 04:04:00,
2013-03-03 22:05:00,62.5,40.9,29.79,South,175,10.0,15.0,45,0.00,,---,0.00,VWS V14.01,2013-03-04 04:05:00,
2013-03-03 22:06:00,62.5,40.9,29.79,South,173,11.0,17.0,45,0.00,,---,0.00,VWS V14.01,2013-03-04 04:06:00,
2013-03-03 22:07:00,62.4,40.8,29.78,SSE,150,6.0,17.0,45,0.00,,---,0.00,VWS V14.01,2013-03-04 04:07:00,
2013-03-03 22:08:00,62.4,40.8,29.78,South,181,11.0,17.0,45,0.00,,---,0.00,VWS V14.01,2013-03-04 04:08:00,
2013-03-03 22:09:00,63.9,39.8,29.78,South,183,8.0,17.0,41,0.00,,---,0.00,VWS V14.01,2013-03-04 04:09:00,
2013-03-03 22:10:00,62.4,41.4,29.78,SSE,157,7.0,18.0,46,0.00,,---,0.00,VWS V14.01,2013-03-04 04:10:00,
2013-03-03 22:11:00,62.4,41.4,29.78,ESE,123,3.0,18.0,46,0.00,,---,0.00,VWS V14.01,2013-03-04 04:11:00,
2013-03-03 22:12:00,62.4,41.4,29.78,SE,144,5.0,18.0,46,0.00,,---,0.00,VWS V14.01,2013-03-04 04:12:00,
2013-03-03 22:13:00,62.4,41.4,29.78,South,175,13.0,18.0,46,0.00,,---,0.00,VWS V14.01,2013-03-04 04:13:00,
2013-03-03 22:14:00,63.8,40.3,29.78,South,173,10.0,18.0,42,0.00,,---,0.00,VWS V14.01,2013-03-04 04:14:00,
2013-03-03 22:15:00,62.4,41.4,29.78,South,170,15.0,22.0,46,0.00,,---,0.00,VWS V14.01,2013-03-04 04:15:00,
2013-03-03 22:16:00,62.4,41.4,29.78,South,174,11.0,22.0,46,0.00,,---,0.00,VWS V14.01,2013-03-04 04:16:00,
2013-03-03 22:17:00,62.4,41.4,29.78,SSE,150,8.0,22.0,46,0.00,,---,0.00,VWS V14.01,2013-03-04 04:17:00,
2013-03-03 22:18:00,62.4,41.4,29.78,SSE,165,7.0,22.0,46,0.00,,---,0.00,VWS V14.01,2013-03-04 04:18:00,
2013-03-03 22:19:00,63.8,40.3,29.78,SSE,147,3.0,16.0,42,0.00,,---,0.00,VWS V14.01,2013-03-04 04:19:00,
2013-03-03 22:20:00,62.4,41.4,29.78,SSE,161,11.0,18.0,46,0.00,,---,0.00,VWS V14.01,2013-03-04 04:20:00,
2013-03-03 22:21:00,62.3,41.8,29.78,South,179,10.0,18.0,47,0.00,,---,0.00,VWS V14.01,2013-03-04 04:21:00,
2013-03-03 22:22:00,62.3,41.8,29.78,South,180,13.0,18.0,47,0.00,,---,0.00,VWS V14.01,2013-03-04 04:22:00,
2013-03-03 22:23:00,62.3,41.8,29.78,South,173,13.0,18.0,47,0.00,,---,0.00,VWS V14.01,2013-03-04 04:23:00,
2013-03-03 22:24:00,63.8,40.3,29.78,SSE,162,8.0,15.0,42,0.00,,---,0.00,VWS V14.01,2013-03-04 04:24:00,
2013-03-03 22:25:00,62.3,41.8,29.78,South,177,11.0,16.0,47,0.00,,---,0.00,VWS V14.01,2013-03-04 04:25:00,
2013-03-03 22:26:00,62.3,41.8,29.78,SSE,156,4.0,16.0,47,0.00,,---,0.00,VWS V14.01,2013-03-04 04:26:00,
2013-03-03 22:27:00,62.3,41.8,29.78,SSE,167,11.0,18.0,47,0.00,,---,0.00,VWS V14.01,2013-03-04 04:27:00,
2013-03-03 22:28:00,62.3,41.8,29.78,South,181,14.0,18.0,47,0.00,,---,0.00,VWS V14.01,2013-03-04 04:28:00,
2013-03-03 22:29:00,63.6,40.1,29.79,SSE,159,9.0,17.0,42,0.00,,---,0.00,VWS V14.01,2013-03-04 04:29:00,
2013-03-03 22:30:00,62.3,41.8,29.78,South,173,12.0,18.0,47,0.00,,---,0.00,VWS V14.01,2013-03-04 04:30:00,
2013-03-03 22:31:00,62.2,41.7,29.78,SSE,161,9.0,18.0,47,0.00,,---,0.00,VWS V14.01,2013-03-04 04:31:00,
2013-03-03 22:32:00,62.2,41.7,29.78,South,170,13.0,18.0,47,0.00,,---,0.00,VWS V14.01,2013-03-04 04:32:00,
2013-03-03 22:33:00,62.2,42.3,29.78,SSE,157,5.0,18.0,48,0.00,,---,0.00,VWS V14.01,2013-03-04 04:33:00,
2013-03-03 22:34:00,63.4,39.9,29.79,South,169,11.0,15.0,42,0.00,,---,0.00,VWS V14.01,2013-03-04 04:34:00,
2013-03-03 22:35:00,62.1,42.2,29.78,SSE,161,18.0,18.0,48,0.00,,---,0.00,VWS V14.01,2013-03-04 04:35:00,
2013-03-03 22:36:00,62.1,42.2,29.78,South,174,13.0,18.0,48,0.00,,---,0.00,VWS V14.01,2013-03-04 04:36:00,
2013-03-03 22:37:00,62.1,42.2,29.78,South,172,16.0,18.0,48,0.00,,---,0.00,VWS V14.01,2013-03-04 04:37:00,
2013-03-03 22:38:00,62.1,42.2,29.78,South,176,12.0,18.0,48,0.00,,---,0.00,VWS V14.01,2013-03-04 04:38:00,
2013-03-03 22:39:00,63.2,40.3,29.79,South,180,9.0,19.0,43,0.00,,---,0.00,VWS V14.01,2013-03-04 04:39:00,
2013-03-03 22:40:00,62.1,42.7,29.78,South,187,11.0,19.0,49,0.00,,---,0.00,VWS V14.01,2013-03-04 04:40:00,
2013-03-03 22:41:00,62.0,42.6,29.78,SSE,150,8.0,19.0,49,0.00,,---,0.00,VWS V14.01,2013-03-04 04:41:00,
2013-03-03 22:42:00,62.0,42.6,29.78,South,171,16.0,19.0,49,0.00,,---,0.00,VWS V14.01,2013-03-04 04:42:00,
2013-03-03 22:43:00,62.0,42.6,29.78,South,171,16.0,19.0,49,0.00,,---,0.00,VWS V14.01,2013-03-04 04:43:00,
2013-03-03 22:44:00,63.0,40.2,29.78,South,173,15.0,19.0,43,0.00,,---,0.00,VWS V14.01,2013-03-04 04:44:00,
2013-03-03 22:45:00,61.9,42.5,29.78,South,178,5.0,18.0,49,0.00,,---,0.00,VWS V14.01,2013-03-04 04:45:00,
2013-03-03 22:46:00,61.9,42.5,29.78,South,176,16.0,16.0,49,0.00,,---,0.00,VWS V14.01,2013-03-04 04:46:00,
2013-03-03 22:47:00,61.9,42.5,29.78,South,171,22.0,22.0,49,0.00,,---,0.00,VWS V14.01,2013-03-04 04:47:00,
2013-03-03 22:48:00,61.9,42.5,29.78,SE,146,19.0,22.0,49,0.00,,---,0.00,VWS V14.01,2013-03-04 04:48:00,
2013-03-03 22:49:00,62.9,40.7,29.78,SSE,157,8.0,19.0,44,0.00,,---,0.00,VWS V14.01,2013-03-04 04:49:00,
2013-03-03 22:50:00,61.9,42.5,29.78,SSE,164,11.0,22.0,49,0.00,,---,0.00,VWS V14.01,2013-03-04 04:50:00,
2013-03-03 22:51:00,61.8,42.5,29.78,South,181,11.0,22.0,49,0.00,,---,0.00,VWS V14.01,2013-03-04 04:51:00,
2013-03-03 22:52:00,61.8,43.0,29.77,SSE,148,7.0,22.0,50,0.00,,---,0.00,VWS V14.01,2013-03-04 04:52:00,
2013-03-03 22:53:00,61.8,43.0,29.77,SE,131,5.0,19.0,50,0.00,,---,0.00,VWS V14.01,2013-03-04 04:53:00,
2013-03-03 22:54:00,62.8,40.6,29.78,South,169,16.0,17.0,44,0.00,,---,0.00,VWS V14.01,2013-03-04 04:54:00,
2013-03-03 22:55:00,61.8,43.0,29.77,SSE,151,11.0,28.0,50,0.00,,---,0.00,VWS V14.01,2013-03-04 04:55:00,
2013-03-03 22:56:00,61.8,43.0,29.77,South,190,20.0,21.0,50,0.00,,---,0.00,VWS V14.01,2013-03-04 04:56:00,
2013-03-03 22:57:00,61.7,42.9,29.77,South,173,18.0,21.0,50,0.00,,---,0.00,VWS V14.01,2013-03-04 04:57:00,
2013-03-03 22:58:00,61.8,43.0,29.77,SSE,153,2.0,21.0,50,0.00,,---,0.00,VWS V14.01,2013-03-04 04:58:00,
2013-03-03 22:59:00,62.5,40.9,29.79,South,178,9.0,16.0,45,0.00,,---,0.00,VWS V14.01,2013-03-04 04:59:00,
2013-03-03 23:00:00,62.6,41.0,29.79,South,173,13.0,14.0,45,0.00,,---,0.00,VWS V14.01,2013-03-04 05:00:00,
2013-03-03 23:01:00,61.7,42.9,29.77,South,174,12.0,20.0,50,0.00,,---,0.00,VWS V14.01,2013-03-04 05:01:00,
2013-03-03 23:02:00,61.6,42.8,29.77,South,188,19.0,21.0,50,0.00,,---,0.00,VWS V14.01,2013-03-04 05:02:00,
2013-03-03 23:03:00,61.6,42.8,29.77,South,175,16.0,25.0,50,0.00,,---,0.00,VWS V14.01,2013-03-04 05:03:00,
2013-03-03 23:04:00,61.6,43.3,29.77,South,185,16.0,25.0,51,0.00,,---,0.00,VWS V14.01,2013-03-04 05:04:00,
2013-03-03 23:05:00,62.4,41.4,29.78,SE,135,13.0,18.0,46,0.00,,---,0.00,VWS V14.01,2013-03-04 05:05:00,
2013-03-03 23:06:00,61.5,43.2,29.77,SSE,151,8.0,25.0,51,0.00,,---,0.00,VWS V14.01,2013-03-04 05:06:00,
2013-03-03 23:07:00,61.4,43.1,29.76,SE,130,11.0,25.0,51,0.00,,---,0.00,VWS V14.01,2013-03-04 05:07:00,
2013-03-03 23:08:00,61.4,43.1,29.76,South,171,18.0,25.0,51,0.00,,---,0.00,VWS V14.01,2013-03-04 05:08:00,
2013-03-03 23:09:00,61.4,43.1,29.76,SSE,149,6.0,22.0,51,0.00,,---,0.00,VWS V14.01,2013-03-04 05:09:00,
2013-03-03 23:10:00,62.4,41.4,29.78,South,189,18.0,22.0,46,0.00,,---,0.00,VWS V14.01,2013-03-04 05:10:00,
2013-03-03 23:11:00,61.3,43.0,29.76,South,176,21.0,22.0,51,0.00,,---,0.00,VWS V14.01,2013-03-04 05:11:00,
2013-03-03 23:12:00,61.3,43.5,29.76,South,186,18.0,23.0,52,0.00,,---,0.00,VWS V14.01,2013-03-04 05:12:00,
2013-03-03 23:13:00,61.3,43.5,29.76,South,181,16.0,23.0,52,0.00,,---,0.00,VWS V14.01,2013-03-04 05:13:00,
2013-03-03 23:14:00,61.2,43.5,29.76,South,176,17.0,23.0,52,0.00,,---,0.00,VWS V14.01,2013-03-04 05:14:00,
2013-03-03 23:15:00,62.4,41.4,29.78,South,171,18.0,18.0,46,0.00,,---,0.00,VWS V14.01,2013-03-04 05:15:00,
2013-03-03 23:16:00,61.2,43.5,29.76,South,170,15.0,23.0,52,0.00,,---,0.00,VWS V14.01,2013-03-04 05:16:00,
2013-03-03 23:17:00,61.1,43.4,29.76,SSE,164,14.0,20.0,52,0.00,,---,0.00,VWS V14.01,2013-03-04 05:17:00,
2013-03-03 23:18:00,61.1,43.4,29.76,SSE,163,9.0,20.0,52,0.00,,---,0.00,VWS V14.01,2013-03-04 05:18:00,
2013-03-03 23:19:00,61.1,43.4,29.76,South,169,12.0,20.0,52,0.00,,---,0.00,VWS V14.01,2013-03-04 05:19:00,
2013-03-03 23:20:00,62.3,41.8,29.78,South,182,11.0,16.0,47,0.00,,---,0.00,VWS V14.01,2013-03-04 05:20:00,
2013-03-03 23:21:00,61.0,43.3,29.76,South,175,16.0,20.0,52,0.00,,---,0.00,VWS V14.01,2013-03-04 05:21:00,
2013-03-03 23:22:00,61.0,43.3,29.76,South,178,13.0,20.0,52,0.00,,---,0.00,VWS V14.01,2013-03-04 05:22:00,
2013-03-03 23:23:00,61.0,43.3,29.76,SSE,166,1.0,20.0,52,0.00,,---,0.00,VWS V14.01,2013-03-04 05:23:00,
2013-03-03 23:24:00,60.9,43.2,29.76,SSW,193,19.0,20.0,52,0.00,,---,0.00,VWS V14.01,2013-03-04 05:24:00,
2013-03-03 23:25:00,62.3,41.8,29.78,SSE,166,13.0,18.0,47,0.00,,---,0.00,VWS V14.01,2013-03-04 05:25:00,
2013-03-03 23:26:00,60.8,43.6,29.76,South,169,11.0,20.0,53,0.00,,---,0.00,VWS V14.01,2013-03-04 05:26:00,
2013-03-03 23:27:00,60.8,43.6,29.76,South,177,11.0,20.0,53,0.00,,---,0.00,VWS V14.01,2013-03-04 05:27:00,
2013-03-03 23:28:00,60.8,43.6,29.76,South,186,12.0,20.0,53,0.00,,---,0.00,VWS V14.01,2013-03-04 05:28:00,
2013-03-03 23:29:00,60.7,43.5,29.76,South,180,15.0,20.0,53,0.00,,---,0.00,VWS V14.01,2013-03-04 05:29:00,
2013-03-03 23:30:00,62.1,42.2,29.78,South,171,14.0,16.0,48,0.00,,---,0.00,VWS V14.01,2013-03-04 05:30:00,
2013-03-03 23:31:00,60.6,43.4,29.76,South,169,16.0,24.0,53,0.00,,---,0.00,VWS V14.01,2013-03-04 05:31:00,
2013-03-03 23:32:00,60.6,43.4,29.76,SSE,168,20.0,24.0,53,0.00,,---,0.00,VWS V14.01,2013-03-04 05:32:00,
2013-03-03 23:33:00,60.6,43.4,29.76,SSE,161,6.0,24.0,53,0.00,,---,0.00,VWS V14.01,2013-03-04 05:33:00,
2013-03-03 23:34:00,60.5,43.3,29.76,South,181,12.0,24.0,53,0.00,,---,0.00,VWS V14.01,2013-03-04 05:34:00,
2013-03-03 23:35:00,62.1,42.2,29.78,South,187,12.0,19.0,48,0.00,,---,0.00,VWS V14.01,2013-03-04 05:35:00,
2013-03-03 23:36:00,60.5,43.8,29.76,South,170,12.0,22.0,54,0.00,,---,0.00,VWS V14.01,2013-03-04 05:36:00,
2013-03-03 23:37:00,60.4,43.7,29.76,South,173,14.0,22.0,54,0.00,,---,0.00,VWS V14.01,2013-03-04 05:37:00,
2013-03-03 23:38:00,60.4,43.7,29.75,SE,137,6.0,22.0,54,0.00,,---,0.00,VWS V14.01,2013-03-04 05:38:00,
2013-03-03 23:39:00,60.4,43.7,29.75,South,177,17.0,21.0,54,0.00,,---,0.00,VWS V14.01,2013-03-04 05:39:00,
2013-03-03 23:40:00,61.9,42.5,29.78,South,178,10.0,18.0,49,0.00,,---,0.00,VWS V14.01,2013-03-04 05:40:00,
2013-03-03 23:41:00,60.3,43.6,29.75,SSE,165,15.0,21.0,54,0.00,,---,0.00,VWS V14.01,2013-03-04 05:41:00,
2013-03-03 23:42:00,60.2,43.5,29.75,SSE,152,10.0,21.0,54,0.00,,---,0.00,VWS V14.01,2013-03-04 05:42:00,
2013-03-03 23:43:00,60.2,43.5,29.75,South,176,7.0,21.0,54,0.00,,---,0.00,VWS V14.01,2013-03-04 05:43:00,
2013-03-03 23:44:00,60.2,43.5,29.75,South,188,16.0,21.0,54,0.00,,---,0.00,VWS V14.01,2013-03-04 05:44:00,
2013-03-03 23:45:00,61.9,42.5,29.78,SSE,164,11.0,22.0,49,0.00,,---,0.00,VWS V14.01,2013-03-04 05:45:00,
2013-03-03 23:46:00,60.1,43.9,29.75,South,171,13.0,18.0,55,0.00,,---,0.00,VWS V14.01,2013-03-04 05:46:00,
2013-03-03 23:47:00,60.0,43.8,29.75,South,173,15.0,18.0,55,0.00,,---,0.00,VWS V14.01,2013-03-04 05:47:00,
2013-03-03 23:48:00,60.0,43.8,29.75,South,171,10.0,20.0,55,0.00,,---,0.00,VWS V14.01,2013-03-04 05:48:00,
2013-03-03 23:49:00,60.0,43.8,29.75,South,182,12.0,20.0,55,0.00,,---,0.00,VWS V14.01,2013-03-04 05:49:00,
2013-03-03 23:50:00,61.8,43.0,29.77,SSE,151,11.0,21.0,50,0.00,,---,0.00,VWS V14.01,2013-03-04 05:50:00,
2013-03-03 23:51:00,59.9,43.7,29.75,South,170,15.0,20.0,55,0.00,,---,0.00,VWS V14.01,2013-03-04 05:51:00,
2013-03-03 23:52:00,59.9,43.7,29.75,South,181,12.0,20.0,55,0.00,,---,0.00,VWS V14.01,2013-03-04 05:52:00,
2013-03-03 23:53:00,59.8,43.6,29.75,South,171,11.0,17.0,55,0.00,,---,0.00,VWS V14.01,2013-03-04 05:53:00,
2013-03-03 23:54:00,59.8,43.6,29.75,South,177,20.0,20.0,55,0.00,,---,0.00,VWS V14.01,2013-03-04 05:54:00,
2013-03-03 23:55:00,61.7,42.9,29.77,South,171,14.0,20.0,50,0.00,,---,0.00,VWS V14.01,2013-03-04 05:55:00,
2013-03-03 23:56:00,59.7,43.5,29.75,SE,143,4.0,20.0,55,0.00,,---,0.00,VWS V14.01,2013-03-04 05:56:00,
2013-03-03 23:57:00,59.7,43.5,29.75,SSE,168,17.0,20.0,55,0.00,,---,0.00,VWS V14.01,2013-03-04 05:57:00,
2013-03-03 23:58:00,59.6,43.4,29.75,South,169,9.0,20.0,55,0.00,,---,0.00,VWS V14.01,2013-03-04 05:58:00,
2013-03-03 23:59:00,59.6,43.4,29.75,South,173,12.0,20.0,55,0.00,,---,0.00,VWS V14.01,2013-03-04 05:59:00,